<?xml version="1.0" encoding="UTF-8" standalone="no" ?>
<gpx xmlns="http://www.topografix.com/GPX/1/1" xmlns:xsi="http://www.w3.org/2001/XMLSchema-instance" xsi:schemaLocation="http://www.topografix.com/GPX/1/1 http://www.topografix.com/GPX/1/1/gpx.xsd" version="1.1" creator="VisuGPX - https://www.visugpx.com">
  <metadata>
    <name>RANDO VILLEREST 30KM</name>
    <desc><![CDATA[RANDO EN BOUCLE DEPART ARRIVEE ST JEAN ST MAURICE. PONT DE PRESLE CORDELLE.picnic au cabanon amenagé a Magneux.entre aire de loisir et terminus du train touristique vers GoutteFronde .VILLEREST. 30KM]]></desc>
  </metadata>
  <trk>
    <name><![CDATA[AAAAEPT-16 17:15:20]]></name>
    <trkseg>
      <trkpt lat="45.93391" lon="4.03556">
        <ele>324.58</ele>
        <time>2016-09-22T07:07:57Z</time>
      </trkpt>
      <trkpt lat="45.93387" lon="4.03557">
        <ele>333.23</ele>
        <time>2016-09-22T07:08:11Z</time>
      </trkpt>
      <trkpt lat="45.93388" lon="4.03561">
        <ele>333.71</ele>
        <time>2016-09-22T07:08:30Z</time>
      </trkpt>
      <trkpt lat="45.93386" lon="4.03558">
        <ele>334.2</ele>
        <time>2016-09-22T07:08:44Z</time>
      </trkpt>
      <trkpt lat="45.93384" lon="4.03555">
        <ele>334.68</ele>
        <time>2016-09-22T07:08:59Z</time>
      </trkpt>
      <trkpt lat="45.93386" lon="4.03555">
        <ele>333.71</ele>
        <time>2016-09-22T07:09:14Z</time>
      </trkpt>
      <trkpt lat="45.93386" lon="4.03556">
        <ele>331.31</ele>
        <time>2016-09-22T07:09:32Z</time>
      </trkpt>
      <trkpt lat="45.93386" lon="4.03557">
        <ele>330.35</ele>
        <time>2016-09-22T07:09:48Z</time>
      </trkpt>
      <trkpt lat="45.93385" lon="4.03556">
        <ele>329.87</ele>
        <time>2016-09-22T07:10:10Z</time>
      </trkpt>
      <trkpt lat="45.93385" lon="4.03556">
        <ele>330.35</ele>
        <time>2016-09-22T07:10:32Z</time>
      </trkpt>
      <trkpt lat="45.93385" lon="4.03556">
        <ele>330.35</ele>
        <time>2016-09-22T07:10:50Z</time>
      </trkpt>
      <trkpt lat="45.93385" lon="4.03555">
        <ele>329.87</ele>
        <time>2016-09-22T07:11:06Z</time>
      </trkpt>
      <trkpt lat="45.93386" lon="4.03555">
        <ele>329.87</ele>
        <time>2016-09-22T07:11:22Z</time>
      </trkpt>
      <trkpt lat="45.93386" lon="4.03555">
        <ele>329.87</ele>
        <time>2016-09-22T07:11:40Z</time>
      </trkpt>
      <trkpt lat="45.93386" lon="4.03556">
        <ele>330.35</ele>
        <time>2016-09-22T07:11:54Z</time>
      </trkpt>
      <trkpt lat="45.93386" lon="4.03558">
        <ele>329.87</ele>
        <time>2016-09-22T07:12:10Z</time>
      </trkpt>
      <trkpt lat="45.93386" lon="4.0356">
        <ele>330.35</ele>
        <time>2016-09-22T07:12:24Z</time>
      </trkpt>
      <trkpt lat="45.93386" lon="4.0356">
        <ele>329.39</ele>
        <time>2016-09-22T07:12:38Z</time>
      </trkpt>
      <trkpt lat="45.93386" lon="4.0356">
        <ele>328.43</ele>
        <time>2016-09-22T07:12:50Z</time>
      </trkpt>
      <trkpt lat="45.93387" lon="4.03561">
        <ele>328.91</ele>
        <time>2016-09-22T07:13:04Z</time>
      </trkpt>
      <trkpt lat="45.93387" lon="4.03563">
        <ele>328.91</ele>
        <time>2016-09-22T07:13:19Z</time>
      </trkpt>
      <trkpt lat="45.93386" lon="4.03565">
        <ele>329.39</ele>
        <time>2016-09-22T07:13:37Z</time>
      </trkpt>
      <trkpt lat="45.93385" lon="4.03566">
        <ele>330.35</ele>
        <time>2016-09-22T07:13:58Z</time>
      </trkpt>
      <trkpt lat="45.93385" lon="4.03567">
        <ele>330.83</ele>
        <time>2016-09-22T07:14:16Z</time>
      </trkpt>
      <trkpt lat="45.93383" lon="4.03568">
        <ele>331.31</ele>
        <time>2016-09-22T07:14:33Z</time>
      </trkpt>
      <trkpt lat="45.93382" lon="4.03569">
        <ele>331.31</ele>
        <time>2016-09-22T07:14:34Z</time>
      </trkpt>
      <trkpt lat="45.93382" lon="4.03583">
        <ele>331.79</ele>
        <time>2016-09-22T07:14:49Z</time>
      </trkpt>
      <trkpt lat="45.93383" lon="4.03589">
        <ele>332.27</ele>
        <time>2016-09-22T07:15:06Z</time>
      </trkpt>
      <trkpt lat="45.93384" lon="4.03593">
        <ele>332.75</ele>
        <time>2016-09-22T07:15:23Z</time>
      </trkpt>
      <trkpt lat="45.93383" lon="4.03599">
        <ele>334.2</ele>
        <time>2016-09-22T07:15:43Z</time>
      </trkpt>
      <trkpt lat="45.93388" lon="4.03609">
        <ele>335.64</ele>
        <time>2016-09-22T07:15:55Z</time>
      </trkpt>
      <trkpt lat="45.93397" lon="4.03618">
        <ele>336.12</ele>
        <time>2016-09-22T07:16:08Z</time>
      </trkpt>
      <trkpt lat="45.9341" lon="4.03624">
        <ele>335.64</ele>
        <time>2016-09-22T07:16:23Z</time>
      </trkpt>
      <trkpt lat="45.9342" lon="4.03628">
        <ele>337.08</ele>
        <time>2016-09-22T07:16:34Z</time>
      </trkpt>
      <trkpt lat="45.93426" lon="4.03628">
        <ele>336.12</ele>
        <time>2016-09-22T07:16:47Z</time>
      </trkpt>
      <trkpt lat="45.93439" lon="4.03634">
        <ele>335.64</ele>
        <time>2016-09-22T07:17:03Z</time>
      </trkpt>
      <trkpt lat="45.93445" lon="4.03638">
        <ele>334.68</ele>
        <time>2016-09-22T07:17:16Z</time>
      </trkpt>
      <trkpt lat="45.93459" lon="4.0365">
        <ele>335.64</ele>
        <time>2016-09-22T07:17:31Z</time>
      </trkpt>
      <trkpt lat="45.9347" lon="4.03659">
        <ele>335.16</ele>
        <time>2016-09-22T07:17:45Z</time>
      </trkpt>
      <trkpt lat="45.93485" lon="4.03664">
        <ele>335.64</ele>
        <time>2016-09-22T07:18:01Z</time>
      </trkpt>
      <trkpt lat="45.93494" lon="4.03667">
        <ele>335.64</ele>
        <time>2016-09-22T07:18:14Z</time>
      </trkpt>
      <trkpt lat="45.93504" lon="4.03668">
        <ele>333.23</ele>
        <time>2016-09-22T07:18:30Z</time>
      </trkpt>
      <trkpt lat="45.93511" lon="4.03668">
        <ele>336.12</ele>
        <time>2016-09-22T07:18:44Z</time>
      </trkpt>
      <trkpt lat="45.93516" lon="4.03669">
        <ele>337.08</ele>
        <time>2016-09-22T07:18:57Z</time>
      </trkpt>
      <trkpt lat="45.93521" lon="4.03672">
        <ele>338.52</ele>
        <time>2016-09-22T07:19:10Z</time>
      </trkpt>
      <trkpt lat="45.93524" lon="4.03672">
        <ele>344.29</ele>
        <time>2016-09-22T07:19:18Z</time>
      </trkpt>
      <trkpt lat="45.93527" lon="4.03657">
        <ele>357.27</ele>
        <time>2016-09-22T07:19:35Z</time>
      </trkpt>
      <trkpt lat="45.93529" lon="4.03645">
        <ele>364</ele>
        <time>2016-09-22T07:19:48Z</time>
      </trkpt>
      <trkpt lat="45.93538" lon="4.03653">
        <ele>367.36</ele>
        <time>2016-09-22T07:20:02Z</time>
      </trkpt>
      <trkpt lat="45.93549" lon="4.03664">
        <ele>370.73</ele>
        <time>2016-09-22T07:20:16Z</time>
      </trkpt>
      <trkpt lat="45.9355" lon="4.03667">
        <ele>370.24</ele>
        <time>2016-09-22T07:20:18Z</time>
      </trkpt>
      <trkpt lat="45.93558" lon="4.03676">
        <ele>370.24</ele>
        <time>2016-09-22T07:20:31Z</time>
      </trkpt>
      <trkpt lat="45.93564" lon="4.03689">
        <ele>375.05</ele>
        <time>2016-09-22T07:20:46Z</time>
      </trkpt>
      <trkpt lat="45.93568" lon="4.03708">
        <ele>378.42</ele>
        <time>2016-09-22T07:20:59Z</time>
      </trkpt>
      <trkpt lat="45.93573" lon="4.03733">
        <ele>380.82</ele>
        <time>2016-09-22T07:21:12Z</time>
      </trkpt>
      <trkpt lat="45.93579" lon="4.03759">
        <ele>385.15</ele>
        <time>2016-09-22T07:21:27Z</time>
      </trkpt>
      <trkpt lat="45.93584" lon="4.03781">
        <ele>390.91</ele>
        <time>2016-09-22T07:21:40Z</time>
      </trkpt>
      <trkpt lat="45.9359" lon="4.038">
        <ele>398.6</ele>
        <time>2016-09-22T07:21:52Z</time>
      </trkpt>
      <trkpt lat="45.93598" lon="4.03821">
        <ele>406.77</ele>
        <time>2016-09-22T07:22:06Z</time>
      </trkpt>
      <trkpt lat="45.93604" lon="4.03841">
        <ele>414.47</ele>
        <time>2016-09-22T07:22:20Z</time>
      </trkpt>
      <trkpt lat="45.93611" lon="4.03862">
        <ele>420.71</ele>
        <time>2016-09-22T07:22:35Z</time>
      </trkpt>
      <trkpt lat="45.93616" lon="4.03881">
        <ele>427.44</ele>
        <time>2016-09-22T07:22:48Z</time>
      </trkpt>
      <trkpt lat="45.93616" lon="4.0389">
        <ele>430.81</ele>
        <time>2016-09-22T07:23:00Z</time>
      </trkpt>
      <trkpt lat="45.93615" lon="4.03893">
        <ele>428.89</ele>
        <time>2016-09-22T07:23:16Z</time>
      </trkpt>
      <trkpt lat="45.93615" lon="4.03899">
        <ele>422.64</ele>
        <time>2016-09-22T07:23:31Z</time>
      </trkpt>
      <trkpt lat="45.9361" lon="4.03914">
        <ele>415.91</ele>
        <time>2016-09-22T07:23:45Z</time>
      </trkpt>
      <trkpt lat="45.93606" lon="4.03927">
        <ele>416.39</ele>
        <time>2016-09-22T07:23:59Z</time>
      </trkpt>
      <trkpt lat="45.93602" lon="4.03945">
        <ele>416.87</ele>
        <time>2016-09-22T07:24:12Z</time>
      </trkpt>
      <trkpt lat="45.936" lon="4.03961">
        <ele>420.23</ele>
        <time>2016-09-22T07:24:25Z</time>
      </trkpt>
      <trkpt lat="45.93597" lon="4.03982">
        <ele>424.08</ele>
        <time>2016-09-22T07:24:40Z</time>
      </trkpt>
      <trkpt lat="45.93595" lon="4.03999">
        <ele>425.52</ele>
        <time>2016-09-22T07:24:54Z</time>
      </trkpt>
      <trkpt lat="45.93596" lon="4.04019">
        <ele>426.96</ele>
        <time>2016-09-22T07:25:10Z</time>
      </trkpt>
      <trkpt lat="45.93597" lon="4.04039">
        <ele>428.89</ele>
        <time>2016-09-22T07:25:25Z</time>
      </trkpt>
      <trkpt lat="45.93598" lon="4.04063">
        <ele>430.81</ele>
        <time>2016-09-22T07:25:41Z</time>
      </trkpt>
      <trkpt lat="45.936" lon="4.04081">
        <ele>434.65</ele>
        <time>2016-09-22T07:25:53Z</time>
      </trkpt>
      <trkpt lat="45.93599" lon="4.04097">
        <ele>437.06</ele>
        <time>2016-09-22T07:26:03Z</time>
      </trkpt>
      <trkpt lat="45.93596" lon="4.04122">
        <ele>436.58</ele>
        <time>2016-09-22T07:26:18Z</time>
      </trkpt>
      <trkpt lat="45.93595" lon="4.04138">
        <ele>438.02</ele>
        <time>2016-09-22T07:26:33Z</time>
      </trkpt>
      <trkpt lat="45.93594" lon="4.04139">
        <ele>437.54</ele>
        <time>2016-09-22T07:26:49Z</time>
      </trkpt>
      <trkpt lat="45.93594" lon="4.0414">
        <ele>436.58</ele>
        <time>2016-09-22T07:27:12Z</time>
      </trkpt>
      <trkpt lat="45.93594" lon="4.0414">
        <ele>436.1</ele>
        <time>2016-09-22T07:27:33Z</time>
      </trkpt>
      <trkpt lat="45.93594" lon="4.04142">
        <ele>436.1</ele>
        <time>2016-09-22T07:28:06Z</time>
      </trkpt>
      <trkpt lat="45.93591" lon="4.04164">
        <ele>438.98</ele>
        <time>2016-09-22T07:28:21Z</time>
      </trkpt>
      <trkpt lat="45.93587" lon="4.04186">
        <ele>439.94</ele>
        <time>2016-09-22T07:28:35Z</time>
      </trkpt>
      <trkpt lat="45.93583" lon="4.0421">
        <ele>441.86</ele>
        <time>2016-09-22T07:28:50Z</time>
      </trkpt>
      <trkpt lat="45.93576" lon="4.04238">
        <ele>444.75</ele>
        <time>2016-09-22T07:29:08Z</time>
      </trkpt>
      <trkpt lat="45.93573" lon="4.04243">
        <ele>443.79</ele>
        <time>2016-09-22T07:29:23Z</time>
      </trkpt>
      <trkpt lat="45.93572" lon="4.04243">
        <ele>442.34</ele>
        <time>2016-09-22T07:29:41Z</time>
      </trkpt>
      <trkpt lat="45.9357" lon="4.04247">
        <ele>443.31</ele>
        <time>2016-09-22T07:29:58Z</time>
      </trkpt>
      <trkpt lat="45.93568" lon="4.04266">
        <ele>446.19</ele>
        <time>2016-09-22T07:30:09Z</time>
      </trkpt>
      <trkpt lat="45.93572" lon="4.043">
        <ele>451.96</ele>
        <time>2016-09-22T07:30:27Z</time>
      </trkpt>
      <trkpt lat="45.93578" lon="4.04327">
        <ele>454.84</ele>
        <time>2016-09-22T07:30:44Z</time>
      </trkpt>
      <trkpt lat="45.93586" lon="4.0435">
        <ele>457.72</ele>
        <time>2016-09-22T07:30:58Z</time>
      </trkpt>
      <trkpt lat="45.93595" lon="4.04382">
        <ele>463.49</ele>
        <time>2016-09-22T07:31:16Z</time>
      </trkpt>
      <trkpt lat="45.93596" lon="4.04389">
        <ele>462.05</ele>
        <time>2016-09-22T07:31:30Z</time>
      </trkpt>
      <trkpt lat="45.93599" lon="4.04386">
        <ele>461.09</ele>
        <time>2016-09-22T07:31:42Z</time>
      </trkpt>
      <trkpt lat="45.93607" lon="4.04374">
        <ele>458.69</ele>
        <time>2016-09-22T07:31:57Z</time>
      </trkpt>
      <trkpt lat="45.9361" lon="4.0437">
        <ele>457.24</ele>
        <time>2016-09-22T07:32:01Z</time>
      </trkpt>
      <trkpt lat="45.93614" lon="4.04367">
        <ele>457.24</ele>
        <time>2016-09-22T07:32:05Z</time>
      </trkpt>
      <trkpt lat="45.93635" lon="4.04356">
        <ele>455.32</ele>
        <time>2016-09-22T07:32:23Z</time>
      </trkpt>
      <trkpt lat="45.9365" lon="4.04346">
        <ele>453.4</ele>
        <time>2016-09-22T07:32:37Z</time>
      </trkpt>
      <trkpt lat="45.93666" lon="4.04337">
        <ele>449.55</ele>
        <time>2016-09-22T07:32:53Z</time>
      </trkpt>
      <trkpt lat="45.9367" lon="4.04337">
        <ele>449.55</ele>
        <time>2016-09-22T07:33:09Z</time>
      </trkpt>
      <trkpt lat="45.93672" lon="4.04337">
        <ele>449.07</ele>
        <time>2016-09-22T07:33:25Z</time>
      </trkpt>
      <trkpt lat="45.93673" lon="4.04331">
        <ele>448.59</ele>
        <time>2016-09-22T07:33:39Z</time>
      </trkpt>
      <trkpt lat="45.93678" lon="4.04316">
        <ele>447.15</ele>
        <time>2016-09-22T07:33:48Z</time>
      </trkpt>
      <trkpt lat="45.93686" lon="4.04281">
        <ele>445.71</ele>
        <time>2016-09-22T07:34:08Z</time>
      </trkpt>
      <trkpt lat="45.93698" lon="4.04246">
        <ele>446.67</ele>
        <time>2016-09-22T07:34:29Z</time>
      </trkpt>
      <trkpt lat="45.9371" lon="4.04211">
        <ele>446.67</ele>
        <time>2016-09-22T07:34:50Z</time>
      </trkpt>
      <trkpt lat="45.93721" lon="4.04187">
        <ele>446.19</ele>
        <time>2016-09-22T07:35:06Z</time>
      </trkpt>
      <trkpt lat="45.93733" lon="4.0416">
        <ele>443.31</ele>
        <time>2016-09-22T07:35:23Z</time>
      </trkpt>
      <trkpt lat="45.93744" lon="4.04126">
        <ele>442.82</ele>
        <time>2016-09-22T07:35:41Z</time>
      </trkpt>
      <trkpt lat="45.9375" lon="4.04093">
        <ele>442.34</ele>
        <time>2016-09-22T07:35:59Z</time>
      </trkpt>
      <trkpt lat="45.93757" lon="4.04063">
        <ele>442.34</ele>
        <time>2016-09-22T07:36:15Z</time>
      </trkpt>
      <trkpt lat="45.93766" lon="4.04029">
        <ele>441.86</ele>
        <time>2016-09-22T07:36:34Z</time>
      </trkpt>
      <trkpt lat="45.93772" lon="4.03996">
        <ele>439.94</ele>
        <time>2016-09-22T07:36:52Z</time>
      </trkpt>
      <trkpt lat="45.93778" lon="4.03967">
        <ele>440.42</ele>
        <time>2016-09-22T07:37:09Z</time>
      </trkpt>
      <trkpt lat="45.93786" lon="4.03936">
        <ele>441.86</ele>
        <time>2016-09-22T07:37:27Z</time>
      </trkpt>
      <trkpt lat="45.93792" lon="4.0391">
        <ele>442.82</ele>
        <time>2016-09-22T07:37:42Z</time>
      </trkpt>
      <trkpt lat="45.93803" lon="4.03885">
        <ele>440.9</ele>
        <time>2016-09-22T07:37:58Z</time>
      </trkpt>
      <trkpt lat="45.93814" lon="4.03864">
        <ele>440.42</ele>
        <time>2016-09-22T07:38:13Z</time>
      </trkpt>
      <trkpt lat="45.93826" lon="4.0384">
        <ele>436.58</ele>
        <time>2016-09-22T07:38:28Z</time>
      </trkpt>
      <trkpt lat="45.9383" lon="4.03813">
        <ele>435.13</ele>
        <time>2016-09-22T07:38:44Z</time>
      </trkpt>
      <trkpt lat="45.93831" lon="4.03803">
        <ele>434.65</ele>
        <time>2016-09-22T07:38:50Z</time>
      </trkpt>
      <trkpt lat="45.93831" lon="4.03789">
        <ele>433.21</ele>
        <time>2016-09-22T07:38:58Z</time>
      </trkpt>
      <trkpt lat="45.93831" lon="4.03757">
        <ele>430.81</ele>
        <time>2016-09-22T07:39:16Z</time>
      </trkpt>
      <trkpt lat="45.93831" lon="4.03734">
        <ele>432.25</ele>
        <time>2016-09-22T07:39:30Z</time>
      </trkpt>
      <trkpt lat="45.93831" lon="4.03705">
        <ele>431.29</ele>
        <time>2016-09-22T07:39:45Z</time>
      </trkpt>
      <trkpt lat="45.93828" lon="4.03675">
        <ele>430.81</ele>
        <time>2016-09-22T07:40:02Z</time>
      </trkpt>
      <trkpt lat="45.93826" lon="4.03649">
        <ele>429.85</ele>
        <time>2016-09-22T07:40:16Z</time>
      </trkpt>
      <trkpt lat="45.93822" lon="4.03616">
        <ele>427.44</ele>
        <time>2016-09-22T07:40:33Z</time>
      </trkpt>
      <trkpt lat="45.93822" lon="4.03611">
        <ele>426.48</ele>
        <time>2016-09-22T07:40:35Z</time>
      </trkpt>
      <trkpt lat="45.93822" lon="4.03601">
        <ele>425.52</ele>
        <time>2016-09-22T07:40:40Z</time>
      </trkpt>
      <trkpt lat="45.9382" lon="4.03592">
        <ele>425.52</ele>
        <time>2016-09-22T07:40:45Z</time>
      </trkpt>
      <trkpt lat="45.93821" lon="4.03588">
        <ele>425.04</ele>
        <time>2016-09-22T07:40:47Z</time>
      </trkpt>
      <trkpt lat="45.93815" lon="4.03556">
        <ele>425.52</ele>
        <time>2016-09-22T07:41:05Z</time>
      </trkpt>
      <trkpt lat="45.93808" lon="4.03532">
        <ele>425.04</ele>
        <time>2016-09-22T07:41:20Z</time>
      </trkpt>
      <trkpt lat="45.93806" lon="4.03525">
        <ele>424.56</ele>
        <time>2016-09-22T07:41:24Z</time>
      </trkpt>
      <trkpt lat="45.93799" lon="4.03505">
        <ele>423.6</ele>
        <time>2016-09-22T07:41:38Z</time>
      </trkpt>
      <trkpt lat="45.93799" lon="4.03503">
        <ele>423.6</ele>
        <time>2016-09-22T07:41:39Z</time>
      </trkpt>
      <trkpt lat="45.93798" lon="4.03484">
        <ele>425.52</ele>
        <time>2016-09-22T07:41:53Z</time>
      </trkpt>
      <trkpt lat="45.93798" lon="4.0346">
        <ele>427.44</ele>
        <time>2016-09-22T07:42:07Z</time>
      </trkpt>
      <trkpt lat="45.93797" lon="4.03428">
        <ele>426.96</ele>
        <time>2016-09-22T07:42:24Z</time>
      </trkpt>
      <trkpt lat="45.93801" lon="4.03399">
        <ele>424.08</ele>
        <time>2016-09-22T07:42:38Z</time>
      </trkpt>
      <trkpt lat="45.93811" lon="4.03376">
        <ele>422.16</ele>
        <time>2016-09-22T07:42:53Z</time>
      </trkpt>
      <trkpt lat="45.93815" lon="4.03364">
        <ele>420.71</ele>
        <time>2016-09-22T07:43:08Z</time>
      </trkpt>
      <trkpt lat="45.93814" lon="4.03363">
        <ele>420.71</ele>
        <time>2016-09-22T07:43:26Z</time>
      </trkpt>
      <trkpt lat="45.93816" lon="4.03364">
        <ele>417.83</ele>
        <time>2016-09-22T07:43:41Z</time>
      </trkpt>
      <trkpt lat="45.93814" lon="4.03369">
        <ele>417.35</ele>
        <time>2016-09-22T07:43:52Z</time>
      </trkpt>
      <trkpt lat="45.93805" lon="4.03387">
        <ele>417.83</ele>
        <time>2016-09-22T07:44:07Z</time>
      </trkpt>
      <trkpt lat="45.93802" lon="4.03393">
        <ele>417.35</ele>
        <time>2016-09-22T07:44:22Z</time>
      </trkpt>
      <trkpt lat="45.93803" lon="4.034">
        <ele>417.35</ele>
        <time>2016-09-22T07:44:35Z</time>
      </trkpt>
      <trkpt lat="45.93807" lon="4.03418">
        <ele>418.79</ele>
        <time>2016-09-22T07:44:51Z</time>
      </trkpt>
      <trkpt lat="45.93814" lon="4.03439">
        <ele>421.68</ele>
        <time>2016-09-22T07:45:07Z</time>
      </trkpt>
      <trkpt lat="45.93819" lon="4.03449">
        <ele>423.12</ele>
        <time>2016-09-22T07:45:19Z</time>
      </trkpt>
      <trkpt lat="45.93831" lon="4.03474">
        <ele>423.6</ele>
        <time>2016-09-22T07:45:34Z</time>
      </trkpt>
      <trkpt lat="45.9384" lon="4.03494">
        <ele>425.52</ele>
        <time>2016-09-22T07:45:46Z</time>
      </trkpt>
      <trkpt lat="45.93857" lon="4.03506">
        <ele>432.73</ele>
        <time>2016-09-22T07:46:01Z</time>
      </trkpt>
      <trkpt lat="45.93874" lon="4.03515">
        <ele>435.13</ele>
        <time>2016-09-22T07:46:14Z</time>
      </trkpt>
      <trkpt lat="45.93886" lon="4.03525">
        <ele>433.21</ele>
        <time>2016-09-22T07:46:30Z</time>
      </trkpt>
      <trkpt lat="45.93895" lon="4.03539">
        <ele>435.61</ele>
        <time>2016-09-22T07:46:42Z</time>
      </trkpt>
      <trkpt lat="45.939" lon="4.03545">
        <ele>435.13</ele>
        <time>2016-09-22T07:46:54Z</time>
      </trkpt>
      <trkpt lat="45.93901" lon="4.03555">
        <ele>434.65</ele>
        <time>2016-09-22T07:47:00Z</time>
      </trkpt>
      <trkpt lat="45.9391" lon="4.03589">
        <ele>431.77</ele>
        <time>2016-09-22T07:47:14Z</time>
      </trkpt>
      <trkpt lat="45.93915" lon="4.0362">
        <ele>428.89</ele>
        <time>2016-09-22T07:47:28Z</time>
      </trkpt>
      <trkpt lat="45.9392" lon="4.03646">
        <ele>427.92</ele>
        <time>2016-09-22T07:47:43Z</time>
      </trkpt>
      <trkpt lat="45.93925" lon="4.03667">
        <ele>428.89</ele>
        <time>2016-09-22T07:47:57Z</time>
      </trkpt>
      <trkpt lat="45.93932" lon="4.03694">
        <ele>427.44</ele>
        <time>2016-09-22T07:48:11Z</time>
      </trkpt>
      <trkpt lat="45.93934" lon="4.03699">
        <ele>427.44</ele>
        <time>2016-09-22T07:48:18Z</time>
      </trkpt>
      <trkpt lat="45.93948" lon="4.03722">
        <ele>431.29</ele>
        <time>2016-09-22T07:48:31Z</time>
      </trkpt>
      <trkpt lat="45.93961" lon="4.03751">
        <ele>427.44</ele>
        <time>2016-09-22T07:48:46Z</time>
      </trkpt>
      <trkpt lat="45.93973" lon="4.03782">
        <ele>416.87</ele>
        <time>2016-09-22T07:49:01Z</time>
      </trkpt>
      <trkpt lat="45.93984" lon="4.03806">
        <ele>413.5</ele>
        <time>2016-09-22T07:49:19Z</time>
      </trkpt>
      <trkpt lat="45.93994" lon="4.03834">
        <ele>414.47</ele>
        <time>2016-09-22T07:49:35Z</time>
      </trkpt>
      <trkpt lat="45.94002" lon="4.03862">
        <ele>413.5</ele>
        <time>2016-09-22T07:49:51Z</time>
      </trkpt>
      <trkpt lat="45.94009" lon="4.03889">
        <ele>413.98</ele>
        <time>2016-09-22T07:50:07Z</time>
      </trkpt>
      <trkpt lat="45.94015" lon="4.0392">
        <ele>413.98</ele>
        <time>2016-09-22T07:50:24Z</time>
      </trkpt>
      <trkpt lat="45.94017" lon="4.03954">
        <ele>415.43</ele>
        <time>2016-09-22T07:50:42Z</time>
      </trkpt>
      <trkpt lat="45.94021" lon="4.03986">
        <ele>414.95</ele>
        <time>2016-09-22T07:51:01Z</time>
      </trkpt>
      <trkpt lat="45.94027" lon="4.04015">
        <ele>412.06</ele>
        <time>2016-09-22T07:51:17Z</time>
      </trkpt>
      <trkpt lat="45.94036" lon="4.04043">
        <ele>408.7</ele>
        <time>2016-09-22T07:51:33Z</time>
      </trkpt>
      <trkpt lat="45.9405" lon="4.04064">
        <ele>407.26</ele>
        <time>2016-09-22T07:51:49Z</time>
      </trkpt>
      <trkpt lat="45.94065" lon="4.04087">
        <ele>406.29</ele>
        <time>2016-09-22T07:52:04Z</time>
      </trkpt>
      <trkpt lat="45.9408" lon="4.04112">
        <ele>405.81</ele>
        <time>2016-09-22T07:52:22Z</time>
      </trkpt>
      <trkpt lat="45.94081" lon="4.04114">
        <ele>405.81</ele>
        <time>2016-09-22T07:52:24Z</time>
      </trkpt>
      <trkpt lat="45.94087" lon="4.04125">
        <ele>405.33</ele>
        <time>2016-09-22T07:52:33Z</time>
      </trkpt>
      <trkpt lat="45.94103" lon="4.04142">
        <ele>403.41</ele>
        <time>2016-09-22T07:52:48Z</time>
      </trkpt>
      <trkpt lat="45.94118" lon="4.04158">
        <ele>401.01</ele>
        <time>2016-09-22T07:53:04Z</time>
      </trkpt>
      <trkpt lat="45.94132" lon="4.04178">
        <ele>399.08</ele>
        <time>2016-09-22T07:53:19Z</time>
      </trkpt>
      <trkpt lat="45.94137" lon="4.04184">
        <ele>398.6</ele>
        <time>2016-09-22T07:53:24Z</time>
      </trkpt>
      <trkpt lat="45.94147" lon="4.04215">
        <ele>393.32</ele>
        <time>2016-09-22T07:53:44Z</time>
      </trkpt>
      <trkpt lat="45.94149" lon="4.04234">
        <ele>389.95</ele>
        <time>2016-09-22T07:53:57Z</time>
      </trkpt>
      <trkpt lat="45.94151" lon="4.04258">
        <ele>387.55</ele>
        <time>2016-09-22T07:54:12Z</time>
      </trkpt>
      <trkpt lat="45.94153" lon="4.04278">
        <ele>384.66</ele>
        <time>2016-09-22T07:54:24Z</time>
      </trkpt>
      <trkpt lat="45.94153" lon="4.0428">
        <ele>384.18</ele>
        <time>2016-09-22T07:54:25Z</time>
      </trkpt>
      <trkpt lat="45.94159" lon="4.04309">
        <ele>388.51</ele>
        <time>2016-09-22T07:54:43Z</time>
      </trkpt>
      <trkpt lat="45.94163" lon="4.04314">
        <ele>389.95</ele>
        <time>2016-09-22T07:54:49Z</time>
      </trkpt>
      <trkpt lat="45.94181" lon="4.04309">
        <ele>395.72</ele>
        <time>2016-09-22T07:55:05Z</time>
      </trkpt>
      <trkpt lat="45.94198" lon="4.04304">
        <ele>402.45</ele>
        <time>2016-09-22T07:55:22Z</time>
      </trkpt>
      <trkpt lat="45.94215" lon="4.04293">
        <ele>403.89</ele>
        <time>2016-09-22T07:55:39Z</time>
      </trkpt>
      <trkpt lat="45.94235" lon="4.0429">
        <ele>402.45</ele>
        <time>2016-09-22T07:55:55Z</time>
      </trkpt>
      <trkpt lat="45.94257" lon="4.04295">
        <ele>401.49</ele>
        <time>2016-09-22T07:56:13Z</time>
      </trkpt>
      <trkpt lat="45.94274" lon="4.04301">
        <ele>401.97</ele>
        <time>2016-09-22T07:56:28Z</time>
      </trkpt>
      <trkpt lat="45.94281" lon="4.04305">
        <ele>402.93</ele>
        <time>2016-09-22T07:56:36Z</time>
      </trkpt>
      <trkpt lat="45.94293" lon="4.04319">
        <ele>404.37</ele>
        <time>2016-09-22T07:56:51Z</time>
      </trkpt>
      <trkpt lat="45.94305" lon="4.04331">
        <ele>406.77</ele>
        <time>2016-09-22T07:57:04Z</time>
      </trkpt>
      <trkpt lat="45.94317" lon="4.04345">
        <ele>409.18</ele>
        <time>2016-09-22T07:57:18Z</time>
      </trkpt>
      <trkpt lat="45.94329" lon="4.04354">
        <ele>411.1</ele>
        <time>2016-09-22T07:57:31Z</time>
      </trkpt>
      <trkpt lat="45.94349" lon="4.04359">
        <ele>414.95</ele>
        <time>2016-09-22T07:57:47Z</time>
      </trkpt>
      <trkpt lat="45.94353" lon="4.0436">
        <ele>415.91</ele>
        <time>2016-09-22T07:57:51Z</time>
      </trkpt>
      <trkpt lat="45.94357" lon="4.04361">
        <ele>415.91</ele>
        <time>2016-09-22T07:57:54Z</time>
      </trkpt>
      <trkpt lat="45.94377" lon="4.04361">
        <ele>418.31</ele>
        <time>2016-09-22T07:58:11Z</time>
      </trkpt>
      <trkpt lat="45.94393" lon="4.04353">
        <ele>419.75</ele>
        <time>2016-09-22T07:58:25Z</time>
      </trkpt>
      <trkpt lat="45.94417" lon="4.04352">
        <ele>422.16</ele>
        <time>2016-09-22T07:58:43Z</time>
      </trkpt>
      <trkpt lat="45.94433" lon="4.04355">
        <ele>426</ele>
        <time>2016-09-22T07:58:57Z</time>
      </trkpt>
      <trkpt lat="45.94454" lon="4.0436">
        <ele>429.37</ele>
        <time>2016-09-22T07:59:13Z</time>
      </trkpt>
      <trkpt lat="45.94465" lon="4.04359">
        <ele>429.85</ele>
        <time>2016-09-22T07:59:21Z</time>
      </trkpt>
      <trkpt lat="45.9447" lon="4.04357">
        <ele>429.85</ele>
        <time>2016-09-22T07:59:25Z</time>
      </trkpt>
      <trkpt lat="45.94485" lon="4.04352">
        <ele>432.25</ele>
        <time>2016-09-22T07:59:42Z</time>
      </trkpt>
      <trkpt lat="45.94484" lon="4.04352">
        <ele>432.73</ele>
        <time>2016-09-22T08:00:02Z</time>
      </trkpt>
      <trkpt lat="45.94484" lon="4.04352">
        <ele>432.73</ele>
        <time>2016-09-22T08:00:06Z</time>
      </trkpt>
      <trkpt lat="45.94485" lon="4.04352">
        <ele>432.73</ele>
        <time>2016-09-22T08:00:07Z</time>
      </trkpt>
      <trkpt lat="45.94487" lon="4.0435">
        <ele>433.21</ele>
        <time>2016-09-22T08:00:12Z</time>
      </trkpt>
      <trkpt lat="45.94489" lon="4.04351">
        <ele>433.69</ele>
        <time>2016-09-22T08:00:14Z</time>
      </trkpt>
      <trkpt lat="45.94494" lon="4.04347">
        <ele>434.17</ele>
        <time>2016-09-22T08:00:19Z</time>
      </trkpt>
      <trkpt lat="45.94499" lon="4.04346">
        <ele>434.65</ele>
        <time>2016-09-22T08:00:23Z</time>
      </trkpt>
      <trkpt lat="45.9452" lon="4.04337">
        <ele>434.65</ele>
        <time>2016-09-22T08:00:40Z</time>
      </trkpt>
      <trkpt lat="45.94539" lon="4.04331">
        <ele>436.58</ele>
        <time>2016-09-22T08:00:54Z</time>
      </trkpt>
      <trkpt lat="45.94563" lon="4.04329">
        <ele>438.5</ele>
        <time>2016-09-22T08:01:12Z</time>
      </trkpt>
      <trkpt lat="45.94583" lon="4.0433">
        <ele>439.46</ele>
        <time>2016-09-22T08:01:26Z</time>
      </trkpt>
      <trkpt lat="45.94602" lon="4.04336">
        <ele>440.42</ele>
        <time>2016-09-22T08:01:41Z</time>
      </trkpt>
      <trkpt lat="45.94613" lon="4.0434">
        <ele>441.86</ele>
        <time>2016-09-22T08:01:52Z</time>
      </trkpt>
      <trkpt lat="45.94617" lon="4.04342">
        <ele>442.34</ele>
        <time>2016-09-22T08:01:56Z</time>
      </trkpt>
      <trkpt lat="45.94622" lon="4.04343">
        <ele>442.82</ele>
        <time>2016-09-22T08:02:00Z</time>
      </trkpt>
      <trkpt lat="45.94643" lon="4.04356">
        <ele>444.75</ele>
        <time>2016-09-22T08:02:18Z</time>
      </trkpt>
      <trkpt lat="45.94649" lon="4.0436">
        <ele>445.71</ele>
        <time>2016-09-22T08:02:23Z</time>
      </trkpt>
      <trkpt lat="45.94659" lon="4.04361">
        <ele>446.19</ele>
        <time>2016-09-22T08:02:38Z</time>
      </trkpt>
      <trkpt lat="45.94666" lon="4.0436">
        <ele>447.15</ele>
        <time>2016-09-22T08:02:48Z</time>
      </trkpt>
      <trkpt lat="45.94682" lon="4.04359">
        <ele>449.55</ele>
        <time>2016-09-22T08:03:02Z</time>
      </trkpt>
      <trkpt lat="45.94691" lon="4.04358">
        <ele>450.52</ele>
        <time>2016-09-22T08:03:14Z</time>
      </trkpt>
      <trkpt lat="45.94706" lon="4.04353">
        <ele>451</ele>
        <time>2016-09-22T08:03:26Z</time>
      </trkpt>
      <trkpt lat="45.94734" lon="4.04342">
        <ele>452.92</ele>
        <time>2016-09-22T08:03:45Z</time>
      </trkpt>
      <trkpt lat="45.94756" lon="4.04334">
        <ele>453.4</ele>
        <time>2016-09-22T08:03:59Z</time>
      </trkpt>
      <trkpt lat="45.94777" lon="4.04329">
        <ele>454.36</ele>
        <time>2016-09-22T08:04:15Z</time>
      </trkpt>
      <trkpt lat="45.94798" lon="4.04316">
        <ele>456.76</ele>
        <time>2016-09-22T08:04:31Z</time>
      </trkpt>
      <trkpt lat="45.94814" lon="4.04304">
        <ele>458.69</ele>
        <time>2016-09-22T08:04:44Z</time>
      </trkpt>
      <trkpt lat="45.94835" lon="4.04289">
        <ele>457.72</ele>
        <time>2016-09-22T08:04:59Z</time>
      </trkpt>
      <trkpt lat="45.9485" lon="4.04276">
        <ele>456.28</ele>
        <time>2016-09-22T08:05:13Z</time>
      </trkpt>
      <trkpt lat="45.94865" lon="4.04256">
        <ele>452.92</ele>
        <time>2016-09-22T08:05:28Z</time>
      </trkpt>
      <trkpt lat="45.94868" lon="4.04251">
        <ele>453.88</ele>
        <time>2016-09-22T08:05:35Z</time>
      </trkpt>
      <trkpt lat="45.94883" lon="4.04232">
        <ele>454.84</ele>
        <time>2016-09-22T08:05:51Z</time>
      </trkpt>
      <trkpt lat="45.94885" lon="4.04227">
        <ele>454.84</ele>
        <time>2016-09-22T08:05:54Z</time>
      </trkpt>
      <trkpt lat="45.9489" lon="4.04221">
        <ele>455.32</ele>
        <time>2016-09-22T08:05:59Z</time>
      </trkpt>
      <trkpt lat="45.94903" lon="4.04201">
        <ele>456.76</ele>
        <time>2016-09-22T08:06:15Z</time>
      </trkpt>
      <trkpt lat="45.94909" lon="4.0419">
        <ele>456.76</ele>
        <time>2016-09-22T08:06:22Z</time>
      </trkpt>
      <trkpt lat="45.94913" lon="4.04183">
        <ele>456.76</ele>
        <time>2016-09-22T08:06:27Z</time>
      </trkpt>
      <trkpt lat="45.94933" lon="4.04162">
        <ele>457.24</ele>
        <time>2016-09-22T08:06:46Z</time>
      </trkpt>
      <trkpt lat="45.94951" lon="4.04143">
        <ele>457.72</ele>
        <time>2016-09-22T08:07:04Z</time>
      </trkpt>
      <trkpt lat="45.94962" lon="4.04129">
        <ele>455.32</ele>
        <time>2016-09-22T08:07:15Z</time>
      </trkpt>
      <trkpt lat="45.94986" lon="4.04122">
        <ele>459.65</ele>
        <time>2016-09-22T08:07:35Z</time>
      </trkpt>
      <trkpt lat="45.95012" lon="4.04121">
        <ele>463.49</ele>
        <time>2016-09-22T08:07:54Z</time>
      </trkpt>
      <trkpt lat="45.95026" lon="4.0412">
        <ele>466.38</ele>
        <time>2016-09-22T08:08:05Z</time>
      </trkpt>
      <trkpt lat="45.95046" lon="4.04117">
        <ele>465.9</ele>
        <time>2016-09-22T08:08:22Z</time>
      </trkpt>
      <trkpt lat="45.95067" lon="4.04115">
        <ele>463.01</ele>
        <time>2016-09-22T08:08:38Z</time>
      </trkpt>
      <trkpt lat="45.9509" lon="4.04106">
        <ele>458.21</ele>
        <time>2016-09-22T08:08:56Z</time>
      </trkpt>
      <trkpt lat="45.95114" lon="4.04098">
        <ele>455.8</ele>
        <time>2016-09-22T08:09:14Z</time>
      </trkpt>
      <trkpt lat="45.95139" lon="4.04092">
        <ele>454.36</ele>
        <time>2016-09-22T08:09:32Z</time>
      </trkpt>
      <trkpt lat="45.95161" lon="4.04086">
        <ele>452.44</ele>
        <time>2016-09-22T08:09:48Z</time>
      </trkpt>
      <trkpt lat="45.95187" lon="4.04072">
        <ele>448.11</ele>
        <time>2016-09-22T08:10:08Z</time>
      </trkpt>
      <trkpt lat="45.95209" lon="4.04058">
        <ele>444.75</ele>
        <time>2016-09-22T08:10:26Z</time>
      </trkpt>
      <trkpt lat="45.95233" lon="4.04037">
        <ele>440.42</ele>
        <time>2016-09-22T08:10:46Z</time>
      </trkpt>
      <trkpt lat="45.95253" lon="4.04012">
        <ele>436.58</ele>
        <time>2016-09-22T08:11:05Z</time>
      </trkpt>
      <trkpt lat="45.95274" lon="4.03994">
        <ele>434.17</ele>
        <time>2016-09-22T08:11:24Z</time>
      </trkpt>
      <trkpt lat="45.95275" lon="4.03992">
        <ele>433.69</ele>
        <time>2016-09-22T08:11:42Z</time>
      </trkpt>
      <trkpt lat="45.95275" lon="4.03992">
        <ele>433.69</ele>
        <time>2016-09-22T08:12:04Z</time>
      </trkpt>
      <trkpt lat="45.95275" lon="4.03992">
        <ele>433.69</ele>
        <time>2016-09-22T08:12:17Z</time>
      </trkpt>
      <trkpt lat="45.95269" lon="4.03995">
        <ele>435.61</ele>
        <time>2016-09-22T08:12:31Z</time>
      </trkpt>
      <trkpt lat="45.95274" lon="4.03992">
        <ele>434.65</ele>
        <time>2016-09-22T08:12:43Z</time>
      </trkpt>
      <trkpt lat="45.95282" lon="4.03988">
        <ele>433.69</ele>
        <time>2016-09-22T08:12:55Z</time>
      </trkpt>
      <trkpt lat="45.95295" lon="4.03981">
        <ele>432.25</ele>
        <time>2016-09-22T08:13:08Z</time>
      </trkpt>
      <trkpt lat="45.95311" lon="4.03964">
        <ele>430.81</ele>
        <time>2016-09-22T08:13:26Z</time>
      </trkpt>
      <trkpt lat="45.95321" lon="4.03956">
        <ele>430.81</ele>
        <time>2016-09-22T08:13:40Z</time>
      </trkpt>
      <trkpt lat="45.95324" lon="4.03952">
        <ele>431.29</ele>
        <time>2016-09-22T08:13:46Z</time>
      </trkpt>
      <trkpt lat="45.95336" lon="4.03932">
        <ele>434.65</ele>
        <time>2016-09-22T08:14:04Z</time>
      </trkpt>
      <trkpt lat="45.9534" lon="4.03925">
        <ele>435.61</ele>
        <time>2016-09-22T08:14:19Z</time>
      </trkpt>
      <trkpt lat="45.95357" lon="4.03904">
        <ele>431.77</ele>
        <time>2016-09-22T08:14:36Z</time>
      </trkpt>
      <trkpt lat="45.95374" lon="4.03885">
        <ele>431.29</ele>
        <time>2016-09-22T08:14:53Z</time>
      </trkpt>
      <trkpt lat="45.95392" lon="4.03868">
        <ele>430.33</ele>
        <time>2016-09-22T08:15:09Z</time>
      </trkpt>
      <trkpt lat="45.9541" lon="4.03854">
        <ele>427.92</ele>
        <time>2016-09-22T08:15:26Z</time>
      </trkpt>
      <trkpt lat="45.95428" lon="4.03839">
        <ele>427.92</ele>
        <time>2016-09-22T08:15:42Z</time>
      </trkpt>
      <trkpt lat="45.95447" lon="4.03819">
        <ele>428.4</ele>
        <time>2016-09-22T08:15:59Z</time>
      </trkpt>
      <trkpt lat="45.95461" lon="4.03801">
        <ele>428.4</ele>
        <time>2016-09-22T08:16:14Z</time>
      </trkpt>
      <trkpt lat="45.95475" lon="4.03782">
        <ele>429.37</ele>
        <time>2016-09-22T08:16:29Z</time>
      </trkpt>
      <trkpt lat="45.9549" lon="4.0376">
        <ele>430.81</ele>
        <time>2016-09-22T08:16:45Z</time>
      </trkpt>
      <trkpt lat="45.95509" lon="4.03734">
        <ele>430.33</ele>
        <time>2016-09-22T08:17:04Z</time>
      </trkpt>
      <trkpt lat="45.95523" lon="4.03713">
        <ele>428.4</ele>
        <time>2016-09-22T08:17:19Z</time>
      </trkpt>
      <trkpt lat="45.95538" lon="4.03679">
        <ele>431.29</ele>
        <time>2016-09-22T08:17:39Z</time>
      </trkpt>
      <trkpt lat="45.95553" lon="4.03647">
        <ele>434.65</ele>
        <time>2016-09-22T08:17:59Z</time>
      </trkpt>
      <trkpt lat="45.9557" lon="4.03628">
        <ele>436.1</ele>
        <time>2016-09-22T08:18:15Z</time>
      </trkpt>
      <trkpt lat="45.95593" lon="4.03611">
        <ele>434.65</ele>
        <time>2016-09-22T08:18:34Z</time>
      </trkpt>
      <trkpt lat="45.95616" lon="4.03602">
        <ele>436.58</ele>
        <time>2016-09-22T08:18:53Z</time>
      </trkpt>
      <trkpt lat="45.95641" lon="4.03595">
        <ele>435.61</ele>
        <time>2016-09-22T08:19:11Z</time>
      </trkpt>
      <trkpt lat="45.95659" lon="4.03585">
        <ele>435.61</ele>
        <time>2016-09-22T08:19:25Z</time>
      </trkpt>
      <trkpt lat="45.95664" lon="4.0358">
        <ele>434.65</ele>
        <time>2016-09-22T08:19:29Z</time>
      </trkpt>
      <trkpt lat="45.95681" lon="4.03549">
        <ele>428.89</ele>
        <time>2016-09-22T08:19:48Z</time>
      </trkpt>
      <trkpt lat="45.95698" lon="4.03523">
        <ele>428.4</ele>
        <time>2016-09-22T08:20:05Z</time>
      </trkpt>
      <trkpt lat="45.95718" lon="4.03496">
        <ele>427.92</ele>
        <time>2016-09-22T08:20:25Z</time>
      </trkpt>
      <trkpt lat="45.95735" lon="4.03478">
        <ele>429.37</ele>
        <time>2016-09-22T08:20:41Z</time>
      </trkpt>
      <trkpt lat="45.95755" lon="4.03463">
        <ele>429.37</ele>
        <time>2016-09-22T08:20:57Z</time>
      </trkpt>
      <trkpt lat="45.95781" lon="4.03456">
        <ele>430.81</ele>
        <time>2016-09-22T08:21:16Z</time>
      </trkpt>
      <trkpt lat="45.9581" lon="4.03455">
        <ele>433.69</ele>
        <time>2016-09-22T08:21:37Z</time>
      </trkpt>
      <trkpt lat="45.9584" lon="4.03448">
        <ele>434.17</ele>
        <time>2016-09-22T08:21:58Z</time>
      </trkpt>
      <trkpt lat="45.95868" lon="4.03437">
        <ele>436.1</ele>
        <time>2016-09-22T08:22:19Z</time>
      </trkpt>
      <trkpt lat="45.95878" lon="4.03434">
        <ele>436.58</ele>
        <time>2016-09-22T08:22:26Z</time>
      </trkpt>
      <trkpt lat="45.95889" lon="4.03432">
        <ele>436.58</ele>
        <time>2016-09-22T08:22:34Z</time>
      </trkpt>
      <trkpt lat="45.95908" lon="4.03429">
        <ele>439.94</ele>
        <time>2016-09-22T08:22:51Z</time>
      </trkpt>
      <trkpt lat="45.95925" lon="4.03422">
        <ele>444.27</ele>
        <time>2016-09-22T08:23:08Z</time>
      </trkpt>
      <trkpt lat="45.95947" lon="4.03417">
        <ele>446.67</ele>
        <time>2016-09-22T08:23:27Z</time>
      </trkpt>
      <trkpt lat="45.95948" lon="4.03417">
        <ele>446.67</ele>
        <time>2016-09-22T08:23:28Z</time>
      </trkpt>
      <trkpt lat="45.95957" lon="4.03427">
        <ele>449.07</ele>
        <time>2016-09-22T08:23:44Z</time>
      </trkpt>
      <trkpt lat="45.95962" lon="4.03431">
        <ele>449.55</ele>
        <time>2016-09-22T08:23:50Z</time>
      </trkpt>
      <trkpt lat="45.95974" lon="4.03447">
        <ele>450.52</ele>
        <time>2016-09-22T08:24:04Z</time>
      </trkpt>
      <trkpt lat="45.95987" lon="4.03464">
        <ele>449.07</ele>
        <time>2016-09-22T08:24:19Z</time>
      </trkpt>
      <trkpt lat="45.95995" lon="4.0347">
        <ele>450.03</ele>
        <time>2016-09-22T08:24:32Z</time>
      </trkpt>
      <trkpt lat="45.95996" lon="4.03474">
        <ele>451</ele>
        <time>2016-09-22T08:24:45Z</time>
      </trkpt>
      <trkpt lat="45.95996" lon="4.03474">
        <ele>451</ele>
        <time>2016-09-22T08:24:48Z</time>
      </trkpt>
      <trkpt lat="45.95999" lon="4.03506">
        <ele>452.44</ele>
        <time>2016-09-22T08:25:05Z</time>
      </trkpt>
      <trkpt lat="45.96003" lon="4.03526">
        <ele>451.48</ele>
        <time>2016-09-22T08:25:15Z</time>
      </trkpt>
      <trkpt lat="45.96004" lon="4.03533">
        <ele>450.52</ele>
        <time>2016-09-22T08:25:19Z</time>
      </trkpt>
      <trkpt lat="45.96008" lon="4.03564">
        <ele>449.07</ele>
        <time>2016-09-22T08:25:35Z</time>
      </trkpt>
      <trkpt lat="45.96014" lon="4.03595">
        <ele>447.63</ele>
        <time>2016-09-22T08:25:52Z</time>
      </trkpt>
      <trkpt lat="45.96021" lon="4.03627">
        <ele>447.15</ele>
        <time>2016-09-22T08:26:09Z</time>
      </trkpt>
      <trkpt lat="45.96022" lon="4.03634">
        <ele>447.15</ele>
        <time>2016-09-22T08:26:13Z</time>
      </trkpt>
      <trkpt lat="45.96024" lon="4.03643">
        <ele>446.67</ele>
        <time>2016-09-22T08:26:18Z</time>
      </trkpt>
      <trkpt lat="45.96025" lon="4.03648">
        <ele>446.19</ele>
        <time>2016-09-22T08:26:21Z</time>
      </trkpt>
      <trkpt lat="45.9603" lon="4.03667">
        <ele>446.67</ele>
        <time>2016-09-22T08:26:38Z</time>
      </trkpt>
      <trkpt lat="45.9604" lon="4.03702">
        <ele>448.59</ele>
        <time>2016-09-22T08:26:55Z</time>
      </trkpt>
      <trkpt lat="45.9605" lon="4.03738">
        <ele>448.11</ele>
        <time>2016-09-22T08:27:14Z</time>
      </trkpt>
      <trkpt lat="45.96055" lon="4.03767">
        <ele>447.63</ele>
        <time>2016-09-22T08:27:30Z</time>
      </trkpt>
      <trkpt lat="45.96072" lon="4.03785">
        <ele>446.67</ele>
        <time>2016-09-22T08:27:46Z</time>
      </trkpt>
      <trkpt lat="45.96086" lon="4.03811">
        <ele>447.63</ele>
        <time>2016-09-22T08:28:03Z</time>
      </trkpt>
      <trkpt lat="45.96099" lon="4.03838">
        <ele>447.63</ele>
        <time>2016-09-22T08:28:21Z</time>
      </trkpt>
      <trkpt lat="45.96118" lon="4.03863">
        <ele>446.67</ele>
        <time>2016-09-22T08:28:39Z</time>
      </trkpt>
      <trkpt lat="45.96134" lon="4.03884">
        <ele>446.67</ele>
        <time>2016-09-22T08:28:56Z</time>
      </trkpt>
      <trkpt lat="45.9615" lon="4.03908">
        <ele>446.19</ele>
        <time>2016-09-22T08:29:13Z</time>
      </trkpt>
      <trkpt lat="45.96164" lon="4.03932">
        <ele>444.27</ele>
        <time>2016-09-22T08:29:29Z</time>
      </trkpt>
      <trkpt lat="45.96168" lon="4.03936">
        <ele>443.79</ele>
        <time>2016-09-22T08:29:33Z</time>
      </trkpt>
      <trkpt lat="45.96174" lon="4.03944">
        <ele>443.79</ele>
        <time>2016-09-22T08:29:39Z</time>
      </trkpt>
      <trkpt lat="45.96188" lon="4.03965">
        <ele>443.31</ele>
        <time>2016-09-22T08:29:55Z</time>
      </trkpt>
      <trkpt lat="45.962" lon="4.03988">
        <ele>443.79</ele>
        <time>2016-09-22T08:30:10Z</time>
      </trkpt>
      <trkpt lat="45.96203" lon="4.04019">
        <ele>443.79</ele>
        <time>2016-09-22T08:30:27Z</time>
      </trkpt>
      <trkpt lat="45.962" lon="4.04029">
        <ele>444.27</ele>
        <time>2016-09-22T08:30:33Z</time>
      </trkpt>
      <trkpt lat="45.96198" lon="4.04034">
        <ele>443.31</ele>
        <time>2016-09-22T08:30:37Z</time>
      </trkpt>
      <trkpt lat="45.96193" lon="4.04051">
        <ele>440.9</ele>
        <time>2016-09-22T08:30:49Z</time>
      </trkpt>
      <trkpt lat="45.96203" lon="4.04073">
        <ele>440.42</ele>
        <time>2016-09-22T08:31:05Z</time>
      </trkpt>
      <trkpt lat="45.96211" lon="4.04097">
        <ele>437.54</ele>
        <time>2016-09-22T08:31:20Z</time>
      </trkpt>
      <trkpt lat="45.96214" lon="4.04108">
        <ele>436.58</ele>
        <time>2016-09-22T08:31:27Z</time>
      </trkpt>
      <trkpt lat="45.9622" lon="4.04129">
        <ele>437.06</ele>
        <time>2016-09-22T08:31:42Z</time>
      </trkpt>
      <trkpt lat="45.96227" lon="4.04148">
        <ele>436.1</ele>
        <time>2016-09-22T08:31:55Z</time>
      </trkpt>
      <trkpt lat="45.96236" lon="4.04172">
        <ele>431.29</ele>
        <time>2016-09-22T08:32:09Z</time>
      </trkpt>
      <trkpt lat="45.96249" lon="4.04198">
        <ele>428.4</ele>
        <time>2016-09-22T08:32:27Z</time>
      </trkpt>
      <trkpt lat="45.96261" lon="4.04217">
        <ele>425.04</ele>
        <time>2016-09-22T08:32:41Z</time>
      </trkpt>
      <trkpt lat="45.96264" lon="4.04223">
        <ele>423.6</ele>
        <time>2016-09-22T08:32:57Z</time>
      </trkpt>
      <trkpt lat="45.96264" lon="4.04224">
        <ele>423.6</ele>
        <time>2016-09-22T08:32:58Z</time>
      </trkpt>
      <trkpt lat="45.96266" lon="4.04237">
        <ele>419.75</ele>
        <time>2016-09-22T08:33:05Z</time>
      </trkpt>
      <trkpt lat="45.9626" lon="4.04255">
        <ele>418.31</ele>
        <time>2016-09-22T08:33:18Z</time>
      </trkpt>
      <trkpt lat="45.96255" lon="4.04279">
        <ele>418.31</ele>
        <time>2016-09-22T08:33:32Z</time>
      </trkpt>
      <trkpt lat="45.96253" lon="4.04303">
        <ele>414.95</ele>
        <time>2016-09-22T08:33:46Z</time>
      </trkpt>
      <trkpt lat="45.96256" lon="4.04323">
        <ele>415.43</ele>
        <time>2016-09-22T08:33:59Z</time>
      </trkpt>
      <trkpt lat="45.96258" lon="4.04329">
        <ele>414.95</ele>
        <time>2016-09-22T08:34:03Z</time>
      </trkpt>
      <trkpt lat="45.96261" lon="4.04338">
        <ele>414.47</ele>
        <time>2016-09-22T08:34:10Z</time>
      </trkpt>
      <trkpt lat="45.96269" lon="4.04365">
        <ele>414.47</ele>
        <time>2016-09-22T08:34:26Z</time>
      </trkpt>
      <trkpt lat="45.96277" lon="4.04386">
        <ele>412.06</ele>
        <time>2016-09-22T08:34:39Z</time>
      </trkpt>
      <trkpt lat="45.96287" lon="4.0441">
        <ele>409.66</ele>
        <time>2016-09-22T08:34:53Z</time>
      </trkpt>
      <trkpt lat="45.96303" lon="4.04436">
        <ele>407.74</ele>
        <time>2016-09-22T08:35:11Z</time>
      </trkpt>
      <trkpt lat="45.96308" lon="4.04445">
        <ele>407.74</ele>
        <time>2016-09-22T08:35:26Z</time>
      </trkpt>
      <trkpt lat="45.9632" lon="4.04468">
        <ele>405.81</ele>
        <time>2016-09-22T08:35:41Z</time>
      </trkpt>
      <trkpt lat="45.96335" lon="4.04492">
        <ele>404.37</ele>
        <time>2016-09-22T08:35:58Z</time>
      </trkpt>
      <trkpt lat="45.96354" lon="4.04509">
        <ele>402.93</ele>
        <time>2016-09-22T08:36:15Z</time>
      </trkpt>
      <trkpt lat="45.9637" lon="4.04524">
        <ele>401.97</ele>
        <time>2016-09-22T08:36:32Z</time>
      </trkpt>
      <trkpt lat="45.96387" lon="4.04534">
        <ele>403.41</ele>
        <time>2016-09-22T08:36:47Z</time>
      </trkpt>
      <trkpt lat="45.96407" lon="4.04542">
        <ele>403.89</ele>
        <time>2016-09-22T08:37:04Z</time>
      </trkpt>
      <trkpt lat="45.9642" lon="4.04547">
        <ele>405.33</ele>
        <time>2016-09-22T08:37:18Z</time>
      </trkpt>
      <trkpt lat="45.96433" lon="4.04559">
        <ele>407.74</ele>
        <time>2016-09-22T08:37:30Z</time>
      </trkpt>
      <trkpt lat="45.96439" lon="4.04569">
        <ele>410.14</ele>
        <time>2016-09-22T08:37:42Z</time>
      </trkpt>
      <trkpt lat="45.96446" lon="4.04583">
        <ele>415.43</ele>
        <time>2016-09-22T08:37:54Z</time>
      </trkpt>
      <trkpt lat="45.96455" lon="4.04598">
        <ele>417.35</ele>
        <time>2016-09-22T08:38:06Z</time>
      </trkpt>
      <trkpt lat="45.96461" lon="4.04613">
        <ele>418.79</ele>
        <time>2016-09-22T08:38:18Z</time>
      </trkpt>
      <trkpt lat="45.9647" lon="4.04636">
        <ele>415.43</ele>
        <time>2016-09-22T08:38:33Z</time>
      </trkpt>
      <trkpt lat="45.96478" lon="4.04657">
        <ele>409.66</ele>
        <time>2016-09-22T08:38:45Z</time>
      </trkpt>
      <trkpt lat="45.96484" lon="4.04674">
        <ele>410.62</ele>
        <time>2016-09-22T08:38:59Z</time>
      </trkpt>
      <trkpt lat="45.96496" lon="4.04695">
        <ele>406.77</ele>
        <time>2016-09-22T08:39:10Z</time>
      </trkpt>
      <trkpt lat="45.96508" lon="4.04709">
        <ele>403.89</ele>
        <time>2016-09-22T08:39:22Z</time>
      </trkpt>
      <trkpt lat="45.96517" lon="4.04726">
        <ele>401.49</ele>
        <time>2016-09-22T08:39:35Z</time>
      </trkpt>
      <trkpt lat="45.96523" lon="4.04743">
        <ele>400.05</ele>
        <time>2016-09-22T08:39:45Z</time>
      </trkpt>
      <trkpt lat="45.96527" lon="4.04761">
        <ele>393.8</ele>
        <time>2016-09-22T08:39:57Z</time>
      </trkpt>
      <trkpt lat="45.96536" lon="4.04781">
        <ele>389.95</ele>
        <time>2016-09-22T08:40:11Z</time>
      </trkpt>
      <trkpt lat="45.96538" lon="4.04791">
        <ele>388.99</ele>
        <time>2016-09-22T08:40:21Z</time>
      </trkpt>
      <trkpt lat="45.96536" lon="4.04805">
        <ele>388.99</ele>
        <time>2016-09-22T08:40:30Z</time>
      </trkpt>
      <trkpt lat="45.9653" lon="4.04827">
        <ele>389.47</ele>
        <time>2016-09-22T08:40:43Z</time>
      </trkpt>
      <trkpt lat="45.96531" lon="4.0485">
        <ele>383.7</ele>
        <time>2016-09-22T08:40:54Z</time>
      </trkpt>
      <trkpt lat="45.96522" lon="4.0487">
        <ele>375.05</ele>
        <time>2016-09-22T08:41:09Z</time>
      </trkpt>
      <trkpt lat="45.96521" lon="4.04875">
        <ele>374.09</ele>
        <time>2016-09-22T08:41:24Z</time>
      </trkpt>
      <trkpt lat="45.96517" lon="4.04883">
        <ele>370.73</ele>
        <time>2016-09-22T08:41:38Z</time>
      </trkpt>
      <trkpt lat="45.96512" lon="4.04889">
        <ele>370.24</ele>
        <time>2016-09-22T08:41:49Z</time>
      </trkpt>
      <trkpt lat="45.96516" lon="4.04899">
        <ele>371.21</ele>
        <time>2016-09-22T08:42:07Z</time>
      </trkpt>
      <trkpt lat="45.96526" lon="4.04907">
        <ele>369.76</ele>
        <time>2016-09-22T08:42:23Z</time>
      </trkpt>
      <trkpt lat="45.9654" lon="4.04912">
        <ele>364</ele>
        <time>2016-09-22T08:42:37Z</time>
      </trkpt>
      <trkpt lat="45.9656" lon="4.04896">
        <ele>358.71</ele>
        <time>2016-09-22T08:42:54Z</time>
      </trkpt>
      <trkpt lat="45.96574" lon="4.0489">
        <ele>355.83</ele>
        <time>2016-09-22T08:43:08Z</time>
      </trkpt>
      <trkpt lat="45.96584" lon="4.04877">
        <ele>356.79</ele>
        <time>2016-09-22T08:43:19Z</time>
      </trkpt>
      <trkpt lat="45.96596" lon="4.04857">
        <ele>357.27</ele>
        <time>2016-09-22T08:43:33Z</time>
      </trkpt>
      <trkpt lat="45.96608" lon="4.04838">
        <ele>360.63</ele>
        <time>2016-09-22T08:43:50Z</time>
      </trkpt>
      <trkpt lat="45.96614" lon="4.04828">
        <ele>362.07</ele>
        <time>2016-09-22T08:44:05Z</time>
      </trkpt>
      <trkpt lat="45.96619" lon="4.04816">
        <ele>360.63</ele>
        <time>2016-09-22T08:44:10Z</time>
      </trkpt>
      <trkpt lat="45.96624" lon="4.04803">
        <ele>359.67</ele>
        <time>2016-09-22T08:44:16Z</time>
      </trkpt>
      <trkpt lat="45.9664" lon="4.04777">
        <ele>358.23</ele>
        <time>2016-09-22T08:44:33Z</time>
      </trkpt>
      <trkpt lat="45.96644" lon="4.04774">
        <ele>358.71</ele>
        <time>2016-09-22T08:44:36Z</time>
      </trkpt>
      <trkpt lat="45.96648" lon="4.04768">
        <ele>359.67</ele>
        <time>2016-09-22T08:44:41Z</time>
      </trkpt>
      <trkpt lat="45.96667" lon="4.04754">
        <ele>360.15</ele>
        <time>2016-09-22T08:44:58Z</time>
      </trkpt>
      <trkpt lat="45.96683" lon="4.04746">
        <ele>362.55</ele>
        <time>2016-09-22T08:45:14Z</time>
      </trkpt>
      <trkpt lat="45.96702" lon="4.04731">
        <ele>361.59</ele>
        <time>2016-09-22T08:45:30Z</time>
      </trkpt>
      <trkpt lat="45.96726" lon="4.04719">
        <ele>360.63</ele>
        <time>2016-09-22T08:45:47Z</time>
      </trkpt>
      <trkpt lat="45.9674" lon="4.04712">
        <ele>359.67</ele>
        <time>2016-09-22T08:46:03Z</time>
      </trkpt>
      <trkpt lat="45.96744" lon="4.04705">
        <ele>359.19</ele>
        <time>2016-09-22T08:46:19Z</time>
      </trkpt>
      <trkpt lat="45.96758" lon="4.04693">
        <ele>355.34</ele>
        <time>2016-09-22T08:46:38Z</time>
      </trkpt>
      <trkpt lat="45.96768" lon="4.04682">
        <ele>353.42</ele>
        <time>2016-09-22T08:46:52Z</time>
      </trkpt>
      <trkpt lat="45.96784" lon="4.04658">
        <ele>350.06</ele>
        <time>2016-09-22T08:47:08Z</time>
      </trkpt>
      <trkpt lat="45.96802" lon="4.04645">
        <ele>348.13</ele>
        <time>2016-09-22T08:47:25Z</time>
      </trkpt>
      <trkpt lat="45.96824" lon="4.04634">
        <ele>345.73</ele>
        <time>2016-09-22T08:47:41Z</time>
      </trkpt>
      <trkpt lat="45.96834" lon="4.04638">
        <ele>350.06</ele>
        <time>2016-09-22T08:47:51Z</time>
      </trkpt>
      <trkpt lat="45.96848" lon="4.04638">
        <ele>351.5</ele>
        <time>2016-09-22T08:48:06Z</time>
      </trkpt>
      <trkpt lat="45.96868" lon="4.04632">
        <ele>351.98</ele>
        <time>2016-09-22T08:48:23Z</time>
      </trkpt>
      <trkpt lat="45.96894" lon="4.04626">
        <ele>346.21</ele>
        <time>2016-09-22T08:48:37Z</time>
      </trkpt>
      <trkpt lat="45.96907" lon="4.04625">
        <ele>341.41</ele>
        <time>2016-09-22T08:48:50Z</time>
      </trkpt>
      <trkpt lat="45.96927" lon="4.04626">
        <ele>340.92</ele>
        <time>2016-09-22T08:49:03Z</time>
      </trkpt>
      <trkpt lat="45.96923" lon="4.04627">
        <ele>340.44</ele>
        <time>2016-09-22T08:49:07Z</time>
      </trkpt>
      <trkpt lat="45.96925" lon="4.04627">
        <ele>339.96</ele>
        <time>2016-09-22T08:49:11Z</time>
      </trkpt>
      <trkpt lat="45.96941" lon="4.04623">
        <ele>340.44</ele>
        <time>2016-09-22T08:49:20Z</time>
      </trkpt>
      <trkpt lat="45.96953" lon="4.04618">
        <ele>338.52</ele>
        <time>2016-09-22T08:49:29Z</time>
      </trkpt>
      <trkpt lat="45.9697" lon="4.04616">
        <ele>336.6</ele>
        <time>2016-09-22T08:49:41Z</time>
      </trkpt>
      <trkpt lat="45.96972" lon="4.0462">
        <ele>334.68</ele>
        <time>2016-09-22T08:49:57Z</time>
      </trkpt>
      <trkpt lat="45.96972" lon="4.04619">
        <ele>333.23</ele>
        <time>2016-09-22T08:50:09Z</time>
      </trkpt>
      <trkpt lat="45.96973" lon="4.0462">
        <ele>331.79</ele>
        <time>2016-09-22T08:50:21Z</time>
      </trkpt>
      <trkpt lat="45.96975" lon="4.04622">
        <ele>330.35</ele>
        <time>2016-09-22T08:50:43Z</time>
      </trkpt>
      <trkpt lat="45.96976" lon="4.04623">
        <ele>330.83</ele>
        <time>2016-09-22T08:51:05Z</time>
      </trkpt>
      <trkpt lat="45.96977" lon="4.04624">
        <ele>330.83</ele>
        <time>2016-09-22T08:51:27Z</time>
      </trkpt>
      <trkpt lat="45.96974" lon="4.04618">
        <ele>328.43</ele>
        <time>2016-09-22T08:51:43Z</time>
      </trkpt>
      <trkpt lat="45.96972" lon="4.04606">
        <ele>329.87</ele>
        <time>2016-09-22T08:51:56Z</time>
      </trkpt>
      <trkpt lat="45.96983" lon="4.04591">
        <ele>335.64</ele>
        <time>2016-09-22T08:52:09Z</time>
      </trkpt>
      <trkpt lat="45.96999" lon="4.0458">
        <ele>337.08</ele>
        <time>2016-09-22T08:52:23Z</time>
      </trkpt>
      <trkpt lat="45.9701" lon="4.04575">
        <ele>340.44</ele>
        <time>2016-09-22T08:52:34Z</time>
      </trkpt>
      <trkpt lat="45.97016" lon="4.04585">
        <ele>342.85</ele>
        <time>2016-09-22T08:52:47Z</time>
      </trkpt>
      <trkpt lat="45.97021" lon="4.04592">
        <ele>343.33</ele>
        <time>2016-09-22T08:52:57Z</time>
      </trkpt>
      <trkpt lat="45.97029" lon="4.04599">
        <ele>345.25</ele>
        <time>2016-09-22T08:53:09Z</time>
      </trkpt>
      <trkpt lat="45.97031" lon="4.04602">
        <ele>345.25</ele>
        <time>2016-09-22T08:53:22Z</time>
      </trkpt>
      <trkpt lat="45.97034" lon="4.04602">
        <ele>345.25</ele>
        <time>2016-09-22T08:53:26Z</time>
      </trkpt>
      <trkpt lat="45.97051" lon="4.04592">
        <ele>344.77</ele>
        <time>2016-09-22T08:53:40Z</time>
      </trkpt>
      <trkpt lat="45.97069" lon="4.04579">
        <ele>343.81</ele>
        <time>2016-09-22T08:53:55Z</time>
      </trkpt>
      <trkpt lat="45.97079" lon="4.0457">
        <ele>343.33</ele>
        <time>2016-09-22T08:54:04Z</time>
      </trkpt>
      <trkpt lat="45.97091" lon="4.04548">
        <ele>348.62</ele>
        <time>2016-09-22T08:54:21Z</time>
      </trkpt>
      <trkpt lat="45.97098" lon="4.04525">
        <ele>353.9</ele>
        <time>2016-09-22T08:54:36Z</time>
      </trkpt>
      <trkpt lat="45.971" lon="4.04517">
        <ele>354.38</ele>
        <time>2016-09-22T08:54:41Z</time>
      </trkpt>
      <trkpt lat="45.97111" lon="4.04495">
        <ele>353.9</ele>
        <time>2016-09-22T08:54:55Z</time>
      </trkpt>
      <trkpt lat="45.97109" lon="4.04482">
        <ele>351.5</ele>
        <time>2016-09-22T08:55:04Z</time>
      </trkpt>
      <trkpt lat="45.97106" lon="4.04477">
        <ele>346.69</ele>
        <time>2016-09-22T08:55:17Z</time>
      </trkpt>
      <trkpt lat="45.97104" lon="4.04467">
        <ele>340.92</ele>
        <time>2016-09-22T08:55:29Z</time>
      </trkpt>
      <trkpt lat="45.97104" lon="4.04466">
        <ele>339.96</ele>
        <time>2016-09-22T08:55:32Z</time>
      </trkpt>
      <trkpt lat="45.97106" lon="4.04451">
        <ele>340.44</ele>
        <time>2016-09-22T08:55:47Z</time>
      </trkpt>
      <trkpt lat="45.97106" lon="4.0445">
        <ele>340.44</ele>
        <time>2016-09-22T08:56:05Z</time>
      </trkpt>
      <trkpt lat="45.97106" lon="4.0445">
        <ele>339.48</ele>
        <time>2016-09-22T08:56:15Z</time>
      </trkpt>
      <trkpt lat="45.97106" lon="4.04449">
        <ele>338.52</ele>
        <time>2016-09-22T08:56:32Z</time>
      </trkpt>
      <trkpt lat="45.97106" lon="4.04448">
        <ele>338.52</ele>
        <time>2016-09-22T08:56:52Z</time>
      </trkpt>
      <trkpt lat="45.97106" lon="4.04448">
        <ele>339.48</ele>
        <time>2016-09-22T08:57:11Z</time>
      </trkpt>
      <trkpt lat="45.97106" lon="4.04448">
        <ele>339</ele>
        <time>2016-09-22T08:57:34Z</time>
      </trkpt>
      <trkpt lat="45.97111" lon="4.04438">
        <ele>339</ele>
        <time>2016-09-22T08:57:49Z</time>
      </trkpt>
      <trkpt lat="45.97117" lon="4.04423">
        <ele>339.96</ele>
        <time>2016-09-22T08:58:04Z</time>
      </trkpt>
      <trkpt lat="45.97122" lon="4.04405">
        <ele>340.44</ele>
        <time>2016-09-22T08:58:17Z</time>
      </trkpt>
      <trkpt lat="45.97131" lon="4.04381">
        <ele>343.33</ele>
        <time>2016-09-22T08:58:34Z</time>
      </trkpt>
      <trkpt lat="45.97138" lon="4.04356">
        <ele>345.73</ele>
        <time>2016-09-22T08:58:50Z</time>
      </trkpt>
      <trkpt lat="45.97145" lon="4.04332">
        <ele>346.69</ele>
        <time>2016-09-22T08:59:05Z</time>
      </trkpt>
      <trkpt lat="45.97154" lon="4.043">
        <ele>348.62</ele>
        <time>2016-09-22T08:59:24Z</time>
      </trkpt>
      <trkpt lat="45.97155" lon="4.04297">
        <ele>349.1</ele>
        <time>2016-09-22T08:59:26Z</time>
      </trkpt>
      <trkpt lat="45.97164" lon="4.04269">
        <ele>351.98</ele>
        <time>2016-09-22T08:59:44Z</time>
      </trkpt>
      <trkpt lat="45.97172" lon="4.04242">
        <ele>352.94</ele>
        <time>2016-09-22T08:59:59Z</time>
      </trkpt>
      <trkpt lat="45.97181" lon="4.04208">
        <ele>354.86</ele>
        <time>2016-09-22T09:00:18Z</time>
      </trkpt>
      <trkpt lat="45.97192" lon="4.04176">
        <ele>357.75</ele>
        <time>2016-09-22T09:00:36Z</time>
      </trkpt>
      <trkpt lat="45.97212" lon="4.04148">
        <ele>359.67</ele>
        <time>2016-09-22T09:00:56Z</time>
      </trkpt>
      <trkpt lat="45.97232" lon="4.04129">
        <ele>360.63</ele>
        <time>2016-09-22T09:01:14Z</time>
      </trkpt>
      <trkpt lat="45.97252" lon="4.04121">
        <ele>360.63</ele>
        <time>2016-09-22T09:01:29Z</time>
      </trkpt>
      <trkpt lat="45.97254" lon="4.04121">
        <ele>360.63</ele>
        <time>2016-09-22T09:01:31Z</time>
      </trkpt>
      <trkpt lat="45.97277" lon="4.04116">
        <ele>362.55</ele>
        <time>2016-09-22T09:01:48Z</time>
      </trkpt>
      <trkpt lat="45.97301" lon="4.04114">
        <ele>365.92</ele>
        <time>2016-09-22T09:02:07Z</time>
      </trkpt>
      <trkpt lat="45.97325" lon="4.04111">
        <ele>366.4</ele>
        <time>2016-09-22T09:02:24Z</time>
      </trkpt>
      <trkpt lat="45.9735" lon="4.04109">
        <ele>369.28</ele>
        <time>2016-09-22T09:02:43Z</time>
      </trkpt>
      <trkpt lat="45.97372" lon="4.04105">
        <ele>371.69</ele>
        <time>2016-09-22T09:03:00Z</time>
      </trkpt>
      <trkpt lat="45.97399" lon="4.04106">
        <ele>373.13</ele>
        <time>2016-09-22T09:03:20Z</time>
      </trkpt>
      <trkpt lat="45.97422" lon="4.04106">
        <ele>375.53</ele>
        <time>2016-09-22T09:03:37Z</time>
      </trkpt>
      <trkpt lat="45.97447" lon="4.04108">
        <ele>376.01</ele>
        <time>2016-09-22T09:03:56Z</time>
      </trkpt>
      <trkpt lat="45.97471" lon="4.04112">
        <ele>377.45</ele>
        <time>2016-09-22T09:04:14Z</time>
      </trkpt>
      <trkpt lat="45.97496" lon="4.04125">
        <ele>379.38</ele>
        <time>2016-09-22T09:04:33Z</time>
      </trkpt>
      <trkpt lat="45.97519" lon="4.0414">
        <ele>380.82</ele>
        <time>2016-09-22T09:04:52Z</time>
      </trkpt>
      <trkpt lat="45.97537" lon="4.04154">
        <ele>382.74</ele>
        <time>2016-09-22T09:05:08Z</time>
      </trkpt>
      <trkpt lat="45.97556" lon="4.04169">
        <ele>383.22</ele>
        <time>2016-09-22T09:05:24Z</time>
      </trkpt>
      <trkpt lat="45.97575" lon="4.04183">
        <ele>385.15</ele>
        <time>2016-09-22T09:05:41Z</time>
      </trkpt>
      <trkpt lat="45.97591" lon="4.04198">
        <ele>386.11</ele>
        <time>2016-09-22T09:05:55Z</time>
      </trkpt>
      <trkpt lat="45.9761" lon="4.04217">
        <ele>387.07</ele>
        <time>2016-09-22T09:06:12Z</time>
      </trkpt>
      <trkpt lat="45.97629" lon="4.04226">
        <ele>389.95</ele>
        <time>2016-09-22T09:06:29Z</time>
      </trkpt>
      <trkpt lat="45.97634" lon="4.04224">
        <ele>388.99</ele>
        <time>2016-09-22T09:06:46Z</time>
      </trkpt>
      <trkpt lat="45.97632" lon="4.04224">
        <ele>388.99</ele>
        <time>2016-09-22T09:07:03Z</time>
      </trkpt>
      <trkpt lat="45.97631" lon="4.04224">
        <ele>389.47</ele>
        <time>2016-09-22T09:07:21Z</time>
      </trkpt>
      <trkpt lat="45.9763" lon="4.04225">
        <ele>390.43</ele>
        <time>2016-09-22T09:07:39Z</time>
      </trkpt>
      <trkpt lat="45.97628" lon="4.04224">
        <ele>390.43</ele>
        <time>2016-09-22T09:07:54Z</time>
      </trkpt>
      <trkpt lat="45.97631" lon="4.04224">
        <ele>390.91</ele>
        <time>2016-09-22T09:08:04Z</time>
      </trkpt>
      <trkpt lat="45.9762" lon="4.04203">
        <ele>388.99</ele>
        <time>2016-09-22T09:08:21Z</time>
      </trkpt>
      <trkpt lat="45.97614" lon="4.04187">
        <ele>388.51</ele>
        <time>2016-09-22T09:08:32Z</time>
      </trkpt>
      <trkpt lat="45.97602" lon="4.04155">
        <ele>388.03</ele>
        <time>2016-09-22T09:08:51Z</time>
      </trkpt>
      <trkpt lat="45.97593" lon="4.04135">
        <ele>387.07</ele>
        <time>2016-09-22T09:09:05Z</time>
      </trkpt>
      <trkpt lat="45.97583" lon="4.04106">
        <ele>386.59</ele>
        <time>2016-09-22T09:09:23Z</time>
      </trkpt>
      <trkpt lat="45.97572" lon="4.04077">
        <ele>385.63</ele>
        <time>2016-09-22T09:09:40Z</time>
      </trkpt>
      <trkpt lat="45.97558" lon="4.04053">
        <ele>385.63</ele>
        <time>2016-09-22T09:09:57Z</time>
      </trkpt>
      <trkpt lat="45.97546" lon="4.0403">
        <ele>384.66</ele>
        <time>2016-09-22T09:10:14Z</time>
      </trkpt>
      <trkpt lat="45.97533" lon="4.04">
        <ele>383.22</ele>
        <time>2016-09-22T09:10:32Z</time>
      </trkpt>
      <trkpt lat="45.97527" lon="4.03973">
        <ele>383.22</ele>
        <time>2016-09-22T09:10:48Z</time>
      </trkpt>
      <trkpt lat="45.97519" lon="4.03949">
        <ele>383.7</ele>
        <time>2016-09-22T09:11:03Z</time>
      </trkpt>
      <trkpt lat="45.97511" lon="4.03924">
        <ele>382.74</ele>
        <time>2016-09-22T09:11:18Z</time>
      </trkpt>
      <trkpt lat="45.97505" lon="4.03892">
        <ele>380.34</ele>
        <time>2016-09-22T09:11:35Z</time>
      </trkpt>
      <trkpt lat="45.97518" lon="4.0387">
        <ele>380.34</ele>
        <time>2016-09-22T09:11:50Z</time>
      </trkpt>
      <trkpt lat="45.97524" lon="4.03865">
        <ele>380.34</ele>
        <time>2016-09-22T09:11:56Z</time>
      </trkpt>
      <trkpt lat="45.97531" lon="4.0386">
        <ele>380.34</ele>
        <time>2016-09-22T09:12:02Z</time>
      </trkpt>
      <trkpt lat="45.97541" lon="4.03842">
        <ele>378.9</ele>
        <time>2016-09-22T09:12:15Z</time>
      </trkpt>
      <trkpt lat="45.97538" lon="4.03825">
        <ele>379.38</ele>
        <time>2016-09-22T09:12:27Z</time>
      </trkpt>
      <trkpt lat="45.97531" lon="4.03798">
        <ele>380.34</ele>
        <time>2016-09-22T09:12:44Z</time>
      </trkpt>
      <trkpt lat="45.97528" lon="4.0378">
        <ele>379.38</ele>
        <time>2016-09-22T09:12:54Z</time>
      </trkpt>
      <trkpt lat="45.97544" lon="4.03759">
        <ele>376.97</ele>
        <time>2016-09-22T09:13:11Z</time>
      </trkpt>
      <trkpt lat="45.9756" lon="4.03747">
        <ele>375.53</ele>
        <time>2016-09-22T09:13:27Z</time>
      </trkpt>
      <trkpt lat="45.9756" lon="4.03748">
        <ele>375.53</ele>
        <time>2016-09-22T09:13:34Z</time>
      </trkpt>
      <trkpt lat="45.97564" lon="4.03723">
        <ele>372.65</ele>
        <time>2016-09-22T09:13:49Z</time>
      </trkpt>
      <trkpt lat="45.9756" lon="4.03694">
        <ele>372.65</ele>
        <time>2016-09-22T09:14:06Z</time>
      </trkpt>
      <trkpt lat="45.97543" lon="4.03668">
        <ele>371.21</ele>
        <time>2016-09-22T09:14:25Z</time>
      </trkpt>
      <trkpt lat="45.97525" lon="4.03661">
        <ele>371.21</ele>
        <time>2016-09-22T09:14:41Z</time>
      </trkpt>
      <trkpt lat="45.97504" lon="4.03645">
        <ele>370.24</ele>
        <time>2016-09-22T09:15:00Z</time>
      </trkpt>
      <trkpt lat="45.97488" lon="4.03616">
        <ele>370.24</ele>
        <time>2016-09-22T09:15:19Z</time>
      </trkpt>
      <trkpt lat="45.97474" lon="4.0359">
        <ele>370.24</ele>
        <time>2016-09-22T09:15:36Z</time>
      </trkpt>
      <trkpt lat="45.97461" lon="4.03562">
        <ele>369.28</ele>
        <time>2016-09-22T09:15:53Z</time>
      </trkpt>
      <trkpt lat="45.97453" lon="4.03533">
        <ele>367.36</ele>
        <time>2016-09-22T09:16:09Z</time>
      </trkpt>
      <trkpt lat="45.9745" lon="4.03502">
        <ele>367.36</ele>
        <time>2016-09-22T09:16:25Z</time>
      </trkpt>
      <trkpt lat="45.97454" lon="4.03479">
        <ele>366.88</ele>
        <time>2016-09-22T09:16:38Z</time>
      </trkpt>
      <trkpt lat="45.97461" lon="4.03453">
        <ele>366.88</ele>
        <time>2016-09-22T09:16:53Z</time>
      </trkpt>
      <trkpt lat="45.97471" lon="4.03427">
        <ele>366.88</ele>
        <time>2016-09-22T09:17:08Z</time>
      </trkpt>
      <trkpt lat="45.97491" lon="4.03404">
        <ele>366.88</ele>
        <time>2016-09-22T09:17:27Z</time>
      </trkpt>
      <trkpt lat="45.97514" lon="4.03391">
        <ele>366.88</ele>
        <time>2016-09-22T09:17:45Z</time>
      </trkpt>
      <trkpt lat="45.97541" lon="4.03396">
        <ele>366.88</ele>
        <time>2016-09-22T09:18:05Z</time>
      </trkpt>
      <trkpt lat="45.9756" lon="4.03412">
        <ele>366.88</ele>
        <time>2016-09-22T09:18:21Z</time>
      </trkpt>
      <trkpt lat="45.97572" lon="4.03433">
        <ele>365.92</ele>
        <time>2016-09-22T09:18:35Z</time>
      </trkpt>
      <trkpt lat="45.97581" lon="4.03465">
        <ele>365.92</ele>
        <time>2016-09-22T09:18:52Z</time>
      </trkpt>
      <trkpt lat="45.9759" lon="4.03498">
        <ele>364.48</ele>
        <time>2016-09-22T09:19:09Z</time>
      </trkpt>
      <trkpt lat="45.97599" lon="4.03531">
        <ele>363.04</ele>
        <time>2016-09-22T09:19:27Z</time>
      </trkpt>
      <trkpt lat="45.97601" lon="4.03537">
        <ele>363.52</ele>
        <time>2016-09-22T09:19:31Z</time>
      </trkpt>
      <trkpt lat="45.97601" lon="4.03542">
        <ele>364</ele>
        <time>2016-09-22T09:19:34Z</time>
      </trkpt>
      <trkpt lat="45.97606" lon="4.03569">
        <ele>364.96</ele>
        <time>2016-09-22T09:19:50Z</time>
      </trkpt>
      <trkpt lat="45.97612" lon="4.0359">
        <ele>364.96</ele>
        <time>2016-09-22T09:20:03Z</time>
      </trkpt>
      <trkpt lat="45.97616" lon="4.03617">
        <ele>363.52</ele>
        <time>2016-09-22T09:20:19Z</time>
      </trkpt>
      <trkpt lat="45.97623" lon="4.03641">
        <ele>361.59</ele>
        <time>2016-09-22T09:20:31Z</time>
      </trkpt>
      <trkpt lat="45.97623" lon="4.03643">
        <ele>361.59</ele>
        <time>2016-09-22T09:20:32Z</time>
      </trkpt>
      <trkpt lat="45.97629" lon="4.03671">
        <ele>360.63</ele>
        <time>2016-09-22T09:20:47Z</time>
      </trkpt>
      <trkpt lat="45.97635" lon="4.03704">
        <ele>358.71</ele>
        <time>2016-09-22T09:21:03Z</time>
      </trkpt>
      <trkpt lat="45.97636" lon="4.03719">
        <ele>359.67</ele>
        <time>2016-09-22T09:21:10Z</time>
      </trkpt>
      <trkpt lat="45.97639" lon="4.03734">
        <ele>361.11</ele>
        <time>2016-09-22T09:21:16Z</time>
      </trkpt>
      <trkpt lat="45.97642" lon="4.03762">
        <ele>364</ele>
        <time>2016-09-22T09:21:32Z</time>
      </trkpt>
      <trkpt lat="45.97645" lon="4.03779">
        <ele>364</ele>
        <time>2016-09-22T09:21:43Z</time>
      </trkpt>
      <trkpt lat="45.97653" lon="4.03801">
        <ele>361.11</ele>
        <time>2016-09-22T09:21:58Z</time>
      </trkpt>
      <trkpt lat="45.97666" lon="4.03821">
        <ele>360.15</ele>
        <time>2016-09-22T09:22:14Z</time>
      </trkpt>
      <trkpt lat="45.97684" lon="4.03839">
        <ele>358.71</ele>
        <time>2016-09-22T09:22:27Z</time>
      </trkpt>
      <trkpt lat="45.977" lon="4.03857">
        <ele>355.83</ele>
        <time>2016-09-22T09:22:42Z</time>
      </trkpt>
      <trkpt lat="45.9771" lon="4.03871">
        <ele>354.86</ele>
        <time>2016-09-22T09:22:55Z</time>
      </trkpt>
      <trkpt lat="45.97724" lon="4.03893">
        <ele>356.31</ele>
        <time>2016-09-22T09:23:10Z</time>
      </trkpt>
      <trkpt lat="45.97733" lon="4.0391">
        <ele>358.71</ele>
        <time>2016-09-22T09:23:24Z</time>
      </trkpt>
      <trkpt lat="45.97742" lon="4.03933">
        <ele>358.71</ele>
        <time>2016-09-22T09:23:37Z</time>
      </trkpt>
      <trkpt lat="45.97752" lon="4.03959">
        <ele>356.79</ele>
        <time>2016-09-22T09:23:50Z</time>
      </trkpt>
      <trkpt lat="45.97761" lon="4.03983">
        <ele>355.83</ele>
        <time>2016-09-22T09:24:04Z</time>
      </trkpt>
      <trkpt lat="45.9777" lon="4.04011">
        <ele>353.9</ele>
        <time>2016-09-22T09:24:18Z</time>
      </trkpt>
      <trkpt lat="45.97782" lon="4.04036">
        <ele>351.5</ele>
        <time>2016-09-22T09:24:33Z</time>
      </trkpt>
      <trkpt lat="45.97787" lon="4.04041">
        <ele>351.02</ele>
        <time>2016-09-22T09:24:39Z</time>
      </trkpt>
      <trkpt lat="45.97789" lon="4.04045">
        <ele>351.02</ele>
        <time>2016-09-22T09:24:43Z</time>
      </trkpt>
      <trkpt lat="45.97803" lon="4.04057">
        <ele>351.02</ele>
        <time>2016-09-22T09:24:56Z</time>
      </trkpt>
      <trkpt lat="45.97817" lon="4.04064">
        <ele>352.46</ele>
        <time>2016-09-22T09:25:09Z</time>
      </trkpt>
      <trkpt lat="45.97844" lon="4.04071">
        <ele>350.54</ele>
        <time>2016-09-22T09:25:25Z</time>
      </trkpt>
      <trkpt lat="45.97866" lon="4.04066">
        <ele>348.62</ele>
        <time>2016-09-22T09:25:43Z</time>
      </trkpt>
      <trkpt lat="45.97883" lon="4.04055">
        <ele>347.17</ele>
        <time>2016-09-22T09:25:57Z</time>
      </trkpt>
      <trkpt lat="45.97907" lon="4.04046">
        <ele>343.81</ele>
        <time>2016-09-22T09:26:16Z</time>
      </trkpt>
      <trkpt lat="45.97929" lon="4.04045">
        <ele>342.37</ele>
        <time>2016-09-22T09:26:32Z</time>
      </trkpt>
      <trkpt lat="45.9793" lon="4.04045">
        <ele>341.89</ele>
        <time>2016-09-22T09:26:33Z</time>
      </trkpt>
      <trkpt lat="45.97953" lon="4.04051">
        <ele>340.92</ele>
        <time>2016-09-22T09:26:50Z</time>
      </trkpt>
      <trkpt lat="45.97963" lon="4.04056">
        <ele>341.89</ele>
        <time>2016-09-22T09:26:59Z</time>
      </trkpt>
      <trkpt lat="45.97973" lon="4.04063">
        <ele>341.89</ele>
        <time>2016-09-22T09:27:07Z</time>
      </trkpt>
      <trkpt lat="45.97996" lon="4.04076">
        <ele>340.44</ele>
        <time>2016-09-22T09:27:25Z</time>
      </trkpt>
      <trkpt lat="45.98015" lon="4.04087">
        <ele>340.92</ele>
        <time>2016-09-22T09:27:41Z</time>
      </trkpt>
      <trkpt lat="45.98016" lon="4.04087">
        <ele>340.92</ele>
        <time>2016-09-22T09:27:42Z</time>
      </trkpt>
      <trkpt lat="45.98037" lon="4.04102">
        <ele>340.44</ele>
        <time>2016-09-22T09:27:59Z</time>
      </trkpt>
      <trkpt lat="45.9806" lon="4.04113">
        <ele>340.92</ele>
        <time>2016-09-22T09:28:17Z</time>
      </trkpt>
      <trkpt lat="45.98085" lon="4.04121">
        <ele>338.52</ele>
        <time>2016-09-22T09:28:35Z</time>
      </trkpt>
      <trkpt lat="45.98107" lon="4.04131">
        <ele>335.16</ele>
        <time>2016-09-22T09:28:51Z</time>
      </trkpt>
      <trkpt lat="45.98122" lon="4.04143">
        <ele>335.16</ele>
        <time>2016-09-22T09:29:05Z</time>
      </trkpt>
      <trkpt lat="45.98139" lon="4.04162">
        <ele>333.23</ele>
        <time>2016-09-22T09:29:22Z</time>
      </trkpt>
      <trkpt lat="45.98157" lon="4.04177">
        <ele>333.23</ele>
        <time>2016-09-22T09:29:38Z</time>
      </trkpt>
      <trkpt lat="45.98179" lon="4.04192">
        <ele>333.71</ele>
        <time>2016-09-22T09:29:55Z</time>
      </trkpt>
      <trkpt lat="45.98198" lon="4.04205">
        <ele>336.6</ele>
        <time>2016-09-22T09:30:10Z</time>
      </trkpt>
      <trkpt lat="45.98218" lon="4.04211">
        <ele>335.16</ele>
        <time>2016-09-22T09:30:25Z</time>
      </trkpt>
      <trkpt lat="45.98234" lon="4.04221">
        <ele>332.75</ele>
        <time>2016-09-22T09:30:38Z</time>
      </trkpt>
      <trkpt lat="45.98252" lon="4.0424">
        <ele>332.75</ele>
        <time>2016-09-22T09:30:54Z</time>
      </trkpt>
      <trkpt lat="45.98261" lon="4.04256">
        <ele>331.79</ele>
        <time>2016-09-22T09:31:10Z</time>
      </trkpt>
      <trkpt lat="45.98262" lon="4.04258">
        <ele>331.79</ele>
        <time>2016-09-22T09:31:23Z</time>
      </trkpt>
      <trkpt lat="45.98261" lon="4.04261">
        <ele>331.31</ele>
        <time>2016-09-22T09:31:47Z</time>
      </trkpt>
      <trkpt lat="45.98261" lon="4.04262">
        <ele>331.79</ele>
        <time>2016-09-22T09:32:13Z</time>
      </trkpt>
      <trkpt lat="45.98261" lon="4.04262">
        <ele>332.27</ele>
        <time>2016-09-22T09:32:38Z</time>
      </trkpt>
      <trkpt lat="45.98262" lon="4.04263">
        <ele>331.31</ele>
        <time>2016-09-22T09:32:56Z</time>
      </trkpt>
      <trkpt lat="45.98262" lon="4.04264">
        <ele>331.79</ele>
        <time>2016-09-22T09:33:24Z</time>
      </trkpt>
      <trkpt lat="45.98261" lon="4.04266">
        <ele>329.87</ele>
        <time>2016-09-22T09:33:36Z</time>
      </trkpt>
      <trkpt lat="45.98261" lon="4.0427">
        <ele>329.39</ele>
        <time>2016-09-22T09:33:39Z</time>
      </trkpt>
      <trkpt lat="45.98264" lon="4.04281">
        <ele>329.39</ele>
        <time>2016-09-22T09:33:46Z</time>
      </trkpt>
      <trkpt lat="45.98267" lon="4.04316">
        <ele>327.95</ele>
        <time>2016-09-22T09:34:06Z</time>
      </trkpt>
      <trkpt lat="45.98269" lon="4.04343">
        <ele>328.91</ele>
        <time>2016-09-22T09:34:20Z</time>
      </trkpt>
      <trkpt lat="45.9827" lon="4.0436">
        <ele>328.91</ele>
        <time>2016-09-22T09:34:30Z</time>
      </trkpt>
      <trkpt lat="45.98269" lon="4.04367">
        <ele>329.39</ele>
        <time>2016-09-22T09:34:34Z</time>
      </trkpt>
      <trkpt lat="45.98267" lon="4.04394">
        <ele>329.87</ele>
        <time>2016-09-22T09:34:50Z</time>
      </trkpt>
      <trkpt lat="45.98266" lon="4.04406">
        <ele>330.35</ele>
        <time>2016-09-22T09:34:57Z</time>
      </trkpt>
      <trkpt lat="45.98265" lon="4.04426">
        <ele>330.83</ele>
        <time>2016-09-22T09:35:08Z</time>
      </trkpt>
      <trkpt lat="45.98263" lon="4.04458">
        <ele>329.87</ele>
        <time>2016-09-22T09:35:26Z</time>
      </trkpt>
      <trkpt lat="45.98261" lon="4.04485">
        <ele>332.75</ele>
        <time>2016-09-22T09:35:42Z</time>
      </trkpt>
      <trkpt lat="45.98256" lon="4.04516">
        <ele>334.2</ele>
        <time>2016-09-22T09:35:58Z</time>
      </trkpt>
      <trkpt lat="45.98246" lon="4.04545">
        <ele>337.56</ele>
        <time>2016-09-22T09:36:15Z</time>
      </trkpt>
      <trkpt lat="45.98235" lon="4.04569">
        <ele>339</ele>
        <time>2016-09-22T09:36:30Z</time>
      </trkpt>
      <trkpt lat="45.98221" lon="4.04589">
        <ele>340.92</ele>
        <time>2016-09-22T09:36:45Z</time>
      </trkpt>
      <trkpt lat="45.98203" lon="4.04611">
        <ele>341.41</ele>
        <time>2016-09-22T09:37:03Z</time>
      </trkpt>
      <trkpt lat="45.98188" lon="4.04632">
        <ele>342.85</ele>
        <time>2016-09-22T09:37:19Z</time>
      </trkpt>
      <trkpt lat="45.98177" lon="4.04655">
        <ele>347.65</ele>
        <time>2016-09-22T09:37:34Z</time>
      </trkpt>
      <trkpt lat="45.98163" lon="4.04682">
        <ele>352.94</ele>
        <time>2016-09-22T09:37:51Z</time>
      </trkpt>
      <trkpt lat="45.9815" lon="4.04708">
        <ele>352.46</ele>
        <time>2016-09-22T09:38:08Z</time>
      </trkpt>
      <trkpt lat="45.98135" lon="4.04732">
        <ele>351.98</ele>
        <time>2016-09-22T09:38:24Z</time>
      </trkpt>
      <trkpt lat="45.98121" lon="4.04759">
        <ele>351.5</ele>
        <time>2016-09-22T09:38:42Z</time>
      </trkpt>
      <trkpt lat="45.98118" lon="4.04786">
        <ele>353.9</ele>
        <time>2016-09-22T09:38:57Z</time>
      </trkpt>
      <trkpt lat="45.98122" lon="4.0482">
        <ele>354.38</ele>
        <time>2016-09-22T09:39:16Z</time>
      </trkpt>
      <trkpt lat="45.98134" lon="4.04833">
        <ele>351.5</ele>
        <time>2016-09-22T09:39:30Z</time>
      </trkpt>
      <trkpt lat="45.98158" lon="4.04832">
        <ele>347.65</ele>
        <time>2016-09-22T09:39:49Z</time>
      </trkpt>
      <trkpt lat="45.98174" lon="4.04815">
        <ele>346.69</ele>
        <time>2016-09-22T09:40:05Z</time>
      </trkpt>
      <trkpt lat="45.98188" lon="4.04793">
        <ele>348.62</ele>
        <time>2016-09-22T09:40:22Z</time>
      </trkpt>
      <trkpt lat="45.98206" lon="4.0477">
        <ele>347.17</ele>
        <time>2016-09-22T09:40:40Z</time>
      </trkpt>
      <trkpt lat="45.98226" lon="4.04757">
        <ele>347.65</ele>
        <time>2016-09-22T09:40:57Z</time>
      </trkpt>
      <trkpt lat="45.98253" lon="4.04756">
        <ele>347.65</ele>
        <time>2016-09-22T09:41:17Z</time>
      </trkpt>
      <trkpt lat="45.98274" lon="4.04766">
        <ele>348.13</ele>
        <time>2016-09-22T09:41:33Z</time>
      </trkpt>
      <trkpt lat="45.98292" lon="4.04786">
        <ele>348.13</ele>
        <time>2016-09-22T09:41:49Z</time>
      </trkpt>
      <trkpt lat="45.98306" lon="4.04809">
        <ele>348.62</ele>
        <time>2016-09-22T09:42:05Z</time>
      </trkpt>
      <trkpt lat="45.98319" lon="4.0483">
        <ele>348.13</ele>
        <time>2016-09-22T09:42:19Z</time>
      </trkpt>
      <trkpt lat="45.98335" lon="4.04857">
        <ele>347.65</ele>
        <time>2016-09-22T09:42:38Z</time>
      </trkpt>
      <trkpt lat="45.98352" lon="4.04883">
        <ele>348.13</ele>
        <time>2016-09-22T09:42:57Z</time>
      </trkpt>
      <trkpt lat="45.98371" lon="4.0491">
        <ele>348.62</ele>
        <time>2016-09-22T09:43:16Z</time>
      </trkpt>
      <trkpt lat="45.98389" lon="4.04924">
        <ele>350.06</ele>
        <time>2016-09-22T09:43:32Z</time>
      </trkpt>
      <trkpt lat="45.98391" lon="4.04926">
        <ele>350.06</ele>
        <time>2016-09-22T09:43:34Z</time>
      </trkpt>
      <trkpt lat="45.9841" lon="4.04932">
        <ele>351.02</ele>
        <time>2016-09-22T09:43:50Z</time>
      </trkpt>
      <trkpt lat="45.98437" lon="4.04939">
        <ele>351.98</ele>
        <time>2016-09-22T09:44:08Z</time>
      </trkpt>
      <trkpt lat="45.98467" lon="4.04943">
        <ele>354.86</ele>
        <time>2016-09-22T09:44:27Z</time>
      </trkpt>
      <trkpt lat="45.98493" lon="4.04953">
        <ele>358.23</ele>
        <time>2016-09-22T09:44:45Z</time>
      </trkpt>
      <trkpt lat="45.98514" lon="4.04975">
        <ele>357.75</ele>
        <time>2016-09-22T09:45:04Z</time>
      </trkpt>
      <trkpt lat="45.98524" lon="4.05012">
        <ele>357.27</ele>
        <time>2016-09-22T09:45:22Z</time>
      </trkpt>
      <trkpt lat="45.98522" lon="4.0505">
        <ele>358.71</ele>
        <time>2016-09-22T09:45:40Z</time>
      </trkpt>
      <trkpt lat="45.98517" lon="4.05082">
        <ele>358.23</ele>
        <time>2016-09-22T09:45:56Z</time>
      </trkpt>
      <trkpt lat="45.98517" lon="4.05116">
        <ele>360.15</ele>
        <time>2016-09-22T09:46:13Z</time>
      </trkpt>
      <trkpt lat="45.98528" lon="4.05136">
        <ele>362.55</ele>
        <time>2016-09-22T09:46:28Z</time>
      </trkpt>
      <trkpt lat="45.98551" lon="4.05139">
        <ele>365.92</ele>
        <time>2016-09-22T09:46:45Z</time>
      </trkpt>
      <trkpt lat="45.98575" lon="4.05128">
        <ele>367.36</ele>
        <time>2016-09-22T09:47:03Z</time>
      </trkpt>
      <trkpt lat="45.98601" lon="4.05132">
        <ele>365.44</ele>
        <time>2016-09-22T09:47:22Z</time>
      </trkpt>
      <trkpt lat="45.98614" lon="4.05131">
        <ele>367.36</ele>
        <time>2016-09-22T09:47:37Z</time>
      </trkpt>
      <trkpt lat="45.98616" lon="4.05128">
        <ele>367.84</ele>
        <time>2016-09-22T09:47:40Z</time>
      </trkpt>
      <trkpt lat="45.98622" lon="4.05121">
        <ele>371.69</ele>
        <time>2016-09-22T09:47:51Z</time>
      </trkpt>
      <trkpt lat="45.98628" lon="4.05135">
        <ele>374.57</ele>
        <time>2016-09-22T09:48:02Z</time>
      </trkpt>
      <trkpt lat="45.9863" lon="4.0514">
        <ele>376.97</ele>
        <time>2016-09-22T09:48:09Z</time>
      </trkpt>
      <trkpt lat="45.9864" lon="4.05146">
        <ele>382.26</ele>
        <time>2016-09-22T09:48:23Z</time>
      </trkpt>
      <trkpt lat="45.98645" lon="4.05148">
        <ele>384.66</ele>
        <time>2016-09-22T09:48:32Z</time>
      </trkpt>
      <trkpt lat="45.98651" lon="4.05148">
        <ele>386.11</ele>
        <time>2016-09-22T09:48:39Z</time>
      </trkpt>
      <trkpt lat="45.98657" lon="4.05144">
        <ele>385.63</ele>
        <time>2016-09-22T09:48:47Z</time>
      </trkpt>
      <trkpt lat="45.98658" lon="4.05143">
        <ele>386.11</ele>
        <time>2016-09-22T09:48:49Z</time>
      </trkpt>
      <trkpt lat="45.98659" lon="4.05122">
        <ele>387.07</ele>
        <time>2016-09-22T09:49:02Z</time>
      </trkpt>
      <trkpt lat="45.98668" lon="4.05112">
        <ele>387.55</ele>
        <time>2016-09-22T09:49:16Z</time>
      </trkpt>
      <trkpt lat="45.9867" lon="4.05112">
        <ele>387.55</ele>
        <time>2016-09-22T09:49:18Z</time>
      </trkpt>
      <trkpt lat="45.98683" lon="4.05113">
        <ele>387.07</ele>
        <time>2016-09-22T09:49:32Z</time>
      </trkpt>
      <trkpt lat="45.98685" lon="4.05114">
        <ele>386.59</ele>
        <time>2016-09-22T09:49:49Z</time>
      </trkpt>
      <trkpt lat="45.98685" lon="4.05114">
        <ele>387.07</ele>
        <time>2016-09-22T09:49:53Z</time>
      </trkpt>
      <trkpt lat="45.98688" lon="4.05121">
        <ele>388.03</ele>
        <time>2016-09-22T09:50:05Z</time>
      </trkpt>
      <trkpt lat="45.9869" lon="4.0512">
        <ele>388.51</ele>
        <time>2016-09-22T09:50:21Z</time>
      </trkpt>
      <trkpt lat="45.98692" lon="4.0512">
        <ele>388.99</ele>
        <time>2016-09-22T09:50:37Z</time>
      </trkpt>
      <trkpt lat="45.98693" lon="4.05119">
        <ele>388.99</ele>
        <time>2016-09-22T09:50:54Z</time>
      </trkpt>
      <trkpt lat="45.98693" lon="4.05118">
        <ele>388.99</ele>
        <time>2016-09-22T09:51:06Z</time>
      </trkpt>
      <trkpt lat="45.98691" lon="4.05119">
        <ele>389.47</ele>
        <time>2016-09-22T09:51:21Z</time>
      </trkpt>
      <trkpt lat="45.98691" lon="4.05117">
        <ele>389.95</ele>
        <time>2016-09-22T09:51:40Z</time>
      </trkpt>
      <trkpt lat="45.9869" lon="4.05116">
        <ele>388.99</ele>
        <time>2016-09-22T09:52:01Z</time>
      </trkpt>
      <trkpt lat="45.9869" lon="4.05115">
        <ele>388.51</ele>
        <time>2016-09-22T09:52:22Z</time>
      </trkpt>
      <trkpt lat="45.9869" lon="4.05115">
        <ele>388.51</ele>
        <time>2016-09-22T09:52:36Z</time>
      </trkpt>
      <trkpt lat="45.98691" lon="4.05114">
        <ele>388.51</ele>
        <time>2016-09-22T09:52:48Z</time>
      </trkpt>
      <trkpt lat="45.98691" lon="4.05113">
        <ele>388.03</ele>
        <time>2016-09-22T09:53:05Z</time>
      </trkpt>
      <trkpt lat="45.98691" lon="4.05113">
        <ele>388.03</ele>
        <time>2016-09-22T09:53:23Z</time>
      </trkpt>
      <trkpt lat="45.98691" lon="4.05113">
        <ele>388.51</ele>
        <time>2016-09-22T09:53:35Z</time>
      </trkpt>
      <trkpt lat="45.98692" lon="4.05113">
        <ele>388.03</ele>
        <time>2016-09-22T09:53:52Z</time>
      </trkpt>
      <trkpt lat="45.98692" lon="4.05113">
        <ele>388.03</ele>
        <time>2016-09-22T09:54:05Z</time>
      </trkpt>
      <trkpt lat="45.98692" lon="4.05113">
        <ele>388.03</ele>
        <time>2016-09-22T09:54:22Z</time>
      </trkpt>
      <trkpt lat="45.98692" lon="4.05113">
        <ele>388.03</ele>
        <time>2016-09-22T09:54:41Z</time>
      </trkpt>
      <trkpt lat="45.98692" lon="4.05118">
        <ele>387.55</ele>
        <time>2016-09-22T09:54:57Z</time>
      </trkpt>
      <trkpt lat="45.98687" lon="4.05118">
        <ele>387.07</ele>
        <time>2016-09-22T09:55:10Z</time>
      </trkpt>
      <trkpt lat="45.98686" lon="4.05117">
        <ele>386.59</ele>
        <time>2016-09-22T09:55:23Z</time>
      </trkpt>
      <trkpt lat="45.98687" lon="4.05112">
        <ele>385.63</ele>
        <time>2016-09-22T09:55:27Z</time>
      </trkpt>
      <trkpt lat="45.98688" lon="4.0511">
        <ele>385.63</ele>
        <time>2016-09-22T09:55:29Z</time>
      </trkpt>
      <trkpt lat="45.98698" lon="4.05097">
        <ele>384.66</ele>
        <time>2016-09-22T09:55:43Z</time>
      </trkpt>
      <trkpt lat="45.98713" lon="4.05103">
        <ele>383.7</ele>
        <time>2016-09-22T09:55:58Z</time>
      </trkpt>
      <trkpt lat="45.98718" lon="4.05106">
        <ele>382.26</ele>
        <time>2016-09-22T09:56:12Z</time>
      </trkpt>
      <trkpt lat="45.9873" lon="4.05115">
        <ele>380.34</ele>
        <time>2016-09-22T09:56:25Z</time>
      </trkpt>
      <trkpt lat="45.98757" lon="4.05126">
        <ele>375.05</ele>
        <time>2016-09-22T09:56:45Z</time>
      </trkpt>
      <trkpt lat="45.98774" lon="4.05146">
        <ele>373.13</ele>
        <time>2016-09-22T09:57:01Z</time>
      </trkpt>
      <trkpt lat="45.98775" lon="4.05148">
        <ele>373.61</ele>
        <time>2016-09-22T09:57:03Z</time>
      </trkpt>
      <trkpt lat="45.9879" lon="4.0516">
        <ele>376.01</ele>
        <time>2016-09-22T09:57:19Z</time>
      </trkpt>
      <trkpt lat="45.98798" lon="4.05162">
        <ele>376.97</ele>
        <time>2016-09-22T09:57:26Z</time>
      </trkpt>
      <trkpt lat="45.98823" lon="4.05158">
        <ele>377.94</ele>
        <time>2016-09-22T09:57:42Z</time>
      </trkpt>
      <trkpt lat="45.98838" lon="4.05162">
        <ele>379.38</ele>
        <time>2016-09-22T09:57:53Z</time>
      </trkpt>
      <trkpt lat="45.98857" lon="4.05163">
        <ele>382.26</ele>
        <time>2016-09-22T09:58:09Z</time>
      </trkpt>
      <trkpt lat="45.98877" lon="4.05168">
        <ele>384.66</ele>
        <time>2016-09-22T09:58:27Z</time>
      </trkpt>
      <trkpt lat="45.98897" lon="4.05166">
        <ele>383.7</ele>
        <time>2016-09-22T09:58:42Z</time>
      </trkpt>
      <trkpt lat="45.9892" lon="4.05182">
        <ele>380.82</ele>
        <time>2016-09-22T09:59:01Z</time>
      </trkpt>
      <trkpt lat="45.98933" lon="4.05207">
        <ele>377.45</ele>
        <time>2016-09-22T09:59:18Z</time>
      </trkpt>
      <trkpt lat="45.98933" lon="4.05237">
        <ele>375.05</ele>
        <time>2016-09-22T09:59:34Z</time>
      </trkpt>
      <trkpt lat="45.98927" lon="4.05249">
        <ele>373.13</ele>
        <time>2016-09-22T09:59:43Z</time>
      </trkpt>
      <trkpt lat="45.98921" lon="4.0525">
        <ele>371.69</ele>
        <time>2016-09-22T09:59:48Z</time>
      </trkpt>
      <trkpt lat="45.98917" lon="4.05253">
        <ele>369.76</ele>
        <time>2016-09-22T09:59:52Z</time>
      </trkpt>
      <trkpt lat="45.98924" lon="4.05264">
        <ele>367.36</ele>
        <time>2016-09-22T10:00:04Z</time>
      </trkpt>
      <trkpt lat="45.98932" lon="4.0527">
        <ele>364.96</ele>
        <time>2016-09-22T10:00:12Z</time>
      </trkpt>
      <trkpt lat="45.98939" lon="4.05263">
        <ele>364.48</ele>
        <time>2016-09-22T10:00:19Z</time>
      </trkpt>
      <trkpt lat="45.98949" lon="4.0524">
        <ele>363.04</ele>
        <time>2016-09-22T10:00:33Z</time>
      </trkpt>
      <trkpt lat="45.98955" lon="4.05208">
        <ele>361.59</ele>
        <time>2016-09-22T10:00:51Z</time>
      </trkpt>
      <trkpt lat="45.98955" lon="4.05206">
        <ele>361.59</ele>
        <time>2016-09-22T10:00:52Z</time>
      </trkpt>
      <trkpt lat="45.98958" lon="4.05175">
        <ele>357.75</ele>
        <time>2016-09-22T10:01:09Z</time>
      </trkpt>
      <trkpt lat="45.9895" lon="4.0514">
        <ele>357.75</ele>
        <time>2016-09-22T10:01:27Z</time>
      </trkpt>
      <trkpt lat="45.98933" lon="4.05115">
        <ele>355.34</ele>
        <time>2016-09-22T10:01:44Z</time>
      </trkpt>
      <trkpt lat="45.98909" lon="4.05101">
        <ele>351.02</ele>
        <time>2016-09-22T10:02:02Z</time>
      </trkpt>
      <trkpt lat="45.98889" lon="4.05097">
        <ele>347.65</ele>
        <time>2016-09-22T10:02:16Z</time>
      </trkpt>
      <trkpt lat="45.98886" lon="4.05096">
        <ele>347.65</ele>
        <time>2016-09-22T10:02:29Z</time>
      </trkpt>
      <trkpt lat="45.98863" lon="4.05094">
        <ele>345.73</ele>
        <time>2016-09-22T10:02:46Z</time>
      </trkpt>
      <trkpt lat="45.98838" lon="4.05091">
        <ele>341.89</ele>
        <time>2016-09-22T10:03:03Z</time>
      </trkpt>
      <trkpt lat="45.98817" lon="4.05079">
        <ele>338.52</ele>
        <time>2016-09-22T10:03:19Z</time>
      </trkpt>
      <trkpt lat="45.98801" lon="4.05057">
        <ele>335.16</ele>
        <time>2016-09-22T10:03:35Z</time>
      </trkpt>
      <trkpt lat="45.98778" lon="4.0503">
        <ele>333.71</ele>
        <time>2016-09-22T10:03:55Z</time>
      </trkpt>
      <trkpt lat="45.98757" lon="4.05011">
        <ele>331.31</ele>
        <time>2016-09-22T10:04:11Z</time>
      </trkpt>
      <trkpt lat="45.98737" lon="4.04998">
        <ele>329.87</ele>
        <time>2016-09-22T10:04:27Z</time>
      </trkpt>
      <trkpt lat="45.98712" lon="4.04991">
        <ele>325.54</ele>
        <time>2016-09-22T10:04:44Z</time>
      </trkpt>
      <trkpt lat="45.98691" lon="4.04984">
        <ele>322.18</ele>
        <time>2016-09-22T10:05:00Z</time>
      </trkpt>
      <trkpt lat="45.98675" lon="4.04978">
        <ele>322.66</ele>
        <time>2016-09-22T10:05:14Z</time>
      </trkpt>
      <trkpt lat="45.98661" lon="4.04963">
        <ele>323.14</ele>
        <time>2016-09-22T10:05:28Z</time>
      </trkpt>
      <trkpt lat="45.98651" lon="4.04932">
        <ele>322.66</ele>
        <time>2016-09-22T10:05:45Z</time>
      </trkpt>
      <trkpt lat="45.98642" lon="4.04896">
        <ele>326.5</ele>
        <time>2016-09-22T10:06:03Z</time>
      </trkpt>
      <trkpt lat="45.98639" lon="4.04884">
        <ele>328.43</ele>
        <time>2016-09-22T10:06:09Z</time>
      </trkpt>
      <trkpt lat="45.98634" lon="4.04854">
        <ele>332.75</ele>
        <time>2016-09-22T10:06:27Z</time>
      </trkpt>
      <trkpt lat="45.98631" lon="4.04827">
        <ele>332.27</ele>
        <time>2016-09-22T10:06:42Z</time>
      </trkpt>
      <trkpt lat="45.9863" lon="4.04793">
        <ele>333.71</ele>
        <time>2016-09-22T10:07:00Z</time>
      </trkpt>
      <trkpt lat="45.98632" lon="4.04783">
        <ele>331.79</ele>
        <time>2016-09-22T10:07:11Z</time>
      </trkpt>
      <trkpt lat="45.98632" lon="4.04782">
        <ele>331.31</ele>
        <time>2016-09-22T10:07:15Z</time>
      </trkpt>
      <trkpt lat="45.98632" lon="4.0478">
        <ele>331.79</ele>
        <time>2016-09-22T10:07:17Z</time>
      </trkpt>
      <trkpt lat="45.98637" lon="4.04745">
        <ele>333.71</ele>
        <time>2016-09-22T10:07:35Z</time>
      </trkpt>
      <trkpt lat="45.98639" lon="4.04733">
        <ele>328.91</ele>
        <time>2016-09-22T10:07:49Z</time>
      </trkpt>
      <trkpt lat="45.98643" lon="4.04719">
        <ele>329.39</ele>
        <time>2016-09-22T10:08:03Z</time>
      </trkpt>
      <trkpt lat="45.98648" lon="4.04707">
        <ele>329.87</ele>
        <time>2016-09-22T10:08:10Z</time>
      </trkpt>
      <trkpt lat="45.98651" lon="4.04696">
        <ele>328.91</ele>
        <time>2016-09-22T10:08:18Z</time>
      </trkpt>
      <trkpt lat="45.98661" lon="4.04673">
        <ele>331.31</ele>
        <time>2016-09-22T10:08:33Z</time>
      </trkpt>
      <trkpt lat="45.98662" lon="4.04664">
        <ele>330.83</ele>
        <time>2016-09-22T10:08:39Z</time>
      </trkpt>
      <trkpt lat="45.98661" lon="4.04658">
        <ele>328.91</ele>
        <time>2016-09-22T10:08:54Z</time>
      </trkpt>
      <trkpt lat="45.98661" lon="4.04656">
        <ele>327.47</ele>
        <time>2016-09-22T10:09:15Z</time>
      </trkpt>
      <trkpt lat="45.98661" lon="4.04655">
        <ele>327.47</ele>
        <time>2016-09-22T10:09:24Z</time>
      </trkpt>
      <trkpt lat="45.98678" lon="4.04618">
        <ele>327.47</ele>
        <time>2016-09-22T10:09:44Z</time>
      </trkpt>
      <trkpt lat="45.98691" lon="4.04587">
        <ele>326.99</ele>
        <time>2016-09-22T10:10:01Z</time>
      </trkpt>
      <trkpt lat="45.98704" lon="4.04557">
        <ele>327.95</ele>
        <time>2016-09-22T10:10:20Z</time>
      </trkpt>
      <trkpt lat="45.98716" lon="4.04529">
        <ele>329.87</ele>
        <time>2016-09-22T10:10:37Z</time>
      </trkpt>
      <trkpt lat="45.98728" lon="4.04501">
        <ele>329.87</ele>
        <time>2016-09-22T10:10:55Z</time>
      </trkpt>
      <trkpt lat="45.98729" lon="4.04499">
        <ele>329.87</ele>
        <time>2016-09-22T10:10:56Z</time>
      </trkpt>
      <trkpt lat="45.98732" lon="4.04493">
        <ele>329.87</ele>
        <time>2016-09-22T10:11:00Z</time>
      </trkpt>
      <trkpt lat="45.98746" lon="4.04459">
        <ele>332.27</ele>
        <time>2016-09-22T10:11:22Z</time>
      </trkpt>
      <trkpt lat="45.98749" lon="4.04451">
        <ele>330.83</ele>
        <time>2016-09-22T10:11:36Z</time>
      </trkpt>
      <trkpt lat="45.98755" lon="4.04436">
        <ele>329.87</ele>
        <time>2016-09-22T10:11:48Z</time>
      </trkpt>
      <trkpt lat="45.98759" lon="4.04424">
        <ele>329.87</ele>
        <time>2016-09-22T10:12:02Z</time>
      </trkpt>
      <trkpt lat="45.98759" lon="4.04415">
        <ele>330.35</ele>
        <time>2016-09-22T10:12:16Z</time>
      </trkpt>
      <trkpt lat="45.98757" lon="4.04402">
        <ele>329.87</ele>
        <time>2016-09-22T10:12:23Z</time>
      </trkpt>
      <trkpt lat="45.98755" lon="4.04397">
        <ele>329.87</ele>
        <time>2016-09-22T10:12:27Z</time>
      </trkpt>
      <trkpt lat="45.98743" lon="4.04372">
        <ele>330.35</ele>
        <time>2016-09-22T10:12:44Z</time>
      </trkpt>
      <trkpt lat="45.98726" lon="4.04356">
        <ele>332.75</ele>
        <time>2016-09-22T10:13:00Z</time>
      </trkpt>
      <trkpt lat="45.98723" lon="4.04333">
        <ele>332.27</ele>
        <time>2016-09-22T10:13:14Z</time>
      </trkpt>
      <trkpt lat="45.98728" lon="4.04304">
        <ele>333.23</ele>
        <time>2016-09-22T10:13:31Z</time>
      </trkpt>
      <trkpt lat="45.98734" lon="4.04277">
        <ele>335.64</ele>
        <time>2016-09-22T10:13:46Z</time>
      </trkpt>
      <trkpt lat="45.98741" lon="4.04251">
        <ele>337.56</ele>
        <time>2016-09-22T10:14:01Z</time>
      </trkpt>
      <trkpt lat="45.98747" lon="4.04222">
        <ele>340.92</ele>
        <time>2016-09-22T10:14:17Z</time>
      </trkpt>
      <trkpt lat="45.98753" lon="4.04188">
        <ele>344.29</ele>
        <time>2016-09-22T10:14:35Z</time>
      </trkpt>
      <trkpt lat="45.98761" lon="4.04158">
        <ele>344.29</ele>
        <time>2016-09-22T10:14:50Z</time>
      </trkpt>
      <trkpt lat="45.98767" lon="4.04145">
        <ele>343.33</ele>
        <time>2016-09-22T10:14:58Z</time>
      </trkpt>
      <trkpt lat="45.98783" lon="4.04124">
        <ele>344.29</ele>
        <time>2016-09-22T10:15:13Z</time>
      </trkpt>
      <trkpt lat="45.98797" lon="4.04109">
        <ele>344.29</ele>
        <time>2016-09-22T10:15:27Z</time>
      </trkpt>
      <trkpt lat="45.98816" lon="4.04091">
        <ele>347.17</ele>
        <time>2016-09-22T10:15:44Z</time>
      </trkpt>
      <trkpt lat="45.98825" lon="4.04061">
        <ele>350.54</ele>
        <time>2016-09-22T10:16:01Z</time>
      </trkpt>
      <trkpt lat="45.98831" lon="4.0405">
        <ele>351.02</ele>
        <time>2016-09-22T10:16:08Z</time>
      </trkpt>
      <trkpt lat="45.98849" lon="4.0404">
        <ele>355.34</ele>
        <time>2016-09-22T10:16:23Z</time>
      </trkpt>
      <trkpt lat="45.9887" lon="4.04028">
        <ele>357.27</ele>
        <time>2016-09-22T10:16:39Z</time>
      </trkpt>
      <trkpt lat="45.98893" lon="4.04015">
        <ele>357.27</ele>
        <time>2016-09-22T10:16:56Z</time>
      </trkpt>
      <trkpt lat="45.98906" lon="4.04007">
        <ele>356.31</ele>
        <time>2016-09-22T10:17:07Z</time>
      </trkpt>
      <trkpt lat="45.98918" lon="4.0399">
        <ele>357.27</ele>
        <time>2016-09-22T10:17:22Z</time>
      </trkpt>
      <trkpt lat="45.98918" lon="4.03987">
        <ele>357.75</ele>
        <time>2016-09-22T10:17:24Z</time>
      </trkpt>
      <trkpt lat="45.98919" lon="4.03977">
        <ele>359.19</ele>
        <time>2016-09-22T10:17:31Z</time>
      </trkpt>
      <trkpt lat="45.98921" lon="4.0397">
        <ele>360.63</ele>
        <time>2016-09-22T10:17:36Z</time>
      </trkpt>
      <trkpt lat="45.98938" lon="4.03982">
        <ele>363.04</ele>
        <time>2016-09-22T10:17:52Z</time>
      </trkpt>
      <trkpt lat="45.98954" lon="4.03982">
        <ele>363.52</ele>
        <time>2016-09-22T10:18:06Z</time>
      </trkpt>
      <trkpt lat="45.98972" lon="4.0397">
        <ele>364</ele>
        <time>2016-09-22T10:18:22Z</time>
      </trkpt>
      <trkpt lat="45.98993" lon="4.03956">
        <ele>365.44</ele>
        <time>2016-09-22T10:18:39Z</time>
      </trkpt>
      <trkpt lat="45.99" lon="4.03953">
        <ele>364.96</ele>
        <time>2016-09-22T10:18:45Z</time>
      </trkpt>
      <trkpt lat="45.9901" lon="4.03947">
        <ele>365.92</ele>
        <time>2016-09-22T10:18:53Z</time>
      </trkpt>
      <trkpt lat="45.99027" lon="4.03938">
        <ele>364.48</ele>
        <time>2016-09-22T10:19:07Z</time>
      </trkpt>
      <trkpt lat="45.99046" lon="4.03928">
        <ele>367.36</ele>
        <time>2016-09-22T10:19:22Z</time>
      </trkpt>
      <trkpt lat="45.99066" lon="4.03923">
        <ele>373.13</ele>
        <time>2016-09-22T10:19:38Z</time>
      </trkpt>
      <trkpt lat="45.99071" lon="4.03924">
        <ele>374.57</ele>
        <time>2016-09-22T10:19:43Z</time>
      </trkpt>
      <trkpt lat="45.99089" lon="4.03932">
        <ele>377.94</ele>
        <time>2016-09-22T10:19:58Z</time>
      </trkpt>
      <trkpt lat="45.99108" lon="4.03926">
        <ele>374.57</ele>
        <time>2016-09-22T10:20:11Z</time>
      </trkpt>
      <trkpt lat="45.99128" lon="4.03935">
        <ele>373.61</ele>
        <time>2016-09-22T10:20:25Z</time>
      </trkpt>
      <trkpt lat="45.99144" lon="4.0393">
        <ele>365.44</ele>
        <time>2016-09-22T10:20:39Z</time>
      </trkpt>
      <trkpt lat="45.99146" lon="4.03926">
        <ele>364.48</ele>
        <time>2016-09-22T10:20:52Z</time>
      </trkpt>
      <trkpt lat="45.99156" lon="4.03927">
        <ele>365.92</ele>
        <time>2016-09-22T10:21:08Z</time>
      </trkpt>
      <trkpt lat="45.9917" lon="4.03927">
        <ele>368.32</ele>
        <time>2016-09-22T10:21:20Z</time>
      </trkpt>
      <trkpt lat="45.99183" lon="4.03926">
        <ele>373.61</ele>
        <time>2016-09-22T10:21:34Z</time>
      </trkpt>
      <trkpt lat="45.99207" lon="4.03907">
        <ele>372.65</ele>
        <time>2016-09-22T10:21:52Z</time>
      </trkpt>
      <trkpt lat="45.99225" lon="4.03889">
        <ele>367.84</ele>
        <time>2016-09-22T10:22:06Z</time>
      </trkpt>
      <trkpt lat="45.99226" lon="4.03888">
        <ele>367.84</ele>
        <time>2016-09-22T10:22:07Z</time>
      </trkpt>
      <trkpt lat="45.99244" lon="4.03883">
        <ele>369.76</ele>
        <time>2016-09-22T10:22:22Z</time>
      </trkpt>
      <trkpt lat="45.99257" lon="4.03883">
        <ele>375.53</ele>
        <time>2016-09-22T10:22:35Z</time>
      </trkpt>
      <trkpt lat="45.99265" lon="4.0388">
        <ele>382.26</ele>
        <time>2016-09-22T10:22:44Z</time>
      </trkpt>
      <trkpt lat="45.9927" lon="4.03877">
        <ele>384.18</ele>
        <time>2016-09-22T10:22:48Z</time>
      </trkpt>
      <trkpt lat="45.99288" lon="4.03875">
        <ele>388.99</ele>
        <time>2016-09-22T10:23:06Z</time>
      </trkpt>
      <trkpt lat="45.99289" lon="4.03877">
        <ele>388.51</ele>
        <time>2016-09-22T10:23:23Z</time>
      </trkpt>
      <trkpt lat="45.99294" lon="4.03879">
        <ele>387.07</ele>
        <time>2016-09-22T10:23:36Z</time>
      </trkpt>
      <trkpt lat="45.99294" lon="4.03878">
        <ele>386.11</ele>
        <time>2016-09-22T10:23:57Z</time>
      </trkpt>
      <trkpt lat="45.99295" lon="4.03877">
        <ele>385.15</ele>
        <time>2016-09-22T10:24:13Z</time>
      </trkpt>
      <trkpt lat="45.99297" lon="4.03876">
        <ele>383.7</ele>
        <time>2016-09-22T10:24:26Z</time>
      </trkpt>
      <trkpt lat="45.99308" lon="4.03865">
        <ele>379.86</ele>
        <time>2016-09-22T10:24:40Z</time>
      </trkpt>
      <trkpt lat="45.9932" lon="4.03859">
        <ele>380.82</ele>
        <time>2016-09-22T10:24:56Z</time>
      </trkpt>
      <trkpt lat="45.99333" lon="4.03844">
        <ele>376.97</ele>
        <time>2016-09-22T10:25:11Z</time>
      </trkpt>
      <trkpt lat="45.99343" lon="4.03837">
        <ele>384.66</ele>
        <time>2016-09-22T10:25:26Z</time>
      </trkpt>
      <trkpt lat="45.99345" lon="4.03837">
        <ele>386.59</ele>
        <time>2016-09-22T10:25:29Z</time>
      </trkpt>
      <trkpt lat="45.99363" lon="4.03838">
        <ele>389.47</ele>
        <time>2016-09-22T10:25:45Z</time>
      </trkpt>
      <trkpt lat="45.99376" lon="4.0383">
        <ele>392.84</ele>
        <time>2016-09-22T10:26:00Z</time>
      </trkpt>
      <trkpt lat="45.99392" lon="4.03828">
        <ele>385.15</ele>
        <time>2016-09-22T10:26:13Z</time>
      </trkpt>
      <trkpt lat="45.99395" lon="4.03827">
        <ele>383.22</ele>
        <time>2016-09-22T10:26:27Z</time>
      </trkpt>
      <trkpt lat="45.99399" lon="4.03835">
        <ele>381.3</ele>
        <time>2016-09-22T10:26:43Z</time>
      </trkpt>
      <trkpt lat="45.99402" lon="4.03846">
        <ele>379.38</ele>
        <time>2016-09-22T10:26:57Z</time>
      </trkpt>
      <trkpt lat="45.99405" lon="4.03851">
        <ele>378.9</ele>
        <time>2016-09-22T10:27:13Z</time>
      </trkpt>
      <trkpt lat="45.99412" lon="4.03859">
        <ele>380.34</ele>
        <time>2016-09-22T10:27:27Z</time>
      </trkpt>
      <trkpt lat="45.99423" lon="4.03862">
        <ele>382.74</ele>
        <time>2016-09-22T10:27:42Z</time>
      </trkpt>
      <trkpt lat="45.99427" lon="4.03864">
        <ele>383.7</ele>
        <time>2016-09-22T10:27:56Z</time>
      </trkpt>
      <trkpt lat="45.9943" lon="4.03864">
        <ele>383.22</ele>
        <time>2016-09-22T10:28:12Z</time>
      </trkpt>
      <trkpt lat="45.9943" lon="4.03864">
        <ele>380.34</ele>
        <time>2016-09-22T10:28:34Z</time>
      </trkpt>
      <trkpt lat="45.99428" lon="4.03861">
        <ele>378.9</ele>
        <time>2016-09-22T10:28:41Z</time>
      </trkpt>
      <trkpt lat="45.99428" lon="4.03854">
        <ele>378.42</ele>
        <time>2016-09-22T10:28:48Z</time>
      </trkpt>
      <trkpt lat="45.99428" lon="4.03852">
        <ele>378.9</ele>
        <time>2016-09-22T10:28:50Z</time>
      </trkpt>
      <trkpt lat="45.99426" lon="4.03833">
        <ele>377.45</ele>
        <time>2016-09-22T10:29:04Z</time>
      </trkpt>
      <trkpt lat="45.99422" lon="4.03827">
        <ele>375.53</ele>
        <time>2016-09-22T10:29:18Z</time>
      </trkpt>
      <trkpt lat="45.99422" lon="4.03822">
        <ele>375.05</ele>
        <time>2016-09-22T10:29:35Z</time>
      </trkpt>
      <trkpt lat="45.99424" lon="4.03819">
        <ele>372.17</ele>
        <time>2016-09-22T10:29:56Z</time>
      </trkpt>
      <trkpt lat="45.99432" lon="4.03811">
        <ele>371.69</ele>
        <time>2016-09-22T10:30:09Z</time>
      </trkpt>
      <trkpt lat="45.99437" lon="4.03803">
        <ele>376.97</ele>
        <time>2016-09-22T10:30:24Z</time>
      </trkpt>
      <trkpt lat="45.99441" lon="4.03801">
        <ele>376.97</ele>
        <time>2016-09-22T10:30:36Z</time>
      </trkpt>
      <trkpt lat="45.9945" lon="4.03789">
        <ele>372.65</ele>
        <time>2016-09-22T10:30:53Z</time>
      </trkpt>
      <trkpt lat="45.99451" lon="4.03785">
        <ele>371.69</ele>
        <time>2016-09-22T10:31:09Z</time>
      </trkpt>
      <trkpt lat="45.99451" lon="4.03781">
        <ele>373.13</ele>
        <time>2016-09-22T10:31:22Z</time>
      </trkpt>
      <trkpt lat="45.99452" lon="4.03777">
        <ele>372.17</ele>
        <time>2016-09-22T10:31:41Z</time>
      </trkpt>
      <trkpt lat="45.99453" lon="4.03778">
        <ele>372.65</ele>
        <time>2016-09-22T10:31:53Z</time>
      </trkpt>
      <trkpt lat="45.99454" lon="4.0378">
        <ele>373.13</ele>
        <time>2016-09-22T10:32:18Z</time>
      </trkpt>
      <trkpt lat="45.99454" lon="4.0378">
        <ele>373.13</ele>
        <time>2016-09-22T10:32:25Z</time>
      </trkpt>
      <trkpt lat="45.99444" lon="4.03769">
        <ele>373.13</ele>
        <time>2016-09-22T10:32:41Z</time>
      </trkpt>
      <trkpt lat="45.99428" lon="4.03757">
        <ele>374.09</ele>
        <time>2016-09-22T10:32:58Z</time>
      </trkpt>
      <trkpt lat="45.99427" lon="4.03756">
        <ele>374.57</ele>
        <time>2016-09-22T10:32:59Z</time>
      </trkpt>
      <trkpt lat="45.9941" lon="4.03748">
        <ele>376.97</ele>
        <time>2016-09-22T10:33:15Z</time>
      </trkpt>
      <trkpt lat="45.99392" lon="4.03748">
        <ele>377.45</ele>
        <time>2016-09-22T10:33:30Z</time>
      </trkpt>
      <trkpt lat="45.99372" lon="4.03755">
        <ele>375.53</ele>
        <time>2016-09-22T10:33:46Z</time>
      </trkpt>
      <trkpt lat="45.99356" lon="4.03767">
        <ele>374.57</ele>
        <time>2016-09-22T10:34:03Z</time>
      </trkpt>
      <trkpt lat="45.99354" lon="4.03766">
        <ele>373.61</ele>
        <time>2016-09-22T10:34:18Z</time>
      </trkpt>
      <trkpt lat="45.99353" lon="4.0377">
        <ele>371.69</ele>
        <time>2016-09-22T10:34:35Z</time>
      </trkpt>
      <trkpt lat="45.99353" lon="4.03772">
        <ele>370.24</ele>
        <time>2016-09-22T10:34:49Z</time>
      </trkpt>
      <trkpt lat="45.99354" lon="4.03771">
        <ele>369.76</ele>
        <time>2016-09-22T10:35:06Z</time>
      </trkpt>
      <trkpt lat="45.99354" lon="4.03771">
        <ele>369.28</ele>
        <time>2016-09-22T10:35:34Z</time>
      </trkpt>
      <trkpt lat="45.99355" lon="4.03771">
        <ele>368.32</ele>
        <time>2016-09-22T10:35:54Z</time>
      </trkpt>
      <trkpt lat="45.99353" lon="4.03771">
        <ele>368.32</ele>
        <time>2016-09-22T10:36:18Z</time>
      </trkpt>
      <trkpt lat="45.99352" lon="4.0377">
        <ele>368.8</ele>
        <time>2016-09-22T10:36:19Z</time>
      </trkpt>
      <trkpt lat="45.99338" lon="4.03769">
        <ele>370.24</ele>
        <time>2016-09-22T10:36:32Z</time>
      </trkpt>
      <trkpt lat="45.99326" lon="4.03768">
        <ele>371.21</ele>
        <time>2016-09-22T10:36:47Z</time>
      </trkpt>
      <trkpt lat="45.99301" lon="4.0376">
        <ele>379.38</ele>
        <time>2016-09-22T10:37:04Z</time>
      </trkpt>
      <trkpt lat="45.99296" lon="4.03743">
        <ele>384.18</ele>
        <time>2016-09-22T10:37:18Z</time>
      </trkpt>
      <trkpt lat="45.99276" lon="4.03721">
        <ele>382.74</ele>
        <time>2016-09-22T10:37:37Z</time>
      </trkpt>
      <trkpt lat="45.99267" lon="4.03705">
        <ele>379.86</ele>
        <time>2016-09-22T10:37:53Z</time>
      </trkpt>
      <trkpt lat="45.99264" lon="4.03702">
        <ele>377.94</ele>
        <time>2016-09-22T10:38:00Z</time>
      </trkpt>
      <trkpt lat="45.99263" lon="4.03695">
        <ele>375.53</ele>
        <time>2016-09-22T10:38:04Z</time>
      </trkpt>
      <trkpt lat="45.99259" lon="4.03665">
        <ele>374.09</ele>
        <time>2016-09-22T10:38:20Z</time>
      </trkpt>
      <trkpt lat="45.99259" lon="4.03641">
        <ele>375.05</ele>
        <time>2016-09-22T10:38:33Z</time>
      </trkpt>
      <trkpt lat="45.99258" lon="4.03612">
        <ele>372.65</ele>
        <time>2016-09-22T10:38:47Z</time>
      </trkpt>
      <trkpt lat="45.99259" lon="4.0361">
        <ele>372.17</ele>
        <time>2016-09-22T10:38:48Z</time>
      </trkpt>
      <trkpt lat="45.99262" lon="4.03594">
        <ele>371.21</ele>
        <time>2016-09-22T10:38:55Z</time>
      </trkpt>
      <trkpt lat="45.9926" lon="4.0359">
        <ele>371.69</ele>
        <time>2016-09-22T10:38:57Z</time>
      </trkpt>
      <trkpt lat="45.99254" lon="4.03576">
        <ele>370.73</ele>
        <time>2016-09-22T10:39:05Z</time>
      </trkpt>
      <trkpt lat="45.99239" lon="4.03547">
        <ele>365.44</ele>
        <time>2016-09-22T10:39:22Z</time>
      </trkpt>
      <trkpt lat="45.99215" lon="4.03531">
        <ele>361.11</ele>
        <time>2016-09-22T10:39:40Z</time>
      </trkpt>
      <trkpt lat="45.99197" lon="4.03516">
        <ele>358.71</ele>
        <time>2016-09-22T10:39:55Z</time>
      </trkpt>
      <trkpt lat="45.99184" lon="4.03504">
        <ele>357.75</ele>
        <time>2016-09-22T10:40:07Z</time>
      </trkpt>
      <trkpt lat="45.99166" lon="4.03485">
        <ele>357.75</ele>
        <time>2016-09-22T10:40:23Z</time>
      </trkpt>
      <trkpt lat="45.99146" lon="4.03468">
        <ele>356.79</ele>
        <time>2016-09-22T10:40:38Z</time>
      </trkpt>
      <trkpt lat="45.99126" lon="4.03452">
        <ele>355.83</ele>
        <time>2016-09-22T10:40:55Z</time>
      </trkpt>
      <trkpt lat="45.9912" lon="4.03426">
        <ele>354.86</ele>
        <time>2016-09-22T10:41:10Z</time>
      </trkpt>
      <trkpt lat="45.9912" lon="4.03422">
        <ele>354.38</ele>
        <time>2016-09-22T10:41:12Z</time>
      </trkpt>
      <trkpt lat="45.99122" lon="4.03414">
        <ele>352.46</ele>
        <time>2016-09-22T10:41:16Z</time>
      </trkpt>
      <trkpt lat="45.99113" lon="4.03388">
        <ele>351.5</ele>
        <time>2016-09-22T10:41:31Z</time>
      </trkpt>
      <trkpt lat="45.99115" lon="4.0336">
        <ele>350.06</ele>
        <time>2016-09-22T10:41:45Z</time>
      </trkpt>
      <trkpt lat="45.99113" lon="4.03353">
        <ele>350.06</ele>
        <time>2016-09-22T10:41:49Z</time>
      </trkpt>
      <trkpt lat="45.99105" lon="4.0332">
        <ele>351.02</ele>
        <time>2016-09-22T10:42:06Z</time>
      </trkpt>
      <trkpt lat="45.99096" lon="4.03284">
        <ele>351.98</ele>
        <time>2016-09-22T10:42:25Z</time>
      </trkpt>
      <trkpt lat="45.99091" lon="4.03257">
        <ele>353.9</ele>
        <time>2016-09-22T10:42:40Z</time>
      </trkpt>
      <trkpt lat="45.99086" lon="4.03229">
        <ele>355.83</ele>
        <time>2016-09-22T10:42:55Z</time>
      </trkpt>
      <trkpt lat="45.99082" lon="4.03197">
        <ele>358.71</ele>
        <time>2016-09-22T10:43:12Z</time>
      </trkpt>
      <trkpt lat="45.99081" lon="4.03162">
        <ele>357.27</ele>
        <time>2016-09-22T10:43:29Z</time>
      </trkpt>
      <trkpt lat="45.99079" lon="4.03136">
        <ele>357.75</ele>
        <time>2016-09-22T10:43:43Z</time>
      </trkpt>
      <trkpt lat="45.99078" lon="4.03126">
        <ele>357.27</ele>
        <time>2016-09-22T10:43:48Z</time>
      </trkpt>
      <trkpt lat="45.99076" lon="4.03084">
        <ele>359.19</ele>
        <time>2016-09-22T10:44:08Z</time>
      </trkpt>
      <trkpt lat="45.99073" lon="4.03049">
        <ele>360.15</ele>
        <time>2016-09-22T10:44:25Z</time>
      </trkpt>
      <trkpt lat="45.99071" lon="4.03015">
        <ele>359.67</ele>
        <time>2016-09-22T10:44:42Z</time>
      </trkpt>
      <trkpt lat="45.99067" lon="4.02987">
        <ele>360.63</ele>
        <time>2016-09-22T10:44:58Z</time>
      </trkpt>
      <trkpt lat="45.99062" lon="4.02958">
        <ele>363.04</ele>
        <time>2016-09-22T10:45:15Z</time>
      </trkpt>
      <trkpt lat="45.99059" lon="4.02925">
        <ele>364</ele>
        <time>2016-09-22T10:45:31Z</time>
      </trkpt>
      <trkpt lat="45.99053" lon="4.02897">
        <ele>364.96</ele>
        <time>2016-09-22T10:45:46Z</time>
      </trkpt>
      <trkpt lat="45.99047" lon="4.02865">
        <ele>367.36</ele>
        <time>2016-09-22T10:46:03Z</time>
      </trkpt>
      <trkpt lat="45.99041" lon="4.02837">
        <ele>369.28</ele>
        <time>2016-09-22T10:46:18Z</time>
      </trkpt>
      <trkpt lat="45.99036" lon="4.02809">
        <ele>373.61</ele>
        <time>2016-09-22T10:46:34Z</time>
      </trkpt>
      <trkpt lat="45.99031" lon="4.0278">
        <ele>376.97</ele>
        <time>2016-09-22T10:46:50Z</time>
      </trkpt>
      <trkpt lat="45.99027" lon="4.02748">
        <ele>378.42</ele>
        <time>2016-09-22T10:47:07Z</time>
      </trkpt>
      <trkpt lat="45.99026" lon="4.02734">
        <ele>378.42</ele>
        <time>2016-09-22T10:47:15Z</time>
      </trkpt>
      <trkpt lat="45.99023" lon="4.02703">
        <ele>379.38</ele>
        <time>2016-09-22T10:47:32Z</time>
      </trkpt>
      <trkpt lat="45.99021" lon="4.02676">
        <ele>379.86</ele>
        <time>2016-09-22T10:47:46Z</time>
      </trkpt>
      <trkpt lat="45.9902" lon="4.02647">
        <ele>381.78</ele>
        <time>2016-09-22T10:48:01Z</time>
      </trkpt>
      <trkpt lat="45.99023" lon="4.02617">
        <ele>382.74</ele>
        <time>2016-09-22T10:48:17Z</time>
      </trkpt>
      <trkpt lat="45.99027" lon="4.02593">
        <ele>385.15</ele>
        <time>2016-09-22T10:48:32Z</time>
      </trkpt>
      <trkpt lat="45.99035" lon="4.0259">
        <ele>387.07</ele>
        <time>2016-09-22T10:48:45Z</time>
      </trkpt>
      <trkpt lat="45.99037" lon="4.02601">
        <ele>387.07</ele>
        <time>2016-09-22T10:48:59Z</time>
      </trkpt>
      <trkpt lat="45.99037" lon="4.02606">
        <ele>386.11</ele>
        <time>2016-09-22T10:49:16Z</time>
      </trkpt>
      <trkpt lat="45.99039" lon="4.02611">
        <ele>385.63</ele>
        <time>2016-09-22T10:49:27Z</time>
      </trkpt>
      <trkpt lat="45.99038" lon="4.0261">
        <ele>384.18</ele>
        <time>2016-09-22T10:49:43Z</time>
      </trkpt>
      <trkpt lat="45.99037" lon="4.0261">
        <ele>382.74</ele>
        <time>2016-09-22T10:50:15Z</time>
      </trkpt>
      <trkpt lat="45.99037" lon="4.0261">
        <ele>382.74</ele>
        <time>2016-09-22T10:50:35Z</time>
      </trkpt>
      <trkpt lat="45.99037" lon="4.02611">
        <ele>382.74</ele>
        <time>2016-09-22T10:51:06Z</time>
      </trkpt>
      <trkpt lat="45.99037" lon="4.02611">
        <ele>382.74</ele>
        <time>2016-09-22T10:51:44Z</time>
      </trkpt>
      <trkpt lat="45.99037" lon="4.02611">
        <ele>383.22</ele>
        <time>2016-09-22T10:52:00Z</time>
      </trkpt>
      <trkpt lat="45.99037" lon="4.02612">
        <ele>383.22</ele>
        <time>2016-09-22T10:52:26Z</time>
      </trkpt>
      <trkpt lat="45.99037" lon="4.02612">
        <ele>382.74</ele>
        <time>2016-09-22T10:53:07Z</time>
      </trkpt>
      <trkpt lat="45.99037" lon="4.02612">
        <ele>382.74</ele>
        <time>2016-09-22T10:53:40Z</time>
      </trkpt>
      <trkpt lat="45.99036" lon="4.02612">
        <ele>382.74</ele>
        <time>2016-09-22T10:54:18Z</time>
      </trkpt>
      <trkpt lat="45.99036" lon="4.02613">
        <ele>382.26</ele>
        <time>2016-09-22T10:54:57Z</time>
      </trkpt>
      <trkpt lat="45.99036" lon="4.02612">
        <ele>382.26</ele>
        <time>2016-09-22T10:55:37Z</time>
      </trkpt>
      <trkpt lat="45.99036" lon="4.02612">
        <ele>381.78</ele>
        <time>2016-09-22T10:56:21Z</time>
      </trkpt>
      <trkpt lat="45.99036" lon="4.02611">
        <ele>383.22</ele>
        <time>2016-09-22T10:57:07Z</time>
      </trkpt>
      <trkpt lat="45.99036" lon="4.02611">
        <ele>383.7</ele>
        <time>2016-09-22T10:57:39Z</time>
      </trkpt>
      <trkpt lat="45.99036" lon="4.02612">
        <ele>383.7</ele>
        <time>2016-09-22T10:58:08Z</time>
      </trkpt>
      <trkpt lat="45.99036" lon="4.02612">
        <ele>382.74</ele>
        <time>2016-09-22T10:58:42Z</time>
      </trkpt>
      <trkpt lat="45.99036" lon="4.02613">
        <ele>383.22</ele>
        <time>2016-09-22T10:59:01Z</time>
      </trkpt>
      <trkpt lat="45.99036" lon="4.02614">
        <ele>384.18</ele>
        <time>2016-09-22T10:59:38Z</time>
      </trkpt>
      <trkpt lat="45.99035" lon="4.02614">
        <ele>384.66</ele>
        <time>2016-09-22T11:00:23Z</time>
      </trkpt>
      <trkpt lat="45.99035" lon="4.02613">
        <ele>385.15</ele>
        <time>2016-09-22T11:00:55Z</time>
      </trkpt>
      <trkpt lat="45.99035" lon="4.02614">
        <ele>385.15</ele>
        <time>2016-09-22T11:01:32Z</time>
      </trkpt>
      <trkpt lat="45.99034" lon="4.02612">
        <ele>385.15</ele>
        <time>2016-09-22T11:02:12Z</time>
      </trkpt>
      <trkpt lat="45.99034" lon="4.02611">
        <ele>385.15</ele>
        <time>2016-09-22T11:02:45Z</time>
      </trkpt>
      <trkpt lat="45.99033" lon="4.02611">
        <ele>385.63</ele>
        <time>2016-09-22T11:03:21Z</time>
      </trkpt>
      <trkpt lat="45.99034" lon="4.02611">
        <ele>385.63</ele>
        <time>2016-09-22T11:03:46Z</time>
      </trkpt>
      <trkpt lat="45.99033" lon="4.02613">
        <ele>387.07</ele>
        <time>2016-09-22T11:04:15Z</time>
      </trkpt>
      <trkpt lat="45.99033" lon="4.02613">
        <ele>387.55</ele>
        <time>2016-09-22T11:04:46Z</time>
      </trkpt>
      <trkpt lat="45.99033" lon="4.02613">
        <ele>387.55</ele>
        <time>2016-09-22T11:05:11Z</time>
      </trkpt>
      <trkpt lat="45.99033" lon="4.02615">
        <ele>388.51</ele>
        <time>2016-09-22T11:05:41Z</time>
      </trkpt>
      <trkpt lat="45.99033" lon="4.02614">
        <ele>388.99</ele>
        <time>2016-09-22T11:06:11Z</time>
      </trkpt>
      <trkpt lat="45.99033" lon="4.02614">
        <ele>388.99</ele>
        <time>2016-09-22T11:06:41Z</time>
      </trkpt>
      <trkpt lat="45.99033" lon="4.02614">
        <ele>389.47</ele>
        <time>2016-09-22T11:07:12Z</time>
      </trkpt>
      <trkpt lat="45.99033" lon="4.02614">
        <ele>389.95</ele>
        <time>2016-09-22T11:07:48Z</time>
      </trkpt>
      <trkpt lat="45.99033" lon="4.02615">
        <ele>389.47</ele>
        <time>2016-09-22T11:08:23Z</time>
      </trkpt>
      <trkpt lat="45.99033" lon="4.02616">
        <ele>390.43</ele>
        <time>2016-09-22T11:08:48Z</time>
      </trkpt>
      <trkpt lat="45.99033" lon="4.02616">
        <ele>389.95</ele>
        <time>2016-09-22T11:09:24Z</time>
      </trkpt>
      <trkpt lat="45.99033" lon="4.02616">
        <ele>390.43</ele>
        <time>2016-09-22T11:10:00Z</time>
      </trkpt>
      <trkpt lat="45.99033" lon="4.02616">
        <ele>391.39</ele>
        <time>2016-09-22T11:10:44Z</time>
      </trkpt>
      <trkpt lat="45.99032" lon="4.02613">
        <ele>392.36</ele>
        <time>2016-09-22T11:11:34Z</time>
      </trkpt>
      <trkpt lat="45.99032" lon="4.02614">
        <ele>391.87</ele>
        <time>2016-09-22T11:12:10Z</time>
      </trkpt>
      <trkpt lat="45.99033" lon="4.02614">
        <ele>391.39</ele>
        <time>2016-09-22T11:12:38Z</time>
      </trkpt>
      <trkpt lat="45.99032" lon="4.02613">
        <ele>390.91</ele>
        <time>2016-09-22T11:13:08Z</time>
      </trkpt>
      <trkpt lat="45.99032" lon="4.02614">
        <ele>391.39</ele>
        <time>2016-09-22T11:13:40Z</time>
      </trkpt>
      <trkpt lat="45.99032" lon="4.02613">
        <ele>391.87</ele>
        <time>2016-09-22T11:14:15Z</time>
      </trkpt>
      <trkpt lat="45.99033" lon="4.02612">
        <ele>390.91</ele>
        <time>2016-09-22T11:14:52Z</time>
      </trkpt>
      <trkpt lat="45.99033" lon="4.02612">
        <ele>389.47</ele>
        <time>2016-09-22T11:15:23Z</time>
      </trkpt>
      <trkpt lat="45.99034" lon="4.02611">
        <ele>388.99</ele>
        <time>2016-09-22T11:15:55Z</time>
      </trkpt>
      <trkpt lat="45.99034" lon="4.02611">
        <ele>388.03</ele>
        <time>2016-09-22T11:16:21Z</time>
      </trkpt>
      <trkpt lat="45.99034" lon="4.0261">
        <ele>388.03</ele>
        <time>2016-09-22T11:16:52Z</time>
      </trkpt>
      <trkpt lat="45.99035" lon="4.02612">
        <ele>387.55</ele>
        <time>2016-09-22T11:17:24Z</time>
      </trkpt>
      <trkpt lat="45.99035" lon="4.02613">
        <ele>388.51</ele>
        <time>2016-09-22T11:18:08Z</time>
      </trkpt>
      <trkpt lat="45.99034" lon="4.02613">
        <ele>388.03</ele>
        <time>2016-09-22T11:18:41Z</time>
      </trkpt>
      <trkpt lat="45.99035" lon="4.02613">
        <ele>388.03</ele>
        <time>2016-09-22T11:19:20Z</time>
      </trkpt>
      <trkpt lat="45.99035" lon="4.02611">
        <ele>387.07</ele>
        <time>2016-09-22T11:20:04Z</time>
      </trkpt>
      <trkpt lat="45.99034" lon="4.0261">
        <ele>387.55</ele>
        <time>2016-09-22T11:20:38Z</time>
      </trkpt>
      <trkpt lat="45.99033" lon="4.0261">
        <ele>388.03</ele>
        <time>2016-09-22T11:21:05Z</time>
      </trkpt>
      <trkpt lat="45.99034" lon="4.02611">
        <ele>388.03</ele>
        <time>2016-09-22T11:21:46Z</time>
      </trkpt>
      <trkpt lat="45.99033" lon="4.02611">
        <ele>388.03</ele>
        <time>2016-09-22T11:22:27Z</time>
      </trkpt>
      <trkpt lat="45.99034" lon="4.02611">
        <ele>386.59</ele>
        <time>2016-09-22T11:23:05Z</time>
      </trkpt>
      <trkpt lat="45.99034" lon="4.02612">
        <ele>386.11</ele>
        <time>2016-09-22T11:23:35Z</time>
      </trkpt>
      <trkpt lat="45.99033" lon="4.02611">
        <ele>386.11</ele>
        <time>2016-09-22T11:24:21Z</time>
      </trkpt>
      <trkpt lat="45.99034" lon="4.0261">
        <ele>385.63</ele>
        <time>2016-09-22T11:24:54Z</time>
      </trkpt>
      <trkpt lat="45.99034" lon="4.02611">
        <ele>385.63</ele>
        <time>2016-09-22T11:25:26Z</time>
      </trkpt>
      <trkpt lat="45.99034" lon="4.0261">
        <ele>384.18</ele>
        <time>2016-09-22T11:26:08Z</time>
      </trkpt>
      <trkpt lat="45.99034" lon="4.0261">
        <ele>384.18</ele>
        <time>2016-09-22T11:26:32Z</time>
      </trkpt>
      <trkpt lat="45.99035" lon="4.0261">
        <ele>384.66</ele>
        <time>2016-09-22T11:27:04Z</time>
      </trkpt>
      <trkpt lat="45.99036" lon="4.02611">
        <ele>385.15</ele>
        <time>2016-09-22T11:27:32Z</time>
      </trkpt>
      <trkpt lat="45.99036" lon="4.02611">
        <ele>385.15</ele>
        <time>2016-09-22T11:27:59Z</time>
      </trkpt>
      <trkpt lat="45.99036" lon="4.02611">
        <ele>385.15</ele>
        <time>2016-09-22T11:28:28Z</time>
      </trkpt>
      <trkpt lat="45.99037" lon="4.02612">
        <ele>385.63</ele>
        <time>2016-09-22T11:28:51Z</time>
      </trkpt>
      <trkpt lat="45.9904" lon="4.02612">
        <ele>385.63</ele>
        <time>2016-09-22T11:29:29Z</time>
      </trkpt>
      <trkpt lat="45.99039" lon="4.02611">
        <ele>385.63</ele>
        <time>2016-09-22T11:29:57Z</time>
      </trkpt>
      <trkpt lat="45.99037" lon="4.02611">
        <ele>386.11</ele>
        <time>2016-09-22T11:30:20Z</time>
      </trkpt>
      <trkpt lat="45.99037" lon="4.02611">
        <ele>386.59</ele>
        <time>2016-09-22T11:30:42Z</time>
      </trkpt>
      <trkpt lat="45.99037" lon="4.02612">
        <ele>386.11</ele>
        <time>2016-09-22T11:31:02Z</time>
      </trkpt>
      <trkpt lat="45.99037" lon="4.02612">
        <ele>386.11</ele>
        <time>2016-09-22T11:31:17Z</time>
      </trkpt>
      <trkpt lat="45.99036" lon="4.02613">
        <ele>386.11</ele>
        <time>2016-09-22T11:31:43Z</time>
      </trkpt>
      <trkpt lat="45.99037" lon="4.02614">
        <ele>386.11</ele>
        <time>2016-09-22T11:32:08Z</time>
      </trkpt>
      <trkpt lat="45.99037" lon="4.02607">
        <ele>388.51</ele>
        <time>2016-09-22T11:32:22Z</time>
      </trkpt>
      <trkpt lat="45.99035" lon="4.0259">
        <ele>390.43</ele>
        <time>2016-09-22T11:32:35Z</time>
      </trkpt>
      <trkpt lat="45.99035" lon="4.0259">
        <ele>390.91</ele>
        <time>2016-09-22T11:32:49Z</time>
      </trkpt>
      <trkpt lat="45.99036" lon="4.02585">
        <ele>389.47</ele>
        <time>2016-09-22T11:33:05Z</time>
      </trkpt>
      <trkpt lat="45.99036" lon="4.02584">
        <ele>389.47</ele>
        <time>2016-09-22T11:33:23Z</time>
      </trkpt>
      <trkpt lat="45.99036" lon="4.02581">
        <ele>389.47</ele>
        <time>2016-09-22T11:33:37Z</time>
      </trkpt>
      <trkpt lat="45.99035" lon="4.0258">
        <ele>389.47</ele>
        <time>2016-09-22T11:33:51Z</time>
      </trkpt>
      <trkpt lat="45.99034" lon="4.02579">
        <ele>389.95</ele>
        <time>2016-09-22T11:34:01Z</time>
      </trkpt>
      <trkpt lat="45.99019" lon="4.02592">
        <ele>389.95</ele>
        <time>2016-09-22T11:34:17Z</time>
      </trkpt>
      <trkpt lat="45.99015" lon="4.02593">
        <ele>393.32</ele>
        <time>2016-09-22T11:34:33Z</time>
      </trkpt>
      <trkpt lat="45.99015" lon="4.02592">
        <ele>394.28</ele>
        <time>2016-09-22T11:34:48Z</time>
      </trkpt>
      <trkpt lat="45.99015" lon="4.02583">
        <ele>395.72</ele>
        <time>2016-09-22T11:35:03Z</time>
      </trkpt>
      <trkpt lat="45.99016" lon="4.02581">
        <ele>396.2</ele>
        <time>2016-09-22T11:35:05Z</time>
      </trkpt>
      <trkpt lat="45.99018" lon="4.02555">
        <ele>397.64</ele>
        <time>2016-09-22T11:35:20Z</time>
      </trkpt>
      <trkpt lat="45.99021" lon="4.02539">
        <ele>399.08</ele>
        <time>2016-09-22T11:35:34Z</time>
      </trkpt>
      <trkpt lat="45.99022" lon="4.02536">
        <ele>399.08</ele>
        <time>2016-09-22T11:35:40Z</time>
      </trkpt>
      <trkpt lat="45.99026" lon="4.02503">
        <ele>398.6</ele>
        <time>2016-09-22T11:35:56Z</time>
      </trkpt>
      <trkpt lat="45.99026" lon="4.02503">
        <ele>398.12</ele>
        <time>2016-09-22T11:35:57Z</time>
      </trkpt>
      <trkpt lat="45.99026" lon="4.02495">
        <ele>399.08</ele>
        <time>2016-09-22T11:36:01Z</time>
      </trkpt>
      <trkpt lat="45.99026" lon="4.0246">
        <ele>401.49</ele>
        <time>2016-09-22T11:36:19Z</time>
      </trkpt>
      <trkpt lat="45.99025" lon="4.02439">
        <ele>402.45</ele>
        <time>2016-09-22T11:36:31Z</time>
      </trkpt>
      <trkpt lat="45.99025" lon="4.02433">
        <ele>402.45</ele>
        <time>2016-09-22T11:36:34Z</time>
      </trkpt>
      <trkpt lat="45.99024" lon="4.02405">
        <ele>402.93</ele>
        <time>2016-09-22T11:36:49Z</time>
      </trkpt>
      <trkpt lat="45.99022" lon="4.02383">
        <ele>404.37</ele>
        <time>2016-09-22T11:37:02Z</time>
      </trkpt>
      <trkpt lat="45.99021" lon="4.02379">
        <ele>404.37</ele>
        <time>2016-09-22T11:37:04Z</time>
      </trkpt>
      <trkpt lat="45.99018" lon="4.02368">
        <ele>404.85</ele>
        <time>2016-09-22T11:37:10Z</time>
      </trkpt>
      <trkpt lat="45.99012" lon="4.02347">
        <ele>405.33</ele>
        <time>2016-09-22T11:37:23Z</time>
      </trkpt>
      <trkpt lat="45.99001" lon="4.02324">
        <ele>405.33</ele>
        <time>2016-09-22T11:37:38Z</time>
      </trkpt>
      <trkpt lat="45.98985" lon="4.02302">
        <ele>406.29</ele>
        <time>2016-09-22T11:37:53Z</time>
      </trkpt>
      <trkpt lat="45.98962" lon="4.02287">
        <ele>408.7</ele>
        <time>2016-09-22T11:38:11Z</time>
      </trkpt>
      <trkpt lat="45.98948" lon="4.02261">
        <ele>412.06</ele>
        <time>2016-09-22T11:38:29Z</time>
      </trkpt>
      <trkpt lat="45.98935" lon="4.02238">
        <ele>413.02</ele>
        <time>2016-09-22T11:38:43Z</time>
      </trkpt>
      <trkpt lat="45.98921" lon="4.02215">
        <ele>413.02</ele>
        <time>2016-09-22T11:38:58Z</time>
      </trkpt>
      <trkpt lat="45.9892" lon="4.02213">
        <ele>413.02</ele>
        <time>2016-09-22T11:39:00Z</time>
      </trkpt>
      <trkpt lat="45.98915" lon="4.02205">
        <ele>413.5</ele>
        <time>2016-09-22T11:39:05Z</time>
      </trkpt>
      <trkpt lat="45.98897" lon="4.02175">
        <ele>413.98</ele>
        <time>2016-09-22T11:39:24Z</time>
      </trkpt>
      <trkpt lat="45.98883" lon="4.02145">
        <ele>414.95</ele>
        <time>2016-09-22T11:39:42Z</time>
      </trkpt>
      <trkpt lat="45.98873" lon="4.02127">
        <ele>415.91</ele>
        <time>2016-09-22T11:39:58Z</time>
      </trkpt>
      <trkpt lat="45.98862" lon="4.02105">
        <ele>417.35</ele>
        <time>2016-09-22T11:40:12Z</time>
      </trkpt>
      <trkpt lat="45.98853" lon="4.02083">
        <ele>423.12</ele>
        <time>2016-09-22T11:40:28Z</time>
      </trkpt>
      <trkpt lat="45.98844" lon="4.02067">
        <ele>431.77</ele>
        <time>2016-09-22T11:40:42Z</time>
      </trkpt>
      <trkpt lat="45.98834" lon="4.02044">
        <ele>440.9</ele>
        <time>2016-09-22T11:40:57Z</time>
      </trkpt>
      <trkpt lat="45.98823" lon="4.02017">
        <ele>449.55</ele>
        <time>2016-09-22T11:41:14Z</time>
      </trkpt>
      <trkpt lat="45.98811" lon="4.01993">
        <ele>449.55</ele>
        <time>2016-09-22T11:41:28Z</time>
      </trkpt>
      <trkpt lat="45.98801" lon="4.01968">
        <ele>440.42</ele>
        <time>2016-09-22T11:41:44Z</time>
      </trkpt>
      <trkpt lat="45.98792" lon="4.01956">
        <ele>435.61</ele>
        <time>2016-09-22T11:41:55Z</time>
      </trkpt>
      <trkpt lat="45.98783" lon="4.01939">
        <ele>434.65</ele>
        <time>2016-09-22T11:42:08Z</time>
      </trkpt>
      <trkpt lat="45.98773" lon="4.01917">
        <ele>439.46</ele>
        <time>2016-09-22T11:42:24Z</time>
      </trkpt>
      <trkpt lat="45.98771" lon="4.0191">
        <ele>439.94</ele>
        <time>2016-09-22T11:42:28Z</time>
      </trkpt>
      <trkpt lat="45.98767" lon="4.019">
        <ele>440.9</ele>
        <time>2016-09-22T11:42:34Z</time>
      </trkpt>
      <trkpt lat="45.98751" lon="4.01865">
        <ele>437.54</ele>
        <time>2016-09-22T11:42:52Z</time>
      </trkpt>
      <trkpt lat="45.98732" lon="4.01835">
        <ele>430.81</ele>
        <time>2016-09-22T11:43:10Z</time>
      </trkpt>
      <trkpt lat="45.98715" lon="4.01811">
        <ele>427.92</ele>
        <time>2016-09-22T11:43:25Z</time>
      </trkpt>
      <trkpt lat="45.98705" lon="4.01792">
        <ele>425.52</ele>
        <time>2016-09-22T11:43:38Z</time>
      </trkpt>
      <trkpt lat="45.98697" lon="4.01777">
        <ele>423.6</ele>
        <time>2016-09-22T11:43:49Z</time>
      </trkpt>
      <trkpt lat="45.9869" lon="4.01762">
        <ele>424.56</ele>
        <time>2016-09-22T11:43:59Z</time>
      </trkpt>
      <trkpt lat="45.98683" lon="4.0175">
        <ele>424.08</ele>
        <time>2016-09-22T11:44:08Z</time>
      </trkpt>
      <trkpt lat="45.9867" lon="4.01726">
        <ele>425.04</ele>
        <time>2016-09-22T11:44:24Z</time>
      </trkpt>
      <trkpt lat="45.98655" lon="4.01699">
        <ele>425.04</ele>
        <time>2016-09-22T11:44:41Z</time>
      </trkpt>
      <trkpt lat="45.98639" lon="4.01672">
        <ele>423.6</ele>
        <time>2016-09-22T11:44:58Z</time>
      </trkpt>
      <trkpt lat="45.98622" lon="4.01644">
        <ele>420.71</ele>
        <time>2016-09-22T11:45:16Z</time>
      </trkpt>
      <trkpt lat="45.98619" lon="4.0164">
        <ele>420.23</ele>
        <time>2016-09-22T11:45:19Z</time>
      </trkpt>
      <trkpt lat="45.98601" lon="4.0161">
        <ele>417.83</ele>
        <time>2016-09-22T11:45:39Z</time>
      </trkpt>
      <trkpt lat="45.98591" lon="4.01594">
        <ele>416.87</ele>
        <time>2016-09-22T11:45:50Z</time>
      </trkpt>
      <trkpt lat="45.98579" lon="4.01574">
        <ele>414.95</ele>
        <time>2016-09-22T11:46:05Z</time>
      </trkpt>
      <trkpt lat="45.98561" lon="4.01544">
        <ele>413.98</ele>
        <time>2016-09-22T11:46:23Z</time>
      </trkpt>
      <trkpt lat="45.98548" lon="4.01517">
        <ele>412.06</ele>
        <time>2016-09-22T11:46:39Z</time>
      </trkpt>
      <trkpt lat="45.98541" lon="4.01491">
        <ele>413.98</ele>
        <time>2016-09-22T11:46:54Z</time>
      </trkpt>
      <trkpt lat="45.98531" lon="4.01459">
        <ele>413.5</ele>
        <time>2016-09-22T11:47:11Z</time>
      </trkpt>
      <trkpt lat="45.98522" lon="4.01431">
        <ele>412.54</ele>
        <time>2016-09-22T11:47:27Z</time>
      </trkpt>
      <trkpt lat="45.98521" lon="4.01427">
        <ele>412.06</ele>
        <time>2016-09-22T11:47:29Z</time>
      </trkpt>
      <trkpt lat="45.98514" lon="4.01397">
        <ele>409.66</ele>
        <time>2016-09-22T11:47:45Z</time>
      </trkpt>
      <trkpt lat="45.98513" lon="4.01395">
        <ele>409.66</ele>
        <time>2016-09-22T11:47:46Z</time>
      </trkpt>
      <trkpt lat="45.9851" lon="4.01376">
        <ele>409.66</ele>
        <time>2016-09-22T11:47:57Z</time>
      </trkpt>
      <trkpt lat="45.98506" lon="4.01347">
        <ele>410.14</ele>
        <time>2016-09-22T11:48:12Z</time>
      </trkpt>
      <trkpt lat="45.98501" lon="4.0132">
        <ele>410.14</ele>
        <time>2016-09-22T11:48:27Z</time>
      </trkpt>
      <trkpt lat="45.985" lon="4.01315">
        <ele>410.14</ele>
        <time>2016-09-22T11:48:30Z</time>
      </trkpt>
      <trkpt lat="45.98496" lon="4.01286">
        <ele>408.22</ele>
        <time>2016-09-22T11:48:46Z</time>
      </trkpt>
      <trkpt lat="45.9849" lon="4.01272">
        <ele>406.29</ele>
        <time>2016-09-22T11:49:00Z</time>
      </trkpt>
      <trkpt lat="45.9849" lon="4.01267">
        <ele>403.41</ele>
        <time>2016-09-22T11:49:15Z</time>
      </trkpt>
      <trkpt lat="45.98492" lon="4.01259">
        <ele>402.45</ele>
        <time>2016-09-22T11:49:21Z</time>
      </trkpt>
      <trkpt lat="45.98494" lon="4.01251">
        <ele>401.97</ele>
        <time>2016-09-22T11:49:25Z</time>
      </trkpt>
      <trkpt lat="45.98498" lon="4.01237">
        <ele>399.57</ele>
        <time>2016-09-22T11:49:35Z</time>
      </trkpt>
      <trkpt lat="45.98504" lon="4.01214">
        <ele>399.57</ele>
        <time>2016-09-22T11:49:48Z</time>
      </trkpt>
      <trkpt lat="45.98509" lon="4.01194">
        <ele>398.6</ele>
        <time>2016-09-22T11:50:02Z</time>
      </trkpt>
      <trkpt lat="45.9851" lon="4.0119">
        <ele>398.12</ele>
        <time>2016-09-22T11:50:04Z</time>
      </trkpt>
      <trkpt lat="45.98515" lon="4.01169">
        <ele>393.8</ele>
        <time>2016-09-22T11:50:14Z</time>
      </trkpt>
      <trkpt lat="45.98517" lon="4.01149">
        <ele>389.95</ele>
        <time>2016-09-22T11:50:27Z</time>
      </trkpt>
      <trkpt lat="45.98517" lon="4.01147">
        <ele>389.95</ele>
        <time>2016-09-22T11:50:29Z</time>
      </trkpt>
      <trkpt lat="45.9852" lon="4.01127">
        <ele>389.95</ele>
        <time>2016-09-22T11:50:44Z</time>
      </trkpt>
      <trkpt lat="45.98518" lon="4.01114">
        <ele>390.91</ele>
        <time>2016-09-22T11:50:52Z</time>
      </trkpt>
      <trkpt lat="45.98513" lon="4.01101">
        <ele>392.36</ele>
        <time>2016-09-22T11:50:58Z</time>
      </trkpt>
      <trkpt lat="45.98507" lon="4.01075">
        <ele>389.95</ele>
        <time>2016-09-22T11:51:10Z</time>
      </trkpt>
      <trkpt lat="45.98499" lon="4.01053">
        <ele>388.03</ele>
        <time>2016-09-22T11:51:24Z</time>
      </trkpt>
      <trkpt lat="45.9849" lon="4.0104">
        <ele>388.03</ele>
        <time>2016-09-22T11:51:35Z</time>
      </trkpt>
      <trkpt lat="45.98474" lon="4.0102">
        <ele>388.99</ele>
        <time>2016-09-22T11:51:51Z</time>
      </trkpt>
      <trkpt lat="45.98457" lon="4.01007">
        <ele>385.63</ele>
        <time>2016-09-22T11:52:05Z</time>
      </trkpt>
      <trkpt lat="45.98454" lon="4.01005">
        <ele>385.15</ele>
        <time>2016-09-22T11:52:08Z</time>
      </trkpt>
      <trkpt lat="45.98433" lon="4.00999">
        <ele>382.74</ele>
        <time>2016-09-22T11:52:24Z</time>
      </trkpt>
      <trkpt lat="45.98413" lon="4.00995">
        <ele>378.9</ele>
        <time>2016-09-22T11:52:37Z</time>
      </trkpt>
      <trkpt lat="45.98392" lon="4.00991">
        <ele>374.57</ele>
        <time>2016-09-22T11:52:52Z</time>
      </trkpt>
      <trkpt lat="45.98388" lon="4.0099">
        <ele>374.09</ele>
        <time>2016-09-22T11:52:55Z</time>
      </trkpt>
      <trkpt lat="45.9837" lon="4.00986">
        <ele>372.65</ele>
        <time>2016-09-22T11:53:08Z</time>
      </trkpt>
      <trkpt lat="45.98364" lon="4.00982">
        <ele>376.01</ele>
        <time>2016-09-22T11:53:22Z</time>
      </trkpt>
      <trkpt lat="45.98365" lon="4.00976">
        <ele>377.94</ele>
        <time>2016-09-22T11:53:35Z</time>
      </trkpt>
      <trkpt lat="45.98369" lon="4.00968">
        <ele>382.26</ele>
        <time>2016-09-22T11:53:51Z</time>
      </trkpt>
      <trkpt lat="45.98375" lon="4.00953">
        <ele>387.07</ele>
        <time>2016-09-22T11:54:09Z</time>
      </trkpt>
      <trkpt lat="45.98381" lon="4.00942">
        <ele>391.39</ele>
        <time>2016-09-22T11:54:23Z</time>
      </trkpt>
      <trkpt lat="45.98384" lon="4.00931">
        <ele>393.32</ele>
        <time>2016-09-22T11:54:33Z</time>
      </trkpt>
      <trkpt lat="45.98392" lon="4.00915">
        <ele>396.68</ele>
        <time>2016-09-22T11:54:47Z</time>
      </trkpt>
      <trkpt lat="45.98401" lon="4.00895">
        <ele>399.57</ele>
        <time>2016-09-22T11:55:01Z</time>
      </trkpt>
      <trkpt lat="45.98413" lon="4.00869">
        <ele>400.53</ele>
        <time>2016-09-22T11:55:18Z</time>
      </trkpt>
      <trkpt lat="45.98423" lon="4.00849">
        <ele>400.05</ele>
        <time>2016-09-22T11:55:31Z</time>
      </trkpt>
      <trkpt lat="45.98437" lon="4.00823">
        <ele>400.53</ele>
        <time>2016-09-22T11:55:47Z</time>
      </trkpt>
      <trkpt lat="45.98454" lon="4.00791">
        <ele>401.01</ele>
        <time>2016-09-22T11:56:06Z</time>
      </trkpt>
      <trkpt lat="45.98468" lon="4.00761">
        <ele>399.57</ele>
        <time>2016-09-22T11:56:23Z</time>
      </trkpt>
      <trkpt lat="45.98481" lon="4.00736">
        <ele>398.12</ele>
        <time>2016-09-22T11:56:40Z</time>
      </trkpt>
      <trkpt lat="45.98479" lon="4.00724">
        <ele>397.16</ele>
        <time>2016-09-22T11:56:52Z</time>
      </trkpt>
      <trkpt lat="45.98478" lon="4.00724">
        <ele>397.16</ele>
        <time>2016-09-22T11:57:02Z</time>
      </trkpt>
      <trkpt lat="45.98478" lon="4.00724">
        <ele>396.68</ele>
        <time>2016-09-22T11:57:33Z</time>
      </trkpt>
      <trkpt lat="45.98481" lon="4.00719">
        <ele>396.68</ele>
        <time>2016-09-22T11:57:48Z</time>
      </trkpt>
      <trkpt lat="45.98483" lon="4.00718">
        <ele>396.68</ele>
        <time>2016-09-22T11:58:03Z</time>
      </trkpt>
      <trkpt lat="45.98481" lon="4.00714">
        <ele>396.68</ele>
        <time>2016-09-22T11:58:17Z</time>
      </trkpt>
      <trkpt lat="45.98479" lon="4.00713">
        <ele>395.24</ele>
        <time>2016-09-22T11:58:35Z</time>
      </trkpt>
      <trkpt lat="45.98477" lon="4.00709">
        <ele>395.24</ele>
        <time>2016-09-22T11:58:39Z</time>
      </trkpt>
      <trkpt lat="45.98464" lon="4.00689">
        <ele>395.24</ele>
        <time>2016-09-22T11:58:56Z</time>
      </trkpt>
      <trkpt lat="45.98454" lon="4.00677">
        <ele>397.16</ele>
        <time>2016-09-22T11:59:11Z</time>
      </trkpt>
      <trkpt lat="45.98448" lon="4.0067">
        <ele>397.16</ele>
        <time>2016-09-22T11:59:27Z</time>
      </trkpt>
      <trkpt lat="45.9844" lon="4.00661">
        <ele>395.72</ele>
        <time>2016-09-22T11:59:42Z</time>
      </trkpt>
      <trkpt lat="45.98437" lon="4.00658">
        <ele>395.72</ele>
        <time>2016-09-22T11:59:45Z</time>
      </trkpt>
      <trkpt lat="45.98422" lon="4.00643">
        <ele>392.84</ele>
        <time>2016-09-22T11:59:58Z</time>
      </trkpt>
      <trkpt lat="45.98411" lon="4.00628">
        <ele>391.87</ele>
        <time>2016-09-22T12:00:13Z</time>
      </trkpt>
      <trkpt lat="45.9839" lon="4.00612">
        <ele>389.95</ele>
        <time>2016-09-22T12:00:30Z</time>
      </trkpt>
      <trkpt lat="45.98386" lon="4.00609">
        <ele>389.95</ele>
        <time>2016-09-22T12:00:34Z</time>
      </trkpt>
      <trkpt lat="45.9838" lon="4.00601">
        <ele>391.39</ele>
        <time>2016-09-22T12:00:42Z</time>
      </trkpt>
      <trkpt lat="45.98369" lon="4.00594">
        <ele>389.95</ele>
        <time>2016-09-22T12:00:52Z</time>
      </trkpt>
      <trkpt lat="45.9836" lon="4.00587">
        <ele>389.47</ele>
        <time>2016-09-22T12:01:00Z</time>
      </trkpt>
      <trkpt lat="45.98357" lon="4.00581">
        <ele>388.51</ele>
        <time>2016-09-22T12:01:05Z</time>
      </trkpt>
      <trkpt lat="45.98358" lon="4.00566">
        <ele>385.63</ele>
        <time>2016-09-22T12:01:19Z</time>
      </trkpt>
      <trkpt lat="45.98361" lon="4.00556">
        <ele>383.22</ele>
        <time>2016-09-22T12:01:31Z</time>
      </trkpt>
      <trkpt lat="45.98364" lon="4.0055">
        <ele>381.78</ele>
        <time>2016-09-22T12:01:36Z</time>
      </trkpt>
      <trkpt lat="45.9838" lon="4.00533">
        <ele>378.9</ele>
        <time>2016-09-22T12:01:54Z</time>
      </trkpt>
      <trkpt lat="45.98393" lon="4.00511">
        <ele>382.26</ele>
        <time>2016-09-22T12:02:08Z</time>
      </trkpt>
      <trkpt lat="45.98397" lon="4.005">
        <ele>384.66</ele>
        <time>2016-09-22T12:02:17Z</time>
      </trkpt>
      <trkpt lat="45.98395" lon="4.00482">
        <ele>389.47</ele>
        <time>2016-09-22T12:02:28Z</time>
      </trkpt>
      <trkpt lat="45.98387" lon="4.0046">
        <ele>390.91</ele>
        <time>2016-09-22T12:02:43Z</time>
      </trkpt>
      <trkpt lat="45.98375" lon="4.00445">
        <ele>389.95</ele>
        <time>2016-09-22T12:02:56Z</time>
      </trkpt>
      <trkpt lat="45.98368" lon="4.00427">
        <ele>384.18</ele>
        <time>2016-09-22T12:03:07Z</time>
      </trkpt>
      <trkpt lat="45.98362" lon="4.00403">
        <ele>376.49</ele>
        <time>2016-09-22T12:03:18Z</time>
      </trkpt>
      <trkpt lat="45.98353" lon="4.00394">
        <ele>374.09</ele>
        <time>2016-09-22T12:03:34Z</time>
      </trkpt>
      <trkpt lat="45.98336" lon="4.00373">
        <ele>367.84</ele>
        <time>2016-09-22T12:03:51Z</time>
      </trkpt>
      <trkpt lat="45.98334" lon="4.0037">
        <ele>366.4</ele>
        <time>2016-09-22T12:03:53Z</time>
      </trkpt>
      <trkpt lat="45.9832" lon="4.00355">
        <ele>358.71</ele>
        <time>2016-09-22T12:04:08Z</time>
      </trkpt>
      <trkpt lat="45.98317" lon="4.00355">
        <ele>358.23</ele>
        <time>2016-09-22T12:04:09Z</time>
      </trkpt>
      <trkpt lat="45.98309" lon="4.00374">
        <ele>354.86</ele>
        <time>2016-09-22T12:04:23Z</time>
      </trkpt>
      <trkpt lat="45.98308" lon="4.00376">
        <ele>354.38</ele>
        <time>2016-09-22T12:04:25Z</time>
      </trkpt>
      <trkpt lat="45.98306" lon="4.00377">
        <ele>354.38</ele>
        <time>2016-09-22T12:04:28Z</time>
      </trkpt>
      <trkpt lat="45.98301" lon="4.0037">
        <ele>352.46</ele>
        <time>2016-09-22T12:04:42Z</time>
      </trkpt>
      <trkpt lat="45.98293" lon="4.00359">
        <ele>350.06</ele>
        <time>2016-09-22T12:04:55Z</time>
      </trkpt>
      <trkpt lat="45.98288" lon="4.00351">
        <ele>348.62</ele>
        <time>2016-09-22T12:05:03Z</time>
      </trkpt>
      <trkpt lat="45.98276" lon="4.00352">
        <ele>346.69</ele>
        <time>2016-09-22T12:05:09Z</time>
      </trkpt>
      <trkpt lat="45.9827" lon="4.00378">
        <ele>344.29</ele>
        <time>2016-09-22T12:05:25Z</time>
      </trkpt>
      <trkpt lat="45.9827" lon="4.00379">
        <ele>344.29</ele>
        <time>2016-09-22T12:05:26Z</time>
      </trkpt>
      <trkpt lat="45.98266" lon="4.00401">
        <ele>346.69</ele>
        <time>2016-09-22T12:05:40Z</time>
      </trkpt>
      <trkpt lat="45.9826" lon="4.00404">
        <ele>346.69</ele>
        <time>2016-09-22T12:05:49Z</time>
      </trkpt>
      <trkpt lat="45.98255" lon="4.00405">
        <ele>347.65</ele>
        <time>2016-09-22T12:05:57Z</time>
      </trkpt>
      <trkpt lat="45.98245" lon="4.00404">
        <ele>344.77</ele>
        <time>2016-09-22T12:06:08Z</time>
      </trkpt>
      <trkpt lat="45.98234" lon="4.00398">
        <ele>343.33</ele>
        <time>2016-09-22T12:06:21Z</time>
      </trkpt>
      <trkpt lat="45.98232" lon="4.00394">
        <ele>344.29</ele>
        <time>2016-09-22T12:06:24Z</time>
      </trkpt>
      <trkpt lat="45.98231" lon="4.00388">
        <ele>344.77</ele>
        <time>2016-09-22T12:06:28Z</time>
      </trkpt>
      <trkpt lat="45.98233" lon="4.00383">
        <ele>345.73</ele>
        <time>2016-09-22T12:06:31Z</time>
      </trkpt>
      <trkpt lat="45.98228" lon="4.00367">
        <ele>347.17</ele>
        <time>2016-09-22T12:06:44Z</time>
      </trkpt>
      <trkpt lat="45.98224" lon="4.00339">
        <ele>346.69</ele>
        <time>2016-09-22T12:06:59Z</time>
      </trkpt>
      <trkpt lat="45.98224" lon="4.00332">
        <ele>347.17</ele>
        <time>2016-09-22T12:07:03Z</time>
      </trkpt>
      <trkpt lat="45.9822" lon="4.00298">
        <ele>349.58</ele>
        <time>2016-09-22T12:07:21Z</time>
      </trkpt>
      <trkpt lat="45.9822" lon="4.00293">
        <ele>349.58</ele>
        <time>2016-09-22T12:07:23Z</time>
      </trkpt>
      <trkpt lat="45.98221" lon="4.00283">
        <ele>350.06</ele>
        <time>2016-09-22T12:07:29Z</time>
      </trkpt>
      <trkpt lat="45.98222" lon="4.00272">
        <ele>350.06</ele>
        <time>2016-09-22T12:07:36Z</time>
      </trkpt>
      <trkpt lat="45.98225" lon="4.00262">
        <ele>351.5</ele>
        <time>2016-09-22T12:07:42Z</time>
      </trkpt>
      <trkpt lat="45.98232" lon="4.00248">
        <ele>355.83</ele>
        <time>2016-09-22T12:07:52Z</time>
      </trkpt>
      <trkpt lat="45.98245" lon="4.00233">
        <ele>369.28</ele>
        <time>2016-09-22T12:08:07Z</time>
      </trkpt>
      <trkpt lat="45.98254" lon="4.00225">
        <ele>381.78</ele>
        <time>2016-09-22T12:08:19Z</time>
      </trkpt>
      <trkpt lat="45.98254" lon="4.00223">
        <ele>383.7</ele>
        <time>2016-09-22T12:08:23Z</time>
      </trkpt>
      <trkpt lat="45.98257" lon="4.00221">
        <ele>386.11</ele>
        <time>2016-09-22T12:08:27Z</time>
      </trkpt>
      <trkpt lat="45.98264" lon="4.00218">
        <ele>392.36</ele>
        <time>2016-09-22T12:08:33Z</time>
      </trkpt>
      <trkpt lat="45.98273" lon="4.00211">
        <ele>401.01</ele>
        <time>2016-09-22T12:08:43Z</time>
      </trkpt>
      <trkpt lat="45.98278" lon="4.00194">
        <ele>412.54</ele>
        <time>2016-09-22T12:08:54Z</time>
      </trkpt>
      <trkpt lat="45.98278" lon="4.00193">
        <ele>413.98</ele>
        <time>2016-09-22T12:08:55Z</time>
      </trkpt>
      <trkpt lat="45.98276" lon="4.0019">
        <ele>417.35</ele>
        <time>2016-09-22T12:08:58Z</time>
      </trkpt>
      <trkpt lat="45.98276" lon="4.00187">
        <ele>417.35</ele>
        <time>2016-09-22T12:09:02Z</time>
      </trkpt>
      <trkpt lat="45.9827" lon="4.00176">
        <ele>415.91</ele>
        <time>2016-09-22T12:09:14Z</time>
      </trkpt>
      <trkpt lat="45.98266" lon="4.00164">
        <ele>412.54</ele>
        <time>2016-09-22T12:09:23Z</time>
      </trkpt>
      <trkpt lat="45.98267" lon="4.00151">
        <ele>406.77</ele>
        <time>2016-09-22T12:09:31Z</time>
      </trkpt>
      <trkpt lat="45.98272" lon="4.00134">
        <ele>395.72</ele>
        <time>2016-09-22T12:09:43Z</time>
      </trkpt>
      <trkpt lat="45.98275" lon="4.0012">
        <ele>390.91</ele>
        <time>2016-09-22T12:09:49Z</time>
      </trkpt>
      <trkpt lat="45.98278" lon="4.00108">
        <ele>387.07</ele>
        <time>2016-09-22T12:09:52Z</time>
      </trkpt>
      <trkpt lat="45.98282" lon="4.00095">
        <ele>381.78</ele>
        <time>2016-09-22T12:09:56Z</time>
      </trkpt>
      <trkpt lat="45.98291" lon="4.00069">
        <ele>372.17</ele>
        <time>2016-09-22T12:10:12Z</time>
      </trkpt>
      <trkpt lat="45.983" lon="4.00045">
        <ele>362.55</ele>
        <time>2016-09-22T12:10:27Z</time>
      </trkpt>
      <trkpt lat="45.98301" lon="4.00043">
        <ele>362.07</ele>
        <time>2016-09-22T12:10:28Z</time>
      </trkpt>
      <trkpt lat="45.98318" lon="4.00024">
        <ele>346.21</ele>
        <time>2016-09-22T12:10:37Z</time>
      </trkpt>
      <trkpt lat="45.98319" lon="3.99999">
        <ele>340.92</ele>
        <time>2016-09-22T12:10:49Z</time>
      </trkpt>
      <trkpt lat="45.9831" lon="3.99979">
        <ele>344.77</ele>
        <time>2016-09-22T12:11:02Z</time>
      </trkpt>
      <trkpt lat="45.98302" lon="3.99965">
        <ele>345.73</ele>
        <time>2016-09-22T12:11:11Z</time>
      </trkpt>
      <trkpt lat="45.98299" lon="3.9995">
        <ele>344.77</ele>
        <time>2016-09-22T12:11:24Z</time>
      </trkpt>
      <trkpt lat="45.98298" lon="3.99947">
        <ele>345.73</ele>
        <time>2016-09-22T12:11:27Z</time>
      </trkpt>
      <trkpt lat="45.98293" lon="3.99923">
        <ele>345.25</ele>
        <time>2016-09-22T12:11:37Z</time>
      </trkpt>
      <trkpt lat="45.98289" lon="3.99914">
        <ele>343.81</ele>
        <time>2016-09-22T12:11:41Z</time>
      </trkpt>
      <trkpt lat="45.9828" lon="3.99885">
        <ele>342.37</ele>
        <time>2016-09-22T12:11:59Z</time>
      </trkpt>
      <trkpt lat="45.98276" lon="3.99869">
        <ele>344.29</ele>
        <time>2016-09-22T12:12:15Z</time>
      </trkpt>
      <trkpt lat="45.98276" lon="3.99863">
        <ele>345.73</ele>
        <time>2016-09-22T12:12:28Z</time>
      </trkpt>
      <trkpt lat="45.98289" lon="3.99855">
        <ele>347.65</ele>
        <time>2016-09-22T12:12:45Z</time>
      </trkpt>
      <trkpt lat="45.98293" lon="3.99853">
        <ele>348.62</ele>
        <time>2016-09-22T12:12:51Z</time>
      </trkpt>
      <trkpt lat="45.98304" lon="3.99843">
        <ele>348.62</ele>
        <time>2016-09-22T12:13:04Z</time>
      </trkpt>
      <trkpt lat="45.98317" lon="3.99825">
        <ele>344.77</ele>
        <time>2016-09-22T12:13:16Z</time>
      </trkpt>
      <trkpt lat="45.98326" lon="3.99802">
        <ele>343.33</ele>
        <time>2016-09-22T12:13:31Z</time>
      </trkpt>
      <trkpt lat="45.98335" lon="3.99777">
        <ele>345.73</ele>
        <time>2016-09-22T12:13:46Z</time>
      </trkpt>
      <trkpt lat="45.98345" lon="3.99756">
        <ele>348.13</ele>
        <time>2016-09-22T12:14:00Z</time>
      </trkpt>
      <trkpt lat="45.98348" lon="3.99743">
        <ele>351.5</ele>
        <time>2016-09-22T12:14:10Z</time>
      </trkpt>
      <trkpt lat="45.98348" lon="3.99739">
        <ele>351.98</ele>
        <time>2016-09-22T12:14:12Z</time>
      </trkpt>
      <trkpt lat="45.9835" lon="3.99712">
        <ele>353.9</ele>
        <time>2016-09-22T12:14:26Z</time>
      </trkpt>
      <trkpt lat="45.98351" lon="3.99688">
        <ele>355.34</ele>
        <time>2016-09-22T12:14:38Z</time>
      </trkpt>
      <trkpt lat="45.98351" lon="3.99675">
        <ele>353.42</ele>
        <time>2016-09-22T12:14:45Z</time>
      </trkpt>
      <trkpt lat="45.98352" lon="3.99657">
        <ele>348.62</ele>
        <time>2016-09-22T12:14:51Z</time>
      </trkpt>
      <trkpt lat="45.9835" lon="3.99648">
        <ele>344.29</ele>
        <time>2016-09-22T12:14:54Z</time>
      </trkpt>
      <trkpt lat="45.98342" lon="3.99639">
        <ele>340.92</ele>
        <time>2016-09-22T12:15:00Z</time>
      </trkpt>
      <trkpt lat="45.98337" lon="3.99628">
        <ele>339.48</ele>
        <time>2016-09-22T12:15:09Z</time>
      </trkpt>
      <trkpt lat="45.98325" lon="3.99621">
        <ele>336.6</ele>
        <time>2016-09-22T12:15:18Z</time>
      </trkpt>
      <trkpt lat="45.98322" lon="3.9962">
        <ele>336.12</ele>
        <time>2016-09-22T12:15:23Z</time>
      </trkpt>
      <trkpt lat="45.98319" lon="3.996">
        <ele>337.56</ele>
        <time>2016-09-22T12:15:35Z</time>
      </trkpt>
      <trkpt lat="45.98316" lon="3.99587">
        <ele>337.08</ele>
        <time>2016-09-22T12:15:42Z</time>
      </trkpt>
      <trkpt lat="45.98309" lon="3.99559">
        <ele>336.6</ele>
        <time>2016-09-22T12:15:57Z</time>
      </trkpt>
      <trkpt lat="45.98302" lon="3.99532">
        <ele>338.04</ele>
        <time>2016-09-22T12:16:12Z</time>
      </trkpt>
      <trkpt lat="45.98303" lon="3.99529">
        <ele>339</ele>
        <time>2016-09-22T12:16:15Z</time>
      </trkpt>
      <trkpt lat="45.98303" lon="3.99505">
        <ele>341.41</ele>
        <time>2016-09-22T12:16:27Z</time>
      </trkpt>
      <trkpt lat="45.98301" lon="3.99501">
        <ele>341.89</ele>
        <time>2016-09-22T12:16:30Z</time>
      </trkpt>
      <trkpt lat="45.98298" lon="3.99486">
        <ele>341.41</ele>
        <time>2016-09-22T12:16:41Z</time>
      </trkpt>
      <trkpt lat="45.98276" lon="3.99478">
        <ele>340.44</ele>
        <time>2016-09-22T12:16:56Z</time>
      </trkpt>
      <trkpt lat="45.98259" lon="3.99479">
        <ele>344.29</ele>
        <time>2016-09-22T12:17:10Z</time>
      </trkpt>
      <trkpt lat="45.98254" lon="3.99487">
        <ele>347.17</ele>
        <time>2016-09-22T12:17:18Z</time>
      </trkpt>
      <trkpt lat="45.9825" lon="3.99488">
        <ele>348.62</ele>
        <time>2016-09-22T12:17:22Z</time>
      </trkpt>
      <trkpt lat="45.98238" lon="3.99488">
        <ele>356.79</ele>
        <time>2016-09-22T12:17:36Z</time>
      </trkpt>
      <trkpt lat="45.98228" lon="3.99485">
        <ele>358.23</ele>
        <time>2016-09-22T12:17:45Z</time>
      </trkpt>
      <trkpt lat="45.98206" lon="3.99488">
        <ele>359.67</ele>
        <time>2016-09-22T12:18:00Z</time>
      </trkpt>
      <trkpt lat="45.98193" lon="3.99492">
        <ele>361.59</ele>
        <time>2016-09-22T12:18:10Z</time>
      </trkpt>
      <trkpt lat="45.98189" lon="3.99494">
        <ele>363.04</ele>
        <time>2016-09-22T12:18:13Z</time>
      </trkpt>
      <trkpt lat="45.9817" lon="3.99502">
        <ele>364.96</ele>
        <time>2016-09-22T12:18:28Z</time>
      </trkpt>
      <trkpt lat="45.98142" lon="3.99506">
        <ele>363.04</ele>
        <time>2016-09-22T12:18:45Z</time>
      </trkpt>
      <trkpt lat="45.98136" lon="3.99508">
        <ele>363.04</ele>
        <time>2016-09-22T12:18:49Z</time>
      </trkpt>
      <trkpt lat="45.98129" lon="3.99509">
        <ele>362.55</ele>
        <time>2016-09-22T12:18:55Z</time>
      </trkpt>
      <trkpt lat="45.98102" lon="3.99512">
        <ele>361.59</ele>
        <time>2016-09-22T12:19:13Z</time>
      </trkpt>
      <trkpt lat="45.98076" lon="3.99514">
        <ele>363.04</ele>
        <time>2016-09-22T12:19:31Z</time>
      </trkpt>
      <trkpt lat="45.98049" lon="3.99518">
        <ele>366.4</ele>
        <time>2016-09-22T12:19:51Z</time>
      </trkpt>
      <trkpt lat="45.98019" lon="3.99521">
        <ele>366.4</ele>
        <time>2016-09-22T12:20:12Z</time>
      </trkpt>
      <trkpt lat="45.97993" lon="3.99524">
        <ele>365.92</ele>
        <time>2016-09-22T12:20:31Z</time>
      </trkpt>
      <trkpt lat="45.97969" lon="3.99525">
        <ele>368.32</ele>
        <time>2016-09-22T12:20:49Z</time>
      </trkpt>
      <trkpt lat="45.97945" lon="3.99527">
        <ele>369.28</ele>
        <time>2016-09-22T12:21:07Z</time>
      </trkpt>
      <trkpt lat="45.97933" lon="3.99532">
        <ele>370.24</ele>
        <time>2016-09-22T12:21:21Z</time>
      </trkpt>
      <trkpt lat="45.97931" lon="3.99538">
        <ele>369.76</ele>
        <time>2016-09-22T12:21:36Z</time>
      </trkpt>
      <trkpt lat="45.97933" lon="3.99549">
        <ele>369.28</ele>
        <time>2016-09-22T12:21:51Z</time>
      </trkpt>
      <trkpt lat="45.97933" lon="3.99563">
        <ele>369.76</ele>
        <time>2016-09-22T12:22:03Z</time>
      </trkpt>
      <trkpt lat="45.97934" lon="3.99576">
        <ele>369.76</ele>
        <time>2016-09-22T12:22:18Z</time>
      </trkpt>
      <trkpt lat="45.97933" lon="3.99587">
        <ele>369.28</ele>
        <time>2016-09-22T12:22:33Z</time>
      </trkpt>
      <trkpt lat="45.97934" lon="3.99589">
        <ele>368.8</ele>
        <time>2016-09-22T12:22:40Z</time>
      </trkpt>
      <trkpt lat="45.97945" lon="3.99623">
        <ele>368.8</ele>
        <time>2016-09-22T12:23:00Z</time>
      </trkpt>
      <trkpt lat="45.97955" lon="3.99654">
        <ele>366.4</ele>
        <time>2016-09-22T12:23:17Z</time>
      </trkpt>
      <trkpt lat="45.97964" lon="3.99683">
        <ele>365.92</ele>
        <time>2016-09-22T12:23:34Z</time>
      </trkpt>
      <trkpt lat="45.97972" lon="3.99713">
        <ele>364.96</ele>
        <time>2016-09-22T12:23:51Z</time>
      </trkpt>
      <trkpt lat="45.97976" lon="3.99754">
        <ele>365.92</ele>
        <time>2016-09-22T12:24:11Z</time>
      </trkpt>
      <trkpt lat="45.97972" lon="3.99792">
        <ele>366.4</ele>
        <time>2016-09-22T12:24:31Z</time>
      </trkpt>
      <trkpt lat="45.97967" lon="3.99831">
        <ele>366.88</ele>
        <time>2016-09-22T12:24:51Z</time>
      </trkpt>
      <trkpt lat="45.97965" lon="3.99863">
        <ele>367.84</ele>
        <time>2016-09-22T12:25:07Z</time>
      </trkpt>
      <trkpt lat="45.97965" lon="3.99897">
        <ele>369.76</ele>
        <time>2016-09-22T12:25:24Z</time>
      </trkpt>
      <trkpt lat="45.97965" lon="3.99934">
        <ele>370.24</ele>
        <time>2016-09-22T12:25:43Z</time>
      </trkpt>
      <trkpt lat="45.97965" lon="3.99966">
        <ele>370.73</ele>
        <time>2016-09-22T12:25:59Z</time>
      </trkpt>
      <trkpt lat="45.97965" lon="3.99996">
        <ele>371.69</ele>
        <time>2016-09-22T12:26:16Z</time>
      </trkpt>
      <trkpt lat="45.97962" lon="4.00003">
        <ele>372.17</ele>
        <time>2016-09-22T12:26:23Z</time>
      </trkpt>
      <trkpt lat="45.97944" lon="3.99994">
        <ele>374.57</ele>
        <time>2016-09-22T12:26:41Z</time>
      </trkpt>
      <trkpt lat="45.97923" lon="3.9998">
        <ele>375.53</ele>
        <time>2016-09-22T12:26:58Z</time>
      </trkpt>
      <trkpt lat="45.97898" lon="3.99962">
        <ele>376.01</ele>
        <time>2016-09-22T12:27:18Z</time>
      </trkpt>
      <trkpt lat="45.97873" lon="3.99947">
        <ele>377.94</ele>
        <time>2016-09-22T12:27:37Z</time>
      </trkpt>
      <trkpt lat="45.97849" lon="3.99931">
        <ele>379.38</ele>
        <time>2016-09-22T12:27:56Z</time>
      </trkpt>
      <trkpt lat="45.97823" lon="3.99926">
        <ele>379.86</ele>
        <time>2016-09-22T12:28:15Z</time>
      </trkpt>
      <trkpt lat="45.97795" lon="3.99923">
        <ele>381.3</ele>
        <time>2016-09-22T12:28:35Z</time>
      </trkpt>
      <trkpt lat="45.97771" lon="3.99924">
        <ele>384.18</ele>
        <time>2016-09-22T12:28:53Z</time>
      </trkpt>
      <trkpt lat="45.97742" lon="3.99931">
        <ele>386.11</ele>
        <time>2016-09-22T12:29:13Z</time>
      </trkpt>
      <trkpt lat="45.97714" lon="3.99938">
        <ele>387.55</ele>
        <time>2016-09-22T12:29:33Z</time>
      </trkpt>
      <trkpt lat="45.97687" lon="3.99947">
        <ele>388.99</ele>
        <time>2016-09-22T12:29:53Z</time>
      </trkpt>
      <trkpt lat="45.97659" lon="3.9995">
        <ele>391.39</ele>
        <time>2016-09-22T12:30:13Z</time>
      </trkpt>
      <trkpt lat="45.97631" lon="3.99946">
        <ele>393.32</ele>
        <time>2016-09-22T12:30:34Z</time>
      </trkpt>
      <trkpt lat="45.976" lon="3.99941">
        <ele>394.76</ele>
        <time>2016-09-22T12:30:56Z</time>
      </trkpt>
      <trkpt lat="45.97572" lon="3.99936">
        <ele>395.24</ele>
        <time>2016-09-22T12:31:16Z</time>
      </trkpt>
      <trkpt lat="45.97551" lon="3.99934">
        <ele>396.2</ele>
        <time>2016-09-22T12:31:33Z</time>
      </trkpt>
      <trkpt lat="45.97532" lon="3.99932">
        <ele>398.6</ele>
        <time>2016-09-22T12:31:51Z</time>
      </trkpt>
      <trkpt lat="45.97507" lon="3.99931">
        <ele>397.64</ele>
        <time>2016-09-22T12:32:09Z</time>
      </trkpt>
      <trkpt lat="45.97485" lon="3.99933">
        <ele>394.76</ele>
        <time>2016-09-22T12:32:26Z</time>
      </trkpt>
      <trkpt lat="45.97465" lon="3.99933">
        <ele>393.8</ele>
        <time>2016-09-22T12:32:42Z</time>
      </trkpt>
      <trkpt lat="45.97441" lon="3.99934">
        <ele>394.28</ele>
        <time>2016-09-22T12:33:00Z</time>
      </trkpt>
      <trkpt lat="45.97409" lon="3.99937">
        <ele>391.87</ele>
        <time>2016-09-22T12:33:23Z</time>
      </trkpt>
      <trkpt lat="45.97382" lon="3.99937">
        <ele>392.36</ele>
        <time>2016-09-22T12:33:43Z</time>
      </trkpt>
      <trkpt lat="45.97355" lon="3.99936">
        <ele>391.87</ele>
        <time>2016-09-22T12:34:02Z</time>
      </trkpt>
      <trkpt lat="45.97331" lon="3.99936">
        <ele>389.47</ele>
        <time>2016-09-22T12:34:21Z</time>
      </trkpt>
      <trkpt lat="45.97318" lon="3.99936">
        <ele>388.51</ele>
        <time>2016-09-22T12:34:36Z</time>
      </trkpt>
      <trkpt lat="45.97315" lon="3.9994">
        <ele>388.03</ele>
        <time>2016-09-22T12:34:46Z</time>
      </trkpt>
      <trkpt lat="45.97313" lon="3.99977">
        <ele>386.59</ele>
        <time>2016-09-22T12:35:05Z</time>
      </trkpt>
      <trkpt lat="45.9731" lon="4.00007">
        <ele>386.11</ele>
        <time>2016-09-22T12:35:21Z</time>
      </trkpt>
      <trkpt lat="45.97308" lon="4.00047">
        <ele>383.22</ele>
        <time>2016-09-22T12:35:41Z</time>
      </trkpt>
      <trkpt lat="45.97305" lon="4.0008">
        <ele>380.82</ele>
        <time>2016-09-22T12:35:59Z</time>
      </trkpt>
      <trkpt lat="45.97302" lon="4.00101">
        <ele>381.3</ele>
        <time>2016-09-22T12:36:14Z</time>
      </trkpt>
      <trkpt lat="45.97302" lon="4.00103">
        <ele>381.3</ele>
        <time>2016-09-22T12:36:15Z</time>
      </trkpt>
      <trkpt lat="45.97302" lon="4.00108">
        <ele>381.3</ele>
        <time>2016-09-22T12:36:18Z</time>
      </trkpt>
      <trkpt lat="45.97298" lon="4.00128">
        <ele>381.3</ele>
        <time>2016-09-22T12:36:32Z</time>
      </trkpt>
      <trkpt lat="45.97291" lon="4.00158">
        <ele>378.42</ele>
        <time>2016-09-22T12:36:50Z</time>
      </trkpt>
      <trkpt lat="45.97277" lon="4.00179">
        <ele>379.38</ele>
        <time>2016-09-22T12:37:07Z</time>
      </trkpt>
      <trkpt lat="45.97256" lon="4.00196">
        <ele>380.34</ele>
        <time>2016-09-22T12:37:25Z</time>
      </trkpt>
      <trkpt lat="45.97238" lon="4.00208">
        <ele>380.34</ele>
        <time>2016-09-22T12:37:39Z</time>
      </trkpt>
      <trkpt lat="45.97221" lon="4.00229">
        <ele>381.78</ele>
        <time>2016-09-22T12:37:55Z</time>
      </trkpt>
      <trkpt lat="45.97212" lon="4.00265">
        <ele>381.78</ele>
        <time>2016-09-22T12:38:13Z</time>
      </trkpt>
      <trkpt lat="45.97213" lon="4.00297">
        <ele>382.26</ele>
        <time>2016-09-22T12:38:29Z</time>
      </trkpt>
      <trkpt lat="45.97208" lon="4.00322">
        <ele>384.66</ele>
        <time>2016-09-22T12:38:45Z</time>
      </trkpt>
      <trkpt lat="45.97192" lon="4.00336">
        <ele>384.66</ele>
        <time>2016-09-22T12:39:02Z</time>
      </trkpt>
      <trkpt lat="45.97184" lon="4.0034">
        <ele>383.7</ele>
        <time>2016-09-22T12:39:17Z</time>
      </trkpt>
      <trkpt lat="45.97169" lon="4.00344">
        <ele>385.15</ele>
        <time>2016-09-22T12:39:34Z</time>
      </trkpt>
      <trkpt lat="45.97151" lon="4.00349">
        <ele>386.59</ele>
        <time>2016-09-22T12:39:52Z</time>
      </trkpt>
      <trkpt lat="45.97138" lon="4.00346">
        <ele>387.55</ele>
        <time>2016-09-22T12:40:04Z</time>
      </trkpt>
      <trkpt lat="45.9712" lon="4.00334">
        <ele>385.63</ele>
        <time>2016-09-22T12:40:19Z</time>
      </trkpt>
      <trkpt lat="45.97099" lon="4.0032">
        <ele>385.15</ele>
        <time>2016-09-22T12:40:37Z</time>
      </trkpt>
      <trkpt lat="45.97083" lon="4.00313">
        <ele>385.63</ele>
        <time>2016-09-22T12:40:52Z</time>
      </trkpt>
      <trkpt lat="45.97078" lon="4.00321">
        <ele>385.15</ele>
        <time>2016-09-22T12:41:06Z</time>
      </trkpt>
      <trkpt lat="45.97073" lon="4.00323">
        <ele>385.63</ele>
        <time>2016-09-22T12:41:11Z</time>
      </trkpt>
      <trkpt lat="45.97065" lon="4.00326">
        <ele>384.66</ele>
        <time>2016-09-22T12:41:17Z</time>
      </trkpt>
      <trkpt lat="45.97046" lon="4.00325">
        <ele>386.59</ele>
        <time>2016-09-22T12:41:34Z</time>
      </trkpt>
      <trkpt lat="45.97019" lon="4.00323">
        <ele>380.82</ele>
        <time>2016-09-22T12:41:51Z</time>
      </trkpt>
      <trkpt lat="45.97015" lon="4.00324">
        <ele>379.86</ele>
        <time>2016-09-22T12:41:54Z</time>
      </trkpt>
      <trkpt lat="45.97008" lon="4.00326">
        <ele>378.9</ele>
        <time>2016-09-22T12:41:58Z</time>
      </trkpt>
      <trkpt lat="45.97003" lon="4.00328">
        <ele>377.94</ele>
        <time>2016-09-22T12:42:01Z</time>
      </trkpt>
      <trkpt lat="45.96981" lon="4.00326">
        <ele>372.65</ele>
        <time>2016-09-22T12:42:18Z</time>
      </trkpt>
      <trkpt lat="45.96964" lon="4.00327">
        <ele>375.05</ele>
        <time>2016-09-22T12:42:32Z</time>
      </trkpt>
      <trkpt lat="45.9694" lon="4.00332">
        <ele>375.05</ele>
        <time>2016-09-22T12:42:50Z</time>
      </trkpt>
      <trkpt lat="45.96919" lon="4.00333">
        <ele>373.13</ele>
        <time>2016-09-22T12:43:05Z</time>
      </trkpt>
      <trkpt lat="45.96908" lon="4.00352">
        <ele>373.13</ele>
        <time>2016-09-22T12:43:21Z</time>
      </trkpt>
      <trkpt lat="45.96909" lon="4.00371">
        <ele>374.09</ele>
        <time>2016-09-22T12:43:35Z</time>
      </trkpt>
      <trkpt lat="45.96919" lon="4.00394">
        <ele>377.45</ele>
        <time>2016-09-22T12:43:50Z</time>
      </trkpt>
      <trkpt lat="45.96927" lon="4.00408">
        <ele>380.34</ele>
        <time>2016-09-22T12:44:00Z</time>
      </trkpt>
      <trkpt lat="45.9693" lon="4.00421">
        <ele>385.15</ele>
        <time>2016-09-22T12:44:09Z</time>
      </trkpt>
      <trkpt lat="45.96927" lon="4.00434">
        <ele>388.99</ele>
        <time>2016-09-22T12:44:18Z</time>
      </trkpt>
      <trkpt lat="45.96925" lon="4.0044">
        <ele>389.47</ele>
        <time>2016-09-22T12:44:22Z</time>
      </trkpt>
      <trkpt lat="45.96924" lon="4.00446">
        <ele>390.43</ele>
        <time>2016-09-22T12:44:25Z</time>
      </trkpt>
      <trkpt lat="45.96918" lon="4.00475">
        <ele>388.51</ele>
        <time>2016-09-22T12:44:40Z</time>
      </trkpt>
      <trkpt lat="45.96909" lon="4.00505">
        <ele>385.63</ele>
        <time>2016-09-22T12:44:56Z</time>
      </trkpt>
      <trkpt lat="45.96899" lon="4.00536">
        <ele>384.66</ele>
        <time>2016-09-22T12:45:13Z</time>
      </trkpt>
      <trkpt lat="45.96893" lon="4.0056">
        <ele>385.15</ele>
        <time>2016-09-22T12:45:26Z</time>
      </trkpt>
      <trkpt lat="45.96876" lon="4.00576">
        <ele>383.7</ele>
        <time>2016-09-22T12:45:42Z</time>
      </trkpt>
      <trkpt lat="45.96859" lon="4.00592">
        <ele>384.66</ele>
        <time>2016-09-22T12:45:58Z</time>
      </trkpt>
      <trkpt lat="45.96845" lon="4.00605">
        <ele>388.03</ele>
        <time>2016-09-22T12:46:11Z</time>
      </trkpt>
      <trkpt lat="45.96825" lon="4.00618">
        <ele>391.39</ele>
        <time>2016-09-22T12:46:26Z</time>
      </trkpt>
      <trkpt lat="45.96818" lon="4.00622">
        <ele>392.36</ele>
        <time>2016-09-22T12:46:31Z</time>
      </trkpt>
      <trkpt lat="45.96806" lon="4.00636">
        <ele>395.72</ele>
        <time>2016-09-22T12:46:43Z</time>
      </trkpt>
      <trkpt lat="45.96798" lon="4.00668">
        <ele>396.2</ele>
        <time>2016-09-22T12:46:59Z</time>
      </trkpt>
      <trkpt lat="45.96798" lon="4.00672">
        <ele>396.2</ele>
        <time>2016-09-22T12:47:01Z</time>
      </trkpt>
      <trkpt lat="45.96788" lon="4.00698">
        <ele>394.28</ele>
        <time>2016-09-22T12:47:17Z</time>
      </trkpt>
      <trkpt lat="45.96773" lon="4.00727">
        <ele>391.87</ele>
        <time>2016-09-22T12:47:34Z</time>
      </trkpt>
      <trkpt lat="45.96758" lon="4.00749">
        <ele>393.8</ele>
        <time>2016-09-22T12:47:49Z</time>
      </trkpt>
      <trkpt lat="45.96743" lon="4.00767">
        <ele>393.32</ele>
        <time>2016-09-22T12:48:06Z</time>
      </trkpt>
      <trkpt lat="45.96725" lon="4.00776">
        <ele>394.28</ele>
        <time>2016-09-22T12:48:23Z</time>
      </trkpt>
      <trkpt lat="45.96705" lon="4.00788">
        <ele>391.87</ele>
        <time>2016-09-22T12:48:41Z</time>
      </trkpt>
      <trkpt lat="45.96681" lon="4.00792">
        <ele>392.84</ele>
        <time>2016-09-22T12:49:00Z</time>
      </trkpt>
      <trkpt lat="45.9666" lon="4.00799">
        <ele>397.16</ele>
        <time>2016-09-22T12:49:17Z</time>
      </trkpt>
      <trkpt lat="45.96644" lon="4.008">
        <ele>401.97</ele>
        <time>2016-09-22T12:49:35Z</time>
      </trkpt>
      <trkpt lat="45.96637" lon="4.00801">
        <ele>405.33</ele>
        <time>2016-09-22T12:49:46Z</time>
      </trkpt>
      <trkpt lat="45.96649" lon="4.00813">
        <ele>406.29</ele>
        <time>2016-09-22T12:49:57Z</time>
      </trkpt>
      <trkpt lat="45.96644" lon="4.00819">
        <ele>406.77</ele>
        <time>2016-09-22T12:50:10Z</time>
      </trkpt>
      <trkpt lat="45.96637" lon="4.00824">
        <ele>410.62</ele>
        <time>2016-09-22T12:50:25Z</time>
      </trkpt>
      <trkpt lat="45.96637" lon="4.00824">
        <ele>411.1</ele>
        <time>2016-09-22T12:50:26Z</time>
      </trkpt>
      <trkpt lat="45.96622" lon="4.00831">
        <ele>413.98</ele>
        <time>2016-09-22T12:50:37Z</time>
      </trkpt>
      <trkpt lat="45.96613" lon="4.00845">
        <ele>416.39</ele>
        <time>2016-09-22T12:50:48Z</time>
      </trkpt>
      <trkpt lat="45.96598" lon="4.00845">
        <ele>413.5</ele>
        <time>2016-09-22T12:51:03Z</time>
      </trkpt>
      <trkpt lat="45.96589" lon="4.00847">
        <ele>413.02</ele>
        <time>2016-09-22T12:51:10Z</time>
      </trkpt>
      <trkpt lat="45.96573" lon="4.00848">
        <ele>407.74</ele>
        <time>2016-09-22T12:51:23Z</time>
      </trkpt>
      <trkpt lat="45.96566" lon="4.00852">
        <ele>403.89</ele>
        <time>2016-09-22T12:51:30Z</time>
      </trkpt>
      <trkpt lat="45.9656" lon="4.00865">
        <ele>402.45</ele>
        <time>2016-09-22T12:51:45Z</time>
      </trkpt>
      <trkpt lat="45.96559" lon="4.00867">
        <ele>402.45</ele>
        <time>2016-09-22T12:51:48Z</time>
      </trkpt>
      <trkpt lat="45.96555" lon="4.00871">
        <ele>401.97</ele>
        <time>2016-09-22T12:51:54Z</time>
      </trkpt>
      <trkpt lat="45.96538" lon="4.00888">
        <ele>394.28</ele>
        <time>2016-09-22T12:52:14Z</time>
      </trkpt>
      <trkpt lat="45.96518" lon="4.0089">
        <ele>390.43</ele>
        <time>2016-09-22T12:52:31Z</time>
      </trkpt>
      <trkpt lat="45.96504" lon="4.00884">
        <ele>388.51</ele>
        <time>2016-09-22T12:52:47Z</time>
      </trkpt>
      <trkpt lat="45.96493" lon="4.00881">
        <ele>385.63</ele>
        <time>2016-09-22T12:53:01Z</time>
      </trkpt>
      <trkpt lat="45.96492" lon="4.00882">
        <ele>384.66</ele>
        <time>2016-09-22T12:53:20Z</time>
      </trkpt>
      <trkpt lat="45.96492" lon="4.00889">
        <ele>383.22</ele>
        <time>2016-09-22T12:53:41Z</time>
      </trkpt>
      <trkpt lat="45.9649" lon="4.00907">
        <ele>380.34</ele>
        <time>2016-09-22T12:53:57Z</time>
      </trkpt>
      <trkpt lat="45.96491" lon="4.00908">
        <ele>379.86</ele>
        <time>2016-09-22T12:54:01Z</time>
      </trkpt>
      <trkpt lat="45.96488" lon="4.0092">
        <ele>379.86</ele>
        <time>2016-09-22T12:54:19Z</time>
      </trkpt>
      <trkpt lat="45.96488" lon="4.0092">
        <ele>379.86</ele>
        <time>2016-09-22T12:54:22Z</time>
      </trkpt>
      <trkpt lat="45.96485" lon="4.00939">
        <ele>379.86</ele>
        <time>2016-09-22T12:54:30Z</time>
      </trkpt>
      <trkpt lat="45.96476" lon="4.00961">
        <ele>379.38</ele>
        <time>2016-09-22T12:54:45Z</time>
      </trkpt>
      <trkpt lat="45.96464" lon="4.00968">
        <ele>380.82</ele>
        <time>2016-09-22T12:54:58Z</time>
      </trkpt>
      <trkpt lat="45.96461" lon="4.0097">
        <ele>377.45</ele>
        <time>2016-09-22T12:55:11Z</time>
      </trkpt>
      <trkpt lat="45.96459" lon="4.00987">
        <ele>377.45</ele>
        <time>2016-09-22T12:55:23Z</time>
      </trkpt>
      <trkpt lat="45.96458" lon="4.00995">
        <ele>377.45</ele>
        <time>2016-09-22T12:55:27Z</time>
      </trkpt>
      <trkpt lat="45.9645" lon="4.01022">
        <ele>375.53</ele>
        <time>2016-09-22T12:55:42Z</time>
      </trkpt>
      <trkpt lat="45.96446" lon="4.01027">
        <ele>374.09</ele>
        <time>2016-09-22T12:55:47Z</time>
      </trkpt>
      <trkpt lat="45.96442" lon="4.01031">
        <ele>373.13</ele>
        <time>2016-09-22T12:55:51Z</time>
      </trkpt>
      <trkpt lat="45.9644" lon="4.01035">
        <ele>371.69</ele>
        <time>2016-09-22T12:55:54Z</time>
      </trkpt>
      <trkpt lat="45.96439" lon="4.01039">
        <ele>370.24</ele>
        <time>2016-09-22T12:55:57Z</time>
      </trkpt>
      <trkpt lat="45.9644" lon="4.01055">
        <ele>368.8</ele>
        <time>2016-09-22T12:56:06Z</time>
      </trkpt>
      <trkpt lat="45.96436" lon="4.01067">
        <ele>368.8</ele>
        <time>2016-09-22T12:56:12Z</time>
      </trkpt>
      <trkpt lat="45.96435" lon="4.01071">
        <ele>368.8</ele>
        <time>2016-09-22T12:56:14Z</time>
      </trkpt>
      <trkpt lat="45.96435" lon="4.01094">
        <ele>370.24</ele>
        <time>2016-09-22T12:56:29Z</time>
      </trkpt>
      <trkpt lat="45.96434" lon="4.01097">
        <ele>370.24</ele>
        <time>2016-09-22T12:56:32Z</time>
      </trkpt>
      <trkpt lat="45.96441" lon="4.01118">
        <ele>371.21</ele>
        <time>2016-09-22T12:56:42Z</time>
      </trkpt>
      <trkpt lat="45.96451" lon="4.01131">
        <ele>368.8</ele>
        <time>2016-09-22T12:56:55Z</time>
      </trkpt>
      <trkpt lat="45.96457" lon="4.01131">
        <ele>367.84</ele>
        <time>2016-09-22T12:57:09Z</time>
      </trkpt>
      <trkpt lat="45.96469" lon="4.01127">
        <ele>369.76</ele>
        <time>2016-09-22T12:57:24Z</time>
      </trkpt>
      <trkpt lat="45.96474" lon="4.0113">
        <ele>368.32</ele>
        <time>2016-09-22T12:57:36Z</time>
      </trkpt>
      <trkpt lat="45.96477" lon="4.01125">
        <ele>368.8</ele>
        <time>2016-09-22T12:57:48Z</time>
      </trkpt>
      <trkpt lat="45.96477" lon="4.01118">
        <ele>371.69</ele>
        <time>2016-09-22T12:57:53Z</time>
      </trkpt>
      <trkpt lat="45.96477" lon="4.01098">
        <ele>379.38</ele>
        <time>2016-09-22T12:58:08Z</time>
      </trkpt>
      <trkpt lat="45.96473" lon="4.01078">
        <ele>384.66</ele>
        <time>2016-09-22T12:58:23Z</time>
      </trkpt>
      <trkpt lat="45.96476" lon="4.01073">
        <ele>387.07</ele>
        <time>2016-09-22T12:58:36Z</time>
      </trkpt>
      <trkpt lat="45.9648" lon="4.01072">
        <ele>387.07</ele>
        <time>2016-09-22T12:58:41Z</time>
      </trkpt>
      <trkpt lat="45.96488" lon="4.01071">
        <ele>387.55</ele>
        <time>2016-09-22T12:58:56Z</time>
      </trkpt>
      <trkpt lat="45.96482" lon="4.01069">
        <ele>382.74</ele>
        <time>2016-09-22T12:59:10Z</time>
      </trkpt>
      <trkpt lat="45.96483" lon="4.0107">
        <ele>380.34</ele>
        <time>2016-09-22T12:59:29Z</time>
      </trkpt>
      <trkpt lat="45.96483" lon="4.01069">
        <ele>379.38</ele>
        <time>2016-09-22T13:00:09Z</time>
      </trkpt>
      <trkpt lat="45.96482" lon="4.0107">
        <ele>378.42</ele>
        <time>2016-09-22T13:00:30Z</time>
      </trkpt>
      <trkpt lat="45.96482" lon="4.01072">
        <ele>378.42</ele>
        <time>2016-09-22T13:01:04Z</time>
      </trkpt>
      <trkpt lat="45.96482" lon="4.01073">
        <ele>378.42</ele>
        <time>2016-09-22T13:01:34Z</time>
      </trkpt>
      <trkpt lat="45.96482" lon="4.01073">
        <ele>377.94</ele>
        <time>2016-09-22T13:02:07Z</time>
      </trkpt>
      <trkpt lat="45.96482" lon="4.01074">
        <ele>377.45</ele>
        <time>2016-09-22T13:02:40Z</time>
      </trkpt>
      <trkpt lat="45.96481" lon="4.01074">
        <ele>377.45</ele>
        <time>2016-09-22T13:03:17Z</time>
      </trkpt>
      <trkpt lat="45.96481" lon="4.01074">
        <ele>376.49</ele>
        <time>2016-09-22T13:03:47Z</time>
      </trkpt>
      <trkpt lat="45.96482" lon="4.01072">
        <ele>376.49</ele>
        <time>2016-09-22T13:04:15Z</time>
      </trkpt>
      <trkpt lat="45.96481" lon="4.01072">
        <ele>376.97</ele>
        <time>2016-09-22T13:04:43Z</time>
      </trkpt>
      <trkpt lat="45.96481" lon="4.01072">
        <ele>376.97</ele>
        <time>2016-09-22T13:05:09Z</time>
      </trkpt>
      <trkpt lat="45.96481" lon="4.01072">
        <ele>376.97</ele>
        <time>2016-09-22T13:05:32Z</time>
      </trkpt>
      <trkpt lat="45.96481" lon="4.01071">
        <ele>376.49</ele>
        <time>2016-09-22T13:05:58Z</time>
      </trkpt>
      <trkpt lat="45.9648" lon="4.01071">
        <ele>376.01</ele>
        <time>2016-09-22T13:06:28Z</time>
      </trkpt>
      <trkpt lat="45.9648" lon="4.01069">
        <ele>375.53</ele>
        <time>2016-09-22T13:07:02Z</time>
      </trkpt>
      <trkpt lat="45.9648" lon="4.01069">
        <ele>374.09</ele>
        <time>2016-09-22T13:07:32Z</time>
      </trkpt>
      <trkpt lat="45.9648" lon="4.01069">
        <ele>375.05</ele>
        <time>2016-09-22T13:07:52Z</time>
      </trkpt>
      <trkpt lat="45.96479" lon="4.01067">
        <ele>376.01</ele>
        <time>2016-09-22T13:08:03Z</time>
      </trkpt>
      <trkpt lat="45.96475" lon="4.01068">
        <ele>376.49</ele>
        <time>2016-09-22T13:08:16Z</time>
      </trkpt>
      <trkpt lat="45.96471" lon="4.01074">
        <ele>375.53</ele>
        <time>2016-09-22T13:08:29Z</time>
      </trkpt>
      <trkpt lat="45.96472" lon="4.01077">
        <ele>375.53</ele>
        <time>2016-09-22T13:08:31Z</time>
      </trkpt>
      <trkpt lat="45.96476" lon="4.01095">
        <ele>375.05</ele>
        <time>2016-09-22T13:08:48Z</time>
      </trkpt>
      <trkpt lat="45.96476" lon="4.01114">
        <ele>376.49</ele>
        <time>2016-09-22T13:09:03Z</time>
      </trkpt>
      <trkpt lat="45.96475" lon="4.01121">
        <ele>376.49</ele>
        <time>2016-09-22T13:09:09Z</time>
      </trkpt>
      <trkpt lat="45.96475" lon="4.01131">
        <ele>374.57</ele>
        <time>2016-09-22T13:09:21Z</time>
      </trkpt>
      <trkpt lat="45.96473" lon="4.01142">
        <ele>373.61</ele>
        <time>2016-09-22T13:09:37Z</time>
      </trkpt>
      <trkpt lat="45.96475" lon="4.01146">
        <ele>374.09</ele>
        <time>2016-09-22T13:09:50Z</time>
      </trkpt>
      <trkpt lat="45.96476" lon="4.01159">
        <ele>379.38</ele>
        <time>2016-09-22T13:10:08Z</time>
      </trkpt>
      <trkpt lat="45.96481" lon="4.01184">
        <ele>374.57</ele>
        <time>2016-09-22T13:10:23Z</time>
      </trkpt>
      <trkpt lat="45.96485" lon="4.01194">
        <ele>371.21</ele>
        <time>2016-09-22T13:10:34Z</time>
      </trkpt>
      <trkpt lat="45.96487" lon="4.01196">
        <ele>367.84</ele>
        <time>2016-09-22T13:10:50Z</time>
      </trkpt>
      <trkpt lat="45.96489" lon="4.01197">
        <ele>365.44</ele>
        <time>2016-09-22T13:11:02Z</time>
      </trkpt>
      <trkpt lat="45.96488" lon="4.01197">
        <ele>364</ele>
        <time>2016-09-22T13:11:28Z</time>
      </trkpt>
      <trkpt lat="45.96488" lon="4.01197">
        <ele>364.48</ele>
        <time>2016-09-22T13:11:54Z</time>
      </trkpt>
      <trkpt lat="45.96488" lon="4.01198">
        <ele>364</ele>
        <time>2016-09-22T13:12:12Z</time>
      </trkpt>
      <trkpt lat="45.96488" lon="4.01197">
        <ele>363.04</ele>
        <time>2016-09-22T13:12:36Z</time>
      </trkpt>
      <trkpt lat="45.96488" lon="4.01198">
        <ele>362.07</ele>
        <time>2016-09-22T13:12:59Z</time>
      </trkpt>
      <trkpt lat="45.96488" lon="4.01199">
        <ele>361.59</ele>
        <time>2016-09-22T13:13:24Z</time>
      </trkpt>
      <trkpt lat="45.9649" lon="4.01196">
        <ele>361.11</ele>
        <time>2016-09-22T13:13:39Z</time>
      </trkpt>
      <trkpt lat="45.96492" lon="4.01193">
        <ele>362.07</ele>
        <time>2016-09-22T13:13:50Z</time>
      </trkpt>
      <trkpt lat="45.96492" lon="4.01193">
        <ele>362.55</ele>
        <time>2016-09-22T13:14:12Z</time>
      </trkpt>
      <trkpt lat="45.9649" lon="4.01193">
        <ele>362.07</ele>
        <time>2016-09-22T13:14:28Z</time>
      </trkpt>
      <trkpt lat="45.96489" lon="4.01197">
        <ele>362.07</ele>
        <time>2016-09-22T13:14:42Z</time>
      </trkpt>
      <trkpt lat="45.9649" lon="4.01203">
        <ele>361.11</ele>
        <time>2016-09-22T13:15:00Z</time>
      </trkpt>
      <trkpt lat="45.9649" lon="4.01203">
        <ele>361.59</ele>
        <time>2016-09-22T13:15:27Z</time>
      </trkpt>
      <trkpt lat="45.96489" lon="4.01201">
        <ele>361.11</ele>
        <time>2016-09-22T13:15:53Z</time>
      </trkpt>
      <trkpt lat="45.9649" lon="4.01202">
        <ele>360.63</ele>
        <time>2016-09-22T13:16:36Z</time>
      </trkpt>
      <trkpt lat="45.9649" lon="4.01204">
        <ele>361.11</ele>
        <time>2016-09-22T13:17:15Z</time>
      </trkpt>
      <trkpt lat="45.96487" lon="4.01201">
        <ele>361.59</ele>
        <time>2016-09-22T13:17:28Z</time>
      </trkpt>
      <trkpt lat="45.96482" lon="4.01196">
        <ele>361.11</ele>
        <time>2016-09-22T13:17:42Z</time>
      </trkpt>
      <trkpt lat="45.96474" lon="4.01193">
        <ele>362.07</ele>
        <time>2016-09-22T13:17:59Z</time>
      </trkpt>
      <trkpt lat="45.96466" lon="4.01181">
        <ele>364.96</ele>
        <time>2016-09-22T13:18:14Z</time>
      </trkpt>
      <trkpt lat="45.96466" lon="4.01168">
        <ele>368.8</ele>
        <time>2016-09-22T13:18:30Z</time>
      </trkpt>
      <trkpt lat="45.96461" lon="4.01163">
        <ele>371.21</ele>
        <time>2016-09-22T13:18:45Z</time>
      </trkpt>
      <trkpt lat="45.96453" lon="4.01153">
        <ele>378.42</ele>
        <time>2016-09-22T13:19:01Z</time>
      </trkpt>
      <trkpt lat="45.9645" lon="4.01157">
        <ele>381.3</ele>
        <time>2016-09-22T13:19:14Z</time>
      </trkpt>
      <trkpt lat="45.96449" lon="4.01159">
        <ele>370.73</ele>
        <time>2016-09-22T13:19:29Z</time>
      </trkpt>
      <trkpt lat="45.96451" lon="4.0116">
        <ele>370.24</ele>
        <time>2016-09-22T13:19:45Z</time>
      </trkpt>
      <trkpt lat="45.96456" lon="4.01165">
        <ele>364.96</ele>
        <time>2016-09-22T13:20:00Z</time>
      </trkpt>
      <trkpt lat="45.96463" lon="4.01163">
        <ele>368.8</ele>
        <time>2016-09-22T13:20:13Z</time>
      </trkpt>
      <trkpt lat="45.96463" lon="4.01163">
        <ele>368.8</ele>
        <time>2016-09-22T13:20:17Z</time>
      </trkpt>
      <trkpt lat="45.96451" lon="4.0116">
        <ele>372.65</ele>
        <time>2016-09-22T13:20:32Z</time>
      </trkpt>
      <trkpt lat="45.96446" lon="4.01162">
        <ele>375.53</ele>
        <time>2016-09-22T13:20:45Z</time>
      </trkpt>
      <trkpt lat="45.96445" lon="4.01161">
        <ele>375.05</ele>
        <time>2016-09-22T13:21:03Z</time>
      </trkpt>
      <trkpt lat="45.96443" lon="4.0116">
        <ele>377.45</ele>
        <time>2016-09-22T13:21:17Z</time>
      </trkpt>
      <trkpt lat="45.96441" lon="4.01159">
        <ele>375.53</ele>
        <time>2016-09-22T13:21:35Z</time>
      </trkpt>
      <trkpt lat="45.96443" lon="4.01167">
        <ele>371.69</ele>
        <time>2016-09-22T13:21:50Z</time>
      </trkpt>
      <trkpt lat="45.96441" lon="4.01165">
        <ele>368.8</ele>
        <time>2016-09-22T13:22:07Z</time>
      </trkpt>
      <trkpt lat="45.96439" lon="4.01166">
        <ele>365.92</ele>
        <time>2016-09-22T13:22:24Z</time>
      </trkpt>
      <trkpt lat="45.96439" lon="4.0117">
        <ele>365.44</ele>
        <time>2016-09-22T13:22:30Z</time>
      </trkpt>
      <trkpt lat="45.96436" lon="4.01192">
        <ele>363.52</ele>
        <time>2016-09-22T13:22:44Z</time>
      </trkpt>
      <trkpt lat="45.96435" lon="4.01196">
        <ele>363.52</ele>
        <time>2016-09-22T13:22:47Z</time>
      </trkpt>
      <trkpt lat="45.96439" lon="4.01225">
        <ele>364.96</ele>
        <time>2016-09-22T13:23:05Z</time>
      </trkpt>
      <trkpt lat="45.96442" lon="4.01235">
        <ele>361.59</ele>
        <time>2016-09-22T13:23:21Z</time>
      </trkpt>
      <trkpt lat="45.96442" lon="4.01237">
        <ele>360.63</ele>
        <time>2016-09-22T13:23:38Z</time>
      </trkpt>
      <trkpt lat="45.96443" lon="4.01241">
        <ele>359.19</ele>
        <time>2016-09-22T13:23:56Z</time>
      </trkpt>
      <trkpt lat="45.96445" lon="4.01249">
        <ele>352.94</ele>
        <time>2016-09-22T13:24:13Z</time>
      </trkpt>
      <trkpt lat="45.96445" lon="4.01269">
        <ele>350.06</ele>
        <time>2016-09-22T13:24:27Z</time>
      </trkpt>
      <trkpt lat="45.96445" lon="4.01291">
        <ele>347.65</ele>
        <time>2016-09-22T13:24:41Z</time>
      </trkpt>
      <trkpt lat="45.96446" lon="4.01316">
        <ele>346.69</ele>
        <time>2016-09-22T13:24:58Z</time>
      </trkpt>
      <trkpt lat="45.96446" lon="4.01333">
        <ele>346.21</ele>
        <time>2016-09-22T13:25:09Z</time>
      </trkpt>
      <trkpt lat="45.96438" lon="4.0135">
        <ele>343.81</ele>
        <time>2016-09-22T13:25:24Z</time>
      </trkpt>
      <trkpt lat="45.96436" lon="4.0136">
        <ele>340.92</ele>
        <time>2016-09-22T13:25:38Z</time>
      </trkpt>
      <trkpt lat="45.96431" lon="4.01363">
        <ele>338.52</ele>
        <time>2016-09-22T13:25:51Z</time>
      </trkpt>
      <trkpt lat="45.96429" lon="4.01361">
        <ele>339</ele>
        <time>2016-09-22T13:25:58Z</time>
      </trkpt>
      <trkpt lat="45.96425" lon="4.01357">
        <ele>337.56</ele>
        <time>2016-09-22T13:26:03Z</time>
      </trkpt>
      <trkpt lat="45.96416" lon="4.01342">
        <ele>335.64</ele>
        <time>2016-09-22T13:26:20Z</time>
      </trkpt>
      <trkpt lat="45.96415" lon="4.01336">
        <ele>334.68</ele>
        <time>2016-09-22T13:26:25Z</time>
      </trkpt>
      <trkpt lat="45.96416" lon="4.01323">
        <ele>331.31</ele>
        <time>2016-09-22T13:26:34Z</time>
      </trkpt>
      <trkpt lat="45.96414" lon="4.01289">
        <ele>330.35</ele>
        <time>2016-09-22T13:26:51Z</time>
      </trkpt>
      <trkpt lat="45.96405" lon="4.01264">
        <ele>333.23</ele>
        <time>2016-09-22T13:27:07Z</time>
      </trkpt>
      <trkpt lat="45.96398" lon="4.01242">
        <ele>333.23</ele>
        <time>2016-09-22T13:27:21Z</time>
      </trkpt>
      <trkpt lat="45.96397" lon="4.01239">
        <ele>333.23</ele>
        <time>2016-09-22T13:27:23Z</time>
      </trkpt>
      <trkpt lat="45.96386" lon="4.01212">
        <ele>335.64</ele>
        <time>2016-09-22T13:27:40Z</time>
      </trkpt>
      <trkpt lat="45.96378" lon="4.01196">
        <ele>335.64</ele>
        <time>2016-09-22T13:27:50Z</time>
      </trkpt>
      <trkpt lat="45.96374" lon="4.01188">
        <ele>335.64</ele>
        <time>2016-09-22T13:27:55Z</time>
      </trkpt>
      <trkpt lat="45.96372" lon="4.01182">
        <ele>335.16</ele>
        <time>2016-09-22T13:27:58Z</time>
      </trkpt>
      <trkpt lat="45.96364" lon="4.01154">
        <ele>331.79</ele>
        <time>2016-09-22T13:28:14Z</time>
      </trkpt>
      <trkpt lat="45.96361" lon="4.01131">
        <ele>332.27</ele>
        <time>2016-09-22T13:28:25Z</time>
      </trkpt>
      <trkpt lat="45.9636" lon="4.01125">
        <ele>331.79</ele>
        <time>2016-09-22T13:28:34Z</time>
      </trkpt>
      <trkpt lat="45.96359" lon="4.01118">
        <ele>332.27</ele>
        <time>2016-09-22T13:28:38Z</time>
      </trkpt>
      <trkpt lat="45.96355" lon="4.01081">
        <ele>332.27</ele>
        <time>2016-09-22T13:28:57Z</time>
      </trkpt>
      <trkpt lat="45.96351" lon="4.01054">
        <ele>335.64</ele>
        <time>2016-09-22T13:29:14Z</time>
      </trkpt>
      <trkpt lat="45.96352" lon="4.01028">
        <ele>333.23</ele>
        <time>2016-09-22T13:29:31Z</time>
      </trkpt>
      <trkpt lat="45.96351" lon="4.01015">
        <ele>331.79</ele>
        <time>2016-09-22T13:29:39Z</time>
      </trkpt>
      <trkpt lat="45.9634" lon="4.00983">
        <ele>331.31</ele>
        <time>2016-09-22T13:29:57Z</time>
      </trkpt>
      <trkpt lat="45.96327" lon="4.00959">
        <ele>332.75</ele>
        <time>2016-09-22T13:30:14Z</time>
      </trkpt>
      <trkpt lat="45.96314" lon="4.00947">
        <ele>333.23</ele>
        <time>2016-09-22T13:30:27Z</time>
      </trkpt>
      <trkpt lat="45.96309" lon="4.00947">
        <ele>326.99</ele>
        <time>2016-09-22T13:30:39Z</time>
      </trkpt>
      <trkpt lat="45.96305" lon="4.00945">
        <ele>326.99</ele>
        <time>2016-09-22T13:30:46Z</time>
      </trkpt>
      <trkpt lat="45.9628" lon="4.00935">
        <ele>327.47</ele>
        <time>2016-09-22T13:31:06Z</time>
      </trkpt>
      <trkpt lat="45.96254" lon="4.00927">
        <ele>324.58</ele>
        <time>2016-09-22T13:31:25Z</time>
      </trkpt>
      <trkpt lat="45.96238" lon="4.00916">
        <ele>324.58</ele>
        <time>2016-09-22T13:31:41Z</time>
      </trkpt>
      <trkpt lat="45.96233" lon="4.00911">
        <ele>323.14</ele>
        <time>2016-09-22T13:31:53Z</time>
      </trkpt>
      <trkpt lat="45.96213" lon="4.00891">
        <ele>326.5</ele>
        <time>2016-09-22T13:32:10Z</time>
      </trkpt>
      <trkpt lat="45.96201" lon="4.00871">
        <ele>327.47</ele>
        <time>2016-09-22T13:32:25Z</time>
      </trkpt>
      <trkpt lat="45.96186" lon="4.00849">
        <ele>327.95</ele>
        <time>2016-09-22T13:32:42Z</time>
      </trkpt>
      <trkpt lat="45.96175" lon="4.00828">
        <ele>327.95</ele>
        <time>2016-09-22T13:32:56Z</time>
      </trkpt>
      <trkpt lat="45.96165" lon="4.00807">
        <ele>327.47</ele>
        <time>2016-09-22T13:33:13Z</time>
      </trkpt>
      <trkpt lat="45.96162" lon="4.00801">
        <ele>327.47</ele>
        <time>2016-09-22T13:33:25Z</time>
      </trkpt>
      <trkpt lat="45.96158" lon="4.00791">
        <ele>327.95</ele>
        <time>2016-09-22T13:33:31Z</time>
      </trkpt>
      <trkpt lat="45.96155" lon="4.0079">
        <ele>326.99</ele>
        <time>2016-09-22T13:33:36Z</time>
      </trkpt>
      <trkpt lat="45.96145" lon="4.00755">
        <ele>324.1</ele>
        <time>2016-09-22T13:33:56Z</time>
      </trkpt>
      <trkpt lat="45.9614" lon="4.00726">
        <ele>327.47</ele>
        <time>2016-09-22T13:34:12Z</time>
      </trkpt>
      <trkpt lat="45.96143" lon="4.00701">
        <ele>331.79</ele>
        <time>2016-09-22T13:34:27Z</time>
      </trkpt>
      <trkpt lat="45.96149" lon="4.00677">
        <ele>336.6</ele>
        <time>2016-09-22T13:34:42Z</time>
      </trkpt>
      <trkpt lat="45.96149" lon="4.00665">
        <ele>340.92</ele>
        <time>2016-09-22T13:34:55Z</time>
      </trkpt>
      <trkpt lat="45.96148" lon="4.00664">
        <ele>341.41</ele>
        <time>2016-09-22T13:34:56Z</time>
      </trkpt>
      <trkpt lat="45.96147" lon="4.00658">
        <ele>340.92</ele>
        <time>2016-09-22T13:34:59Z</time>
      </trkpt>
      <trkpt lat="45.96146" lon="4.00648">
        <ele>338.52</ele>
        <time>2016-09-22T13:35:04Z</time>
      </trkpt>
      <trkpt lat="45.96132" lon="4.00626">
        <ele>334.68</ele>
        <time>2016-09-22T13:35:20Z</time>
      </trkpt>
      <trkpt lat="45.9612" lon="4.00615">
        <ele>334.68</ele>
        <time>2016-09-22T13:35:33Z</time>
      </trkpt>
      <trkpt lat="45.96108" lon="4.00604">
        <ele>334.2</ele>
        <time>2016-09-22T13:35:43Z</time>
      </trkpt>
      <trkpt lat="45.9609" lon="4.00582">
        <ele>337.56</ele>
        <time>2016-09-22T13:36:01Z</time>
      </trkpt>
      <trkpt lat="45.96076" lon="4.00561">
        <ele>337.08</ele>
        <time>2016-09-22T13:36:16Z</time>
      </trkpt>
      <trkpt lat="45.96074" lon="4.00557">
        <ele>337.08</ele>
        <time>2016-09-22T13:36:18Z</time>
      </trkpt>
      <trkpt lat="45.96069" lon="4.0054">
        <ele>337.08</ele>
        <time>2016-09-22T13:36:33Z</time>
      </trkpt>
      <trkpt lat="45.96067" lon="4.00512">
        <ele>339</ele>
        <time>2016-09-22T13:36:48Z</time>
      </trkpt>
      <trkpt lat="45.96065" lon="4.0048">
        <ele>340.92</ele>
        <time>2016-09-22T13:37:05Z</time>
      </trkpt>
      <trkpt lat="45.96065" lon="4.00456">
        <ele>344.29</ele>
        <time>2016-09-22T13:37:18Z</time>
      </trkpt>
      <trkpt lat="45.9607" lon="4.00425">
        <ele>352.94</ele>
        <time>2016-09-22T13:37:35Z</time>
      </trkpt>
      <trkpt lat="45.96075" lon="4.004">
        <ele>354.38</ele>
        <time>2016-09-22T13:37:51Z</time>
      </trkpt>
      <trkpt lat="45.96083" lon="4.0037">
        <ele>356.31</ele>
        <time>2016-09-22T13:38:07Z</time>
      </trkpt>
      <trkpt lat="45.9609" lon="4.00353">
        <ele>353.42</ele>
        <time>2016-09-22T13:38:19Z</time>
      </trkpt>
      <trkpt lat="45.96092" lon="4.00339">
        <ele>351.02</ele>
        <time>2016-09-22T13:38:33Z</time>
      </trkpt>
      <trkpt lat="45.96089" lon="4.00332">
        <ele>348.13</ele>
        <time>2016-09-22T13:38:48Z</time>
      </trkpt>
      <trkpt lat="45.96088" lon="4.00334">
        <ele>347.65</ele>
        <time>2016-09-22T13:39:04Z</time>
      </trkpt>
      <trkpt lat="45.96088" lon="4.00333">
        <ele>345.25</ele>
        <time>2016-09-22T13:39:22Z</time>
      </trkpt>
      <trkpt lat="45.96086" lon="4.00331">
        <ele>343.33</ele>
        <time>2016-09-22T13:39:40Z</time>
      </trkpt>
      <trkpt lat="45.96084" lon="4.00333">
        <ele>342.85</ele>
        <time>2016-09-22T13:39:56Z</time>
      </trkpt>
      <trkpt lat="45.96086" lon="4.00332">
        <ele>341.41</ele>
        <time>2016-09-22T13:40:17Z</time>
      </trkpt>
      <trkpt lat="45.96086" lon="4.00331">
        <ele>340.44</ele>
        <time>2016-09-22T13:40:29Z</time>
      </trkpt>
      <trkpt lat="45.96086" lon="4.00331">
        <ele>339</ele>
        <time>2016-09-22T13:40:42Z</time>
      </trkpt>
      <trkpt lat="45.96085" lon="4.00332">
        <ele>338.04</ele>
        <time>2016-09-22T13:40:55Z</time>
      </trkpt>
      <trkpt lat="45.96088" lon="4.00326">
        <ele>337.56</ele>
        <time>2016-09-22T13:41:12Z</time>
      </trkpt>
      <trkpt lat="45.96085" lon="4.00303">
        <ele>341.89</ele>
        <time>2016-09-22T13:41:28Z</time>
      </trkpt>
      <trkpt lat="45.96083" lon="4.00299">
        <ele>343.33</ele>
        <time>2016-09-22T13:41:31Z</time>
      </trkpt>
      <trkpt lat="45.9608" lon="4.00292">
        <ele>345.73</ele>
        <time>2016-09-22T13:41:35Z</time>
      </trkpt>
      <trkpt lat="45.96068" lon="4.00271">
        <ele>355.34</ele>
        <time>2016-09-22T13:41:53Z</time>
      </trkpt>
      <trkpt lat="45.96055" lon="4.00259">
        <ele>358.23</ele>
        <time>2016-09-22T13:42:05Z</time>
      </trkpt>
      <trkpt lat="45.96041" lon="4.00251">
        <ele>353.9</ele>
        <time>2016-09-22T13:42:10Z</time>
      </trkpt>
      <trkpt lat="45.96035" lon="4.00257">
        <ele>354.38</ele>
        <time>2016-09-22T13:42:18Z</time>
      </trkpt>
      <trkpt lat="45.96026" lon="4.00263">
        <ele>354.86</ele>
        <time>2016-09-22T13:42:25Z</time>
      </trkpt>
      <trkpt lat="45.96021" lon="4.00269">
        <ele>355.34</ele>
        <time>2016-09-22T13:42:31Z</time>
      </trkpt>
      <trkpt lat="45.96019" lon="4.00289">
        <ele>357.75</ele>
        <time>2016-09-22T13:42:45Z</time>
      </trkpt>
      <trkpt lat="45.96017" lon="4.00316">
        <ele>361.59</ele>
        <time>2016-09-22T13:42:59Z</time>
      </trkpt>
      <trkpt lat="45.96015" lon="4.0035">
        <ele>360.63</ele>
        <time>2016-09-22T13:43:14Z</time>
      </trkpt>
      <trkpt lat="45.96014" lon="4.00384">
        <ele>359.67</ele>
        <time>2016-09-22T13:43:29Z</time>
      </trkpt>
      <trkpt lat="45.96007" lon="4.00416">
        <ele>362.07</ele>
        <time>2016-09-22T13:43:47Z</time>
      </trkpt>
      <trkpt lat="45.96002" lon="4.00436">
        <ele>365.44</ele>
        <time>2016-09-22T13:43:59Z</time>
      </trkpt>
      <trkpt lat="45.95995" lon="4.00459">
        <ele>368.8</ele>
        <time>2016-09-22T13:44:13Z</time>
      </trkpt>
      <trkpt lat="45.95991" lon="4.00469">
        <ele>370.73</ele>
        <time>2016-09-22T13:44:22Z</time>
      </trkpt>
      <trkpt lat="45.95974" lon="4.0049">
        <ele>377.45</ele>
        <time>2016-09-22T13:44:39Z</time>
      </trkpt>
      <trkpt lat="45.9596" lon="4.00503">
        <ele>386.11</ele>
        <time>2016-09-22T13:44:54Z</time>
      </trkpt>
      <trkpt lat="45.95956" lon="4.00508">
        <ele>387.55</ele>
        <time>2016-09-22T13:44:58Z</time>
      </trkpt>
      <trkpt lat="45.95942" lon="4.00532">
        <ele>392.36</ele>
        <time>2016-09-22T13:45:13Z</time>
      </trkpt>
      <trkpt lat="45.95929" lon="4.00554">
        <ele>395.24</ele>
        <time>2016-09-22T13:45:27Z</time>
      </trkpt>
      <trkpt lat="45.95928" lon="4.00555">
        <ele>395.24</ele>
        <time>2016-09-22T13:45:28Z</time>
      </trkpt>
      <trkpt lat="45.95923" lon="4.00564">
        <ele>396.2</ele>
        <time>2016-09-22T13:45:33Z</time>
      </trkpt>
      <trkpt lat="45.95908" lon="4.00601">
        <ele>394.76</ele>
        <time>2016-09-22T13:45:50Z</time>
      </trkpt>
      <trkpt lat="45.959" lon="4.00629">
        <ele>390.91</ele>
        <time>2016-09-22T13:46:03Z</time>
      </trkpt>
      <trkpt lat="45.95898" lon="4.00634">
        <ele>390.91</ele>
        <time>2016-09-22T13:46:06Z</time>
      </trkpt>
      <trkpt lat="45.95894" lon="4.00643">
        <ele>386.59</ele>
        <time>2016-09-22T13:46:21Z</time>
      </trkpt>
      <trkpt lat="45.95895" lon="4.00643">
        <ele>383.7</ele>
        <time>2016-09-22T13:46:42Z</time>
      </trkpt>
      <trkpt lat="45.95895" lon="4.00643">
        <ele>382.74</ele>
        <time>2016-09-22T13:46:59Z</time>
      </trkpt>
      <trkpt lat="45.95893" lon="4.00649">
        <ele>386.59</ele>
        <time>2016-09-22T13:47:12Z</time>
      </trkpt>
      <trkpt lat="45.95891" lon="4.00656">
        <ele>386.59</ele>
        <time>2016-09-22T13:47:21Z</time>
      </trkpt>
      <trkpt lat="45.95885" lon="4.00672">
        <ele>384.18</ele>
        <time>2016-09-22T13:47:32Z</time>
      </trkpt>
      <trkpt lat="45.95883" lon="4.00674">
        <ele>383.7</ele>
        <time>2016-09-22T13:47:34Z</time>
      </trkpt>
      <trkpt lat="45.95878" lon="4.00682">
        <ele>382.26</ele>
        <time>2016-09-22T13:47:42Z</time>
      </trkpt>
      <trkpt lat="45.95864" lon="4.00703">
        <ele>381.3</ele>
        <time>2016-09-22T13:47:57Z</time>
      </trkpt>
      <trkpt lat="45.95847" lon="4.00728">
        <ele>379.86</ele>
        <time>2016-09-22T13:48:16Z</time>
      </trkpt>
      <trkpt lat="45.95828" lon="4.00734">
        <ele>380.34</ele>
        <time>2016-09-22T13:48:34Z</time>
      </trkpt>
      <trkpt lat="45.95826" lon="4.00733">
        <ele>380.82</ele>
        <time>2016-09-22T13:48:44Z</time>
      </trkpt>
      <trkpt lat="45.95815" lon="4.00718">
        <ele>382.74</ele>
        <time>2016-09-22T13:48:58Z</time>
      </trkpt>
      <trkpt lat="45.95798" lon="4.00704">
        <ele>385.63</ele>
        <time>2016-09-22T13:49:14Z</time>
      </trkpt>
      <trkpt lat="45.95774" lon="4.00683">
        <ele>387.55</ele>
        <time>2016-09-22T13:49:35Z</time>
      </trkpt>
      <trkpt lat="45.95746" lon="4.00665">
        <ele>389.95</ele>
        <time>2016-09-22T13:49:57Z</time>
      </trkpt>
      <trkpt lat="45.95721" lon="4.00651">
        <ele>392.84</ele>
        <time>2016-09-22T13:50:16Z</time>
      </trkpt>
      <trkpt lat="45.95696" lon="4.00646">
        <ele>395.24</ele>
        <time>2016-09-22T13:50:34Z</time>
      </trkpt>
      <trkpt lat="45.95668" lon="4.00646">
        <ele>396.68</ele>
        <time>2016-09-22T13:50:54Z</time>
      </trkpt>
      <trkpt lat="45.9564" lon="4.00642">
        <ele>399.08</ele>
        <time>2016-09-22T13:51:14Z</time>
      </trkpt>
      <trkpt lat="45.95616" lon="4.0063">
        <ele>401.01</ele>
        <time>2016-09-22T13:51:32Z</time>
      </trkpt>
      <trkpt lat="45.95591" lon="4.00617">
        <ele>403.41</ele>
        <time>2016-09-22T13:51:51Z</time>
      </trkpt>
      <trkpt lat="45.95565" lon="4.00604">
        <ele>405.81</ele>
        <time>2016-09-22T13:52:10Z</time>
      </trkpt>
      <trkpt lat="45.95538" lon="4.00588">
        <ele>408.7</ele>
        <time>2016-09-22T13:52:30Z</time>
      </trkpt>
      <trkpt lat="45.95519" lon="4.00576">
        <ele>411.1</ele>
        <time>2016-09-22T13:52:46Z</time>
      </trkpt>
      <trkpt lat="45.9551" lon="4.00569">
        <ele>411.1</ele>
        <time>2016-09-22T13:53:00Z</time>
      </trkpt>
      <trkpt lat="45.95508" lon="4.00569">
        <ele>410.14</ele>
        <time>2016-09-22T13:53:18Z</time>
      </trkpt>
      <trkpt lat="45.95506" lon="4.00567">
        <ele>410.14</ele>
        <time>2016-09-22T13:53:25Z</time>
      </trkpt>
      <trkpt lat="45.95482" lon="4.00554">
        <ele>413.5</ele>
        <time>2016-09-22T13:53:46Z</time>
      </trkpt>
      <trkpt lat="45.9546" lon="4.00539">
        <ele>414.95</ele>
        <time>2016-09-22T13:54:05Z</time>
      </trkpt>
      <trkpt lat="45.95438" lon="4.00524">
        <ele>413.5</ele>
        <time>2016-09-22T13:54:23Z</time>
      </trkpt>
      <trkpt lat="45.95413" lon="4.00508">
        <ele>410.62</ele>
        <time>2016-09-22T13:54:44Z</time>
      </trkpt>
      <trkpt lat="45.9539" lon="4.00491">
        <ele>409.18</ele>
        <time>2016-09-22T13:55:04Z</time>
      </trkpt>
      <trkpt lat="45.95371" lon="4.00476">
        <ele>409.66</ele>
        <time>2016-09-22T13:55:20Z</time>
      </trkpt>
      <trkpt lat="45.95352" lon="4.00462">
        <ele>410.14</ele>
        <time>2016-09-22T13:55:37Z</time>
      </trkpt>
      <trkpt lat="45.95332" lon="4.00448">
        <ele>411.58</ele>
        <time>2016-09-22T13:55:53Z</time>
      </trkpt>
      <trkpt lat="45.95305" lon="4.00432">
        <ele>410.14</ele>
        <time>2016-09-22T13:56:13Z</time>
      </trkpt>
      <trkpt lat="45.95273" lon="4.00421">
        <ele>410.14</ele>
        <time>2016-09-22T13:56:36Z</time>
      </trkpt>
      <trkpt lat="45.95248" lon="4.00414">
        <ele>411.1</ele>
        <time>2016-09-22T13:56:55Z</time>
      </trkpt>
      <trkpt lat="45.95213" lon="4.00406">
        <ele>408.7</ele>
        <time>2016-09-22T13:57:19Z</time>
      </trkpt>
      <trkpt lat="45.95181" lon="4.00392">
        <ele>409.66</ele>
        <time>2016-09-22T13:57:43Z</time>
      </trkpt>
      <trkpt lat="45.95152" lon="4.00392">
        <ele>410.14</ele>
        <time>2016-09-22T13:58:04Z</time>
      </trkpt>
      <trkpt lat="45.9515" lon="4.00393">
        <ele>410.14</ele>
        <time>2016-09-22T13:58:06Z</time>
      </trkpt>
      <trkpt lat="45.95146" lon="4.00394">
        <ele>410.14</ele>
        <time>2016-09-22T13:58:11Z</time>
      </trkpt>
      <trkpt lat="45.95119" lon="4.00393">
        <ele>409.18</ele>
        <time>2016-09-22T13:58:31Z</time>
      </trkpt>
      <trkpt lat="45.95095" lon="4.00394">
        <ele>408.7</ele>
        <time>2016-09-22T13:58:49Z</time>
      </trkpt>
      <trkpt lat="45.95068" lon="4.00391">
        <ele>408.22</ele>
        <time>2016-09-22T13:59:08Z</time>
      </trkpt>
      <trkpt lat="45.95035" lon="4.00387">
        <ele>409.66</ele>
        <time>2016-09-22T13:59:32Z</time>
      </trkpt>
      <trkpt lat="45.95011" lon="4.00384">
        <ele>409.66</ele>
        <time>2016-09-22T13:59:49Z</time>
      </trkpt>
      <trkpt lat="45.94982" lon="4.00375">
        <ele>408.7</ele>
        <time>2016-09-22T14:00:10Z</time>
      </trkpt>
      <trkpt lat="45.94952" lon="4.0038">
        <ele>409.18</ele>
        <time>2016-09-22T14:00:32Z</time>
      </trkpt>
      <trkpt lat="45.94922" lon="4.00387">
        <ele>407.74</ele>
        <time>2016-09-22T14:00:54Z</time>
      </trkpt>
      <trkpt lat="45.94901" lon="4.0039">
        <ele>407.74</ele>
        <time>2016-09-22T14:01:11Z</time>
      </trkpt>
      <trkpt lat="45.94874" lon="4.00387">
        <ele>408.22</ele>
        <time>2016-09-22T14:01:30Z</time>
      </trkpt>
      <trkpt lat="45.94845" lon="4.00383">
        <ele>410.14</ele>
        <time>2016-09-22T14:01:51Z</time>
      </trkpt>
      <trkpt lat="45.94818" lon="4.00379">
        <ele>406.77</ele>
        <time>2016-09-22T14:02:11Z</time>
      </trkpt>
      <trkpt lat="45.94786" lon="4.0037">
        <ele>403.41</ele>
        <time>2016-09-22T14:02:35Z</time>
      </trkpt>
      <trkpt lat="45.94761" lon="4.00362">
        <ele>401.49</ele>
        <time>2016-09-22T14:02:53Z</time>
      </trkpt>
      <trkpt lat="45.94734" lon="4.00361">
        <ele>398.6</ele>
        <time>2016-09-22T14:03:12Z</time>
      </trkpt>
      <trkpt lat="45.94711" lon="4.00363">
        <ele>395.24</ele>
        <time>2016-09-22T14:03:29Z</time>
      </trkpt>
      <trkpt lat="45.94689" lon="4.00373">
        <ele>394.28</ele>
        <time>2016-09-22T14:03:47Z</time>
      </trkpt>
      <trkpt lat="45.94687" lon="4.00375">
        <ele>393.8</ele>
        <time>2016-09-22T14:04:01Z</time>
      </trkpt>
      <trkpt lat="45.94686" lon="4.00375">
        <ele>393.8</ele>
        <time>2016-09-22T14:04:14Z</time>
      </trkpt>
      <trkpt lat="45.9468" lon="4.00377">
        <ele>393.32</ele>
        <time>2016-09-22T14:04:20Z</time>
      </trkpt>
      <trkpt lat="45.94656" lon="4.00395">
        <ele>393.32</ele>
        <time>2016-09-22T14:04:40Z</time>
      </trkpt>
      <trkpt lat="45.94632" lon="4.00412">
        <ele>390.91</ele>
        <time>2016-09-22T14:04:59Z</time>
      </trkpt>
      <trkpt lat="45.94623" lon="4.00417">
        <ele>389.47</ele>
        <time>2016-09-22T14:05:06Z</time>
      </trkpt>
      <trkpt lat="45.94605" lon="4.0044">
        <ele>387.07</ele>
        <time>2016-09-22T14:05:23Z</time>
      </trkpt>
      <trkpt lat="45.94591" lon="4.00471">
        <ele>381.3</ele>
        <time>2016-09-22T14:05:38Z</time>
      </trkpt>
      <trkpt lat="45.94576" lon="4.00487">
        <ele>382.26</ele>
        <time>2016-09-22T14:05:52Z</time>
      </trkpt>
      <trkpt lat="45.94561" lon="4.00508">
        <ele>381.78</ele>
        <time>2016-09-22T14:06:07Z</time>
      </trkpt>
      <trkpt lat="45.94558" lon="4.00548">
        <ele>379.38</ele>
        <time>2016-09-22T14:06:24Z</time>
      </trkpt>
      <trkpt lat="45.94549" lon="4.00568">
        <ele>376.49</ele>
        <time>2016-09-22T14:06:38Z</time>
      </trkpt>
      <trkpt lat="45.94534" lon="4.00555">
        <ele>374.09</ele>
        <time>2016-09-22T14:06:51Z</time>
      </trkpt>
      <trkpt lat="45.94527" lon="4.00528">
        <ele>370.24</ele>
        <time>2016-09-22T14:07:05Z</time>
      </trkpt>
      <trkpt lat="45.94527" lon="4.00496">
        <ele>366.88</ele>
        <time>2016-09-22T14:07:19Z</time>
      </trkpt>
      <trkpt lat="45.9453" lon="4.00469">
        <ele>365.44</ele>
        <time>2016-09-22T14:07:35Z</time>
      </trkpt>
      <trkpt lat="45.94532" lon="4.0046">
        <ele>364.48</ele>
        <time>2016-09-22T14:07:40Z</time>
      </trkpt>
      <trkpt lat="45.94534" lon="4.00433">
        <ele>364.48</ele>
        <time>2016-09-22T14:07:55Z</time>
      </trkpt>
      <trkpt lat="45.94533" lon="4.00411">
        <ele>369.28</ele>
        <time>2016-09-22T14:08:09Z</time>
      </trkpt>
      <trkpt lat="45.94532" lon="4.00409">
        <ele>369.76</ele>
        <time>2016-09-22T14:08:10Z</time>
      </trkpt>
      <trkpt lat="45.94531" lon="4.00406">
        <ele>370.24</ele>
        <time>2016-09-22T14:08:12Z</time>
      </trkpt>
      <trkpt lat="45.94529" lon="4.00401">
        <ele>370.24</ele>
        <time>2016-09-22T14:08:15Z</time>
      </trkpt>
      <trkpt lat="45.94515" lon="4.00401">
        <ele>370.73</ele>
        <time>2016-09-22T14:08:26Z</time>
      </trkpt>
      <trkpt lat="45.94509" lon="4.004">
        <ele>369.28</ele>
        <time>2016-09-22T14:08:42Z</time>
      </trkpt>
      <trkpt lat="45.94509" lon="4.00397">
        <ele>366.88</ele>
        <time>2016-09-22T14:08:57Z</time>
      </trkpt>
      <trkpt lat="45.94509" lon="4.00396">
        <ele>365.92</ele>
        <time>2016-09-22T14:09:18Z</time>
      </trkpt>
      <trkpt lat="45.94509" lon="4.00397">
        <ele>365.44</ele>
        <time>2016-09-22T14:09:37Z</time>
      </trkpt>
      <trkpt lat="45.94509" lon="4.00398">
        <ele>364.48</ele>
        <time>2016-09-22T14:09:56Z</time>
      </trkpt>
      <trkpt lat="45.94505" lon="4.00405">
        <ele>363.52</ele>
        <time>2016-09-22T14:10:12Z</time>
      </trkpt>
      <trkpt lat="45.94498" lon="4.00419">
        <ele>362.55</ele>
        <time>2016-09-22T14:10:23Z</time>
      </trkpt>
      <trkpt lat="45.94483" lon="4.0044">
        <ele>360.15</ele>
        <time>2016-09-22T14:10:39Z</time>
      </trkpt>
      <trkpt lat="45.94482" lon="4.00444">
        <ele>360.15</ele>
        <time>2016-09-22T14:10:41Z</time>
      </trkpt>
      <trkpt lat="45.94466" lon="4.00462">
        <ele>361.59</ele>
        <time>2016-09-22T14:10:57Z</time>
      </trkpt>
      <trkpt lat="45.94462" lon="4.00465">
        <ele>364</ele>
        <time>2016-09-22T14:11:00Z</time>
      </trkpt>
      <trkpt lat="45.9446" lon="4.00467">
        <ele>365.44</ele>
        <time>2016-09-22T14:11:02Z</time>
      </trkpt>
      <trkpt lat="45.94451" lon="4.00482">
        <ele>369.76</ele>
        <time>2016-09-22T14:11:16Z</time>
      </trkpt>
      <trkpt lat="45.94451" lon="4.00483">
        <ele>370.24</ele>
        <time>2016-09-22T14:11:17Z</time>
      </trkpt>
      <trkpt lat="45.94434" lon="4.00501">
        <ele>374.57</ele>
        <time>2016-09-22T14:11:33Z</time>
      </trkpt>
      <trkpt lat="45.94414" lon="4.00515">
        <ele>377.94</ele>
        <time>2016-09-22T14:11:50Z</time>
      </trkpt>
      <trkpt lat="45.94404" lon="4.00522">
        <ele>379.86</ele>
        <time>2016-09-22T14:11:59Z</time>
      </trkpt>
      <trkpt lat="45.94399" lon="4.00524">
        <ele>379.86</ele>
        <time>2016-09-22T14:12:03Z</time>
      </trkpt>
      <trkpt lat="45.94374" lon="4.00532">
        <ele>380.82</ele>
        <time>2016-09-22T14:12:22Z</time>
      </trkpt>
      <trkpt lat="45.94351" lon="4.00531">
        <ele>378.42</ele>
        <time>2016-09-22T14:12:38Z</time>
      </trkpt>
      <trkpt lat="45.94332" lon="4.00529">
        <ele>376.49</ele>
        <time>2016-09-22T14:12:51Z</time>
      </trkpt>
      <trkpt lat="45.94326" lon="4.00531">
        <ele>376.49</ele>
        <time>2016-09-22T14:12:56Z</time>
      </trkpt>
      <trkpt lat="45.94307" lon="4.0053">
        <ele>378.9</ele>
        <time>2016-09-22T14:13:10Z</time>
      </trkpt>
      <trkpt lat="45.94289" lon="4.00534">
        <ele>378.9</ele>
        <time>2016-09-22T14:13:23Z</time>
      </trkpt>
      <trkpt lat="45.9427" lon="4.00536">
        <ele>376.97</ele>
        <time>2016-09-22T14:13:36Z</time>
      </trkpt>
      <trkpt lat="45.94249" lon="4.00555">
        <ele>377.45</ele>
        <time>2016-09-22T14:13:50Z</time>
      </trkpt>
      <trkpt lat="45.94233" lon="4.00567">
        <ele>378.42</ele>
        <time>2016-09-22T14:14:03Z</time>
      </trkpt>
      <trkpt lat="45.94215" lon="4.00583">
        <ele>381.78</ele>
        <time>2016-09-22T14:14:20Z</time>
      </trkpt>
      <trkpt lat="45.94195" lon="4.00595">
        <ele>384.18</ele>
        <time>2016-09-22T14:14:34Z</time>
      </trkpt>
      <trkpt lat="45.94174" lon="4.00602">
        <ele>388.03</ele>
        <time>2016-09-22T14:14:49Z</time>
      </trkpt>
      <trkpt lat="45.94149" lon="4.00606">
        <ele>389.47</ele>
        <time>2016-09-22T14:15:04Z</time>
      </trkpt>
      <trkpt lat="45.94133" lon="4.00611">
        <ele>392.36</ele>
        <time>2016-09-22T14:15:17Z</time>
      </trkpt>
      <trkpt lat="45.94127" lon="4.0061">
        <ele>393.32</ele>
        <time>2016-09-22T14:15:23Z</time>
      </trkpt>
      <trkpt lat="45.9412" lon="4.00609">
        <ele>393.8</ele>
        <time>2016-09-22T14:15:29Z</time>
      </trkpt>
      <trkpt lat="45.941" lon="4.00612">
        <ele>394.76</ele>
        <time>2016-09-22T14:15:42Z</time>
      </trkpt>
      <trkpt lat="45.94085" lon="4.0062">
        <ele>393.8</ele>
        <time>2016-09-22T14:15:53Z</time>
      </trkpt>
      <trkpt lat="45.94065" lon="4.00626">
        <ele>391.39</ele>
        <time>2016-09-22T14:16:08Z</time>
      </trkpt>
      <trkpt lat="45.94052" lon="4.00627">
        <ele>389.47</ele>
        <time>2016-09-22T14:16:18Z</time>
      </trkpt>
      <trkpt lat="45.94047" lon="4.00624">
        <ele>387.55</ele>
        <time>2016-09-22T14:16:22Z</time>
      </trkpt>
      <trkpt lat="45.94033" lon="4.00615">
        <ele>385.15</ele>
        <time>2016-09-22T14:16:33Z</time>
      </trkpt>
      <trkpt lat="45.94025" lon="4.00607">
        <ele>383.7</ele>
        <time>2016-09-22T14:16:39Z</time>
      </trkpt>
      <trkpt lat="45.94015" lon="4.00605">
        <ele>379.86</ele>
        <time>2016-09-22T14:16:42Z</time>
      </trkpt>
      <trkpt lat="45.94002" lon="4.00564">
        <ele>368.8</ele>
        <time>2016-09-22T14:16:59Z</time>
      </trkpt>
      <trkpt lat="45.94002" lon="4.00534">
        <ele>365.92</ele>
        <time>2016-09-22T14:17:12Z</time>
      </trkpt>
      <trkpt lat="45.94005" lon="4.0051">
        <ele>364.96</ele>
        <time>2016-09-22T14:17:26Z</time>
      </trkpt>
      <trkpt lat="45.94005" lon="4.00504">
        <ele>366.4</ele>
        <time>2016-09-22T14:17:30Z</time>
      </trkpt>
      <trkpt lat="45.94005" lon="4.00498">
        <ele>367.84</ele>
        <time>2016-09-22T14:17:33Z</time>
      </trkpt>
      <trkpt lat="45.94005" lon="4.00495">
        <ele>368.32</ele>
        <time>2016-09-22T14:17:35Z</time>
      </trkpt>
      <trkpt lat="45.93993" lon="4.00474">
        <ele>370.73</ele>
        <time>2016-09-22T14:17:50Z</time>
      </trkpt>
      <trkpt lat="45.93981" lon="4.0045">
        <ele>366.4</ele>
        <time>2016-09-22T14:18:03Z</time>
      </trkpt>
      <trkpt lat="45.93971" lon="4.00432">
        <ele>363.04</ele>
        <time>2016-09-22T14:18:15Z</time>
      </trkpt>
      <trkpt lat="45.93964" lon="4.00422">
        <ele>361.11</ele>
        <time>2016-09-22T14:18:22Z</time>
      </trkpt>
      <trkpt lat="45.93946" lon="4.00402">
        <ele>357.75</ele>
        <time>2016-09-22T14:18:37Z</time>
      </trkpt>
      <trkpt lat="45.93937" lon="4.00393">
        <ele>359.19</ele>
        <time>2016-09-22T14:18:45Z</time>
      </trkpt>
      <trkpt lat="45.9393" lon="4.00388">
        <ele>359.19</ele>
        <time>2016-09-22T14:18:50Z</time>
      </trkpt>
      <trkpt lat="45.93909" lon="4.00367">
        <ele>358.71</ele>
        <time>2016-09-22T14:19:07Z</time>
      </trkpt>
      <trkpt lat="45.93905" lon="4.00362">
        <ele>357.75</ele>
        <time>2016-09-22T14:19:11Z</time>
      </trkpt>
      <trkpt lat="45.93893" lon="4.0035">
        <ele>357.75</ele>
        <time>2016-09-22T14:19:25Z</time>
      </trkpt>
      <trkpt lat="45.93882" lon="4.0034">
        <ele>358.23</ele>
        <time>2016-09-22T14:19:39Z</time>
      </trkpt>
      <trkpt lat="45.93878" lon="4.00336">
        <ele>358.71</ele>
        <time>2016-09-22T14:19:45Z</time>
      </trkpt>
      <trkpt lat="45.93873" lon="4.00327">
        <ele>357.75</ele>
        <time>2016-09-22T14:19:51Z</time>
      </trkpt>
      <trkpt lat="45.93863" lon="4.00295">
        <ele>356.31</ele>
        <time>2016-09-22T14:20:08Z</time>
      </trkpt>
      <trkpt lat="45.93853" lon="4.00258">
        <ele>355.83</ele>
        <time>2016-09-22T14:20:25Z</time>
      </trkpt>
      <trkpt lat="45.93853" lon="4.00251">
        <ele>353.9</ele>
        <time>2016-09-22T14:20:29Z</time>
      </trkpt>
      <trkpt lat="45.93845" lon="4.00232">
        <ele>353.42</ele>
        <time>2016-09-22T14:20:42Z</time>
      </trkpt>
      <trkpt lat="45.93844" lon="4.00228">
        <ele>353.9</ele>
        <time>2016-09-22T14:20:45Z</time>
      </trkpt>
      <trkpt lat="45.93842" lon="4.00225">
        <ele>353.42</ele>
        <time>2016-09-22T14:20:50Z</time>
      </trkpt>
      <trkpt lat="45.93833" lon="4.00224">
        <ele>349.58</ele>
        <time>2016-09-22T14:21:03Z</time>
      </trkpt>
      <trkpt lat="45.93827" lon="4.00228">
        <ele>346.69</ele>
        <time>2016-09-22T14:21:14Z</time>
      </trkpt>
      <trkpt lat="45.93819" lon="4.00234">
        <ele>346.69</ele>
        <time>2016-09-22T14:21:28Z</time>
      </trkpt>
      <trkpt lat="45.93814" lon="4.00231">
        <ele>349.58</ele>
        <time>2016-09-22T14:21:40Z</time>
      </trkpt>
      <trkpt lat="45.93813" lon="4.0023">
        <ele>350.06</ele>
        <time>2016-09-22T14:21:42Z</time>
      </trkpt>
      <trkpt lat="45.93797" lon="4.00221">
        <ele>354.38</ele>
        <time>2016-09-22T14:21:58Z</time>
      </trkpt>
      <trkpt lat="45.93783" lon="4.00214">
        <ele>358.71</ele>
        <time>2016-09-22T14:22:12Z</time>
      </trkpt>
      <trkpt lat="45.9377" lon="4.00211">
        <ele>361.59</ele>
        <time>2016-09-22T14:22:24Z</time>
      </trkpt>
      <trkpt lat="45.93756" lon="4.00198">
        <ele>365.92</ele>
        <time>2016-09-22T14:22:37Z</time>
      </trkpt>
      <trkpt lat="45.93744" lon="4.00184">
        <ele>367.84</ele>
        <time>2016-09-22T14:22:50Z</time>
      </trkpt>
      <trkpt lat="45.93735" lon="4.00171">
        <ele>370.73</ele>
        <time>2016-09-22T14:23:03Z</time>
      </trkpt>
      <trkpt lat="45.93722" lon="4.00152">
        <ele>376.01</ele>
        <time>2016-09-22T14:23:18Z</time>
      </trkpt>
      <trkpt lat="45.93709" lon="4.00135">
        <ele>381.3</ele>
        <time>2016-09-22T14:23:32Z</time>
      </trkpt>
      <trkpt lat="45.93697" lon="4.00127">
        <ele>382.26</ele>
        <time>2016-09-22T14:23:41Z</time>
      </trkpt>
      <trkpt lat="45.93691" lon="4.00124">
        <ele>382.74</ele>
        <time>2016-09-22T14:23:45Z</time>
      </trkpt>
      <trkpt lat="45.93677" lon="4.00121">
        <ele>382.74</ele>
        <time>2016-09-22T14:23:57Z</time>
      </trkpt>
      <trkpt lat="45.93662" lon="4.00126">
        <ele>384.66</ele>
        <time>2016-09-22T14:24:10Z</time>
      </trkpt>
      <trkpt lat="45.93641" lon="4.00145">
        <ele>386.59</ele>
        <time>2016-09-22T14:24:28Z</time>
      </trkpt>
      <trkpt lat="45.93636" lon="4.00157">
        <ele>388.51</ele>
        <time>2016-09-22T14:24:37Z</time>
      </trkpt>
      <trkpt lat="45.93632" lon="4.0017">
        <ele>394.76</ele>
        <time>2016-09-22T14:24:52Z</time>
      </trkpt>
      <trkpt lat="45.93625" lon="4.00176">
        <ele>396.68</ele>
        <time>2016-09-22T14:25:06Z</time>
      </trkpt>
      <trkpt lat="45.93613" lon="4.00186">
        <ele>399.08</ele>
        <time>2016-09-22T14:25:21Z</time>
      </trkpt>
      <trkpt lat="45.93599" lon="4.0019">
        <ele>403.89</ele>
        <time>2016-09-22T14:25:35Z</time>
      </trkpt>
      <trkpt lat="45.93596" lon="4.00191">
        <ele>405.33</ele>
        <time>2016-09-22T14:25:38Z</time>
      </trkpt>
      <trkpt lat="45.93587" lon="4.00194">
        <ele>407.26</ele>
        <time>2016-09-22T14:25:53Z</time>
      </trkpt>
      <trkpt lat="45.93584" lon="4.00195">
        <ele>408.22</ele>
        <time>2016-09-22T14:26:07Z</time>
      </trkpt>
      <trkpt lat="45.93572" lon="4.00198">
        <ele>411.1</ele>
        <time>2016-09-22T14:26:23Z</time>
      </trkpt>
      <trkpt lat="45.93556" lon="4.00199">
        <ele>411.1</ele>
        <time>2016-09-22T14:26:35Z</time>
      </trkpt>
      <trkpt lat="45.93539" lon="4.00218">
        <ele>413.5</ele>
        <time>2016-09-22T14:26:51Z</time>
      </trkpt>
      <trkpt lat="45.93529" lon="4.00233">
        <ele>413.98</ele>
        <time>2016-09-22T14:27:01Z</time>
      </trkpt>
      <trkpt lat="45.93517" lon="4.00252">
        <ele>417.35</ele>
        <time>2016-09-22T14:27:16Z</time>
      </trkpt>
      <trkpt lat="45.93506" lon="4.00259">
        <ele>422.16</ele>
        <time>2016-09-22T14:27:29Z</time>
      </trkpt>
      <trkpt lat="45.93488" lon="4.00265">
        <ele>424.08</ele>
        <time>2016-09-22T14:27:45Z</time>
      </trkpt>
      <trkpt lat="45.93472" lon="4.00274">
        <ele>425.52</ele>
        <time>2016-09-22T14:27:59Z</time>
      </trkpt>
      <trkpt lat="45.93462" lon="4.00278">
        <ele>424.08</ele>
        <time>2016-09-22T14:28:13Z</time>
      </trkpt>
      <trkpt lat="45.93456" lon="4.00283">
        <ele>423.6</ele>
        <time>2016-09-22T14:28:23Z</time>
      </trkpt>
      <trkpt lat="45.93452" lon="4.00284">
        <ele>421.19</ele>
        <time>2016-09-22T14:28:35Z</time>
      </trkpt>
      <trkpt lat="45.93451" lon="4.00285">
        <ele>420.71</ele>
        <time>2016-09-22T14:28:50Z</time>
      </trkpt>
      <trkpt lat="45.93452" lon="4.00285">
        <ele>419.27</ele>
        <time>2016-09-22T14:29:03Z</time>
      </trkpt>
      <trkpt lat="45.93453" lon="4.00283">
        <ele>419.27</ele>
        <time>2016-09-22T14:29:11Z</time>
      </trkpt>
      <trkpt lat="45.93462" lon="4.00281">
        <ele>417.83</ele>
        <time>2016-09-22T14:29:28Z</time>
      </trkpt>
      <trkpt lat="45.93463" lon="4.00281">
        <ele>417.83</ele>
        <time>2016-09-22T14:29:52Z</time>
      </trkpt>
      <trkpt lat="45.93464" lon="4.00282">
        <ele>421.19</ele>
        <time>2016-09-22T14:30:32Z</time>
      </trkpt>
      <trkpt lat="45.93464" lon="4.00281">
        <ele>421.68</ele>
        <time>2016-09-22T14:30:47Z</time>
      </trkpt>
      <trkpt lat="45.93457" lon="4.00282">
        <ele>423.12</ele>
        <time>2016-09-22T14:30:56Z</time>
      </trkpt>
      <trkpt lat="45.93432" lon="4.00293">
        <ele>423.6</ele>
        <time>2016-09-22T14:31:16Z</time>
      </trkpt>
      <trkpt lat="45.93405" lon="4.003">
        <ele>422.64</ele>
        <time>2016-09-22T14:31:37Z</time>
      </trkpt>
      <trkpt lat="45.9338" lon="4.00299">
        <ele>421.68</ele>
        <time>2016-09-22T14:31:55Z</time>
      </trkpt>
      <trkpt lat="45.93354" lon="4.00292">
        <ele>422.16</ele>
        <time>2016-09-22T14:32:15Z</time>
      </trkpt>
      <trkpt lat="45.93326" lon="4.00294">
        <ele>422.64</ele>
        <time>2016-09-22T14:32:35Z</time>
      </trkpt>
      <trkpt lat="45.93298" lon="4.00302">
        <ele>422.64</ele>
        <time>2016-09-22T14:32:55Z</time>
      </trkpt>
      <trkpt lat="45.93268" lon="4.00312">
        <ele>422.64</ele>
        <time>2016-09-22T14:33:17Z</time>
      </trkpt>
      <trkpt lat="45.93244" lon="4.00322">
        <ele>422.16</ele>
        <time>2016-09-22T14:33:34Z</time>
      </trkpt>
      <trkpt lat="45.93238" lon="4.00324">
        <ele>422.64</ele>
        <time>2016-09-22T14:33:38Z</time>
      </trkpt>
      <trkpt lat="45.93236" lon="4.00326">
        <ele>422.64</ele>
        <time>2016-09-22T14:33:40Z</time>
      </trkpt>
      <trkpt lat="45.93234" lon="4.00327">
        <ele>422.64</ele>
        <time>2016-09-22T14:33:43Z</time>
      </trkpt>
      <trkpt lat="45.9323" lon="4.00329">
        <ele>423.12</ele>
        <time>2016-09-22T14:33:47Z</time>
      </trkpt>
      <trkpt lat="45.9321" lon="4.00329">
        <ele>424.08</ele>
        <time>2016-09-22T14:34:03Z</time>
      </trkpt>
      <trkpt lat="45.93181" lon="4.00329">
        <ele>423.12</ele>
        <time>2016-09-22T14:34:22Z</time>
      </trkpt>
      <trkpt lat="45.93161" lon="4.00335">
        <ele>424.08</ele>
        <time>2016-09-22T14:34:38Z</time>
      </trkpt>
      <trkpt lat="45.9314" lon="4.00342">
        <ele>425.04</ele>
        <time>2016-09-22T14:34:54Z</time>
      </trkpt>
      <trkpt lat="45.93116" lon="4.00354">
        <ele>426.48</ele>
        <time>2016-09-22T14:35:13Z</time>
      </trkpt>
      <trkpt lat="45.93099" lon="4.00372">
        <ele>425.52</ele>
        <time>2016-09-22T14:35:29Z</time>
      </trkpt>
      <trkpt lat="45.93096" lon="4.00377">
        <ele>425.52</ele>
        <time>2016-09-22T14:35:46Z</time>
      </trkpt>
      <trkpt lat="45.93095" lon="4.0038">
        <ele>425.04</ele>
        <time>2016-09-22T14:36:02Z</time>
      </trkpt>
      <trkpt lat="45.93097" lon="4.00382">
        <ele>425.52</ele>
        <time>2016-09-22T14:36:17Z</time>
      </trkpt>
      <trkpt lat="45.93102" lon="4.00385">
        <ele>425.52</ele>
        <time>2016-09-22T14:36:21Z</time>
      </trkpt>
      <trkpt lat="45.93118" lon="4.004">
        <ele>426.96</ele>
        <time>2016-09-22T14:36:36Z</time>
      </trkpt>
      <trkpt lat="45.93132" lon="4.00423">
        <ele>425.52</ele>
        <time>2016-09-22T14:36:49Z</time>
      </trkpt>
      <trkpt lat="45.93135" lon="4.00437">
        <ele>424.56</ele>
        <time>2016-09-22T14:36:54Z</time>
      </trkpt>
      <trkpt lat="45.93132" lon="4.00464">
        <ele>424.08</ele>
        <time>2016-09-22T14:37:10Z</time>
      </trkpt>
      <trkpt lat="45.93128" lon="4.00477">
        <ele>424.08</ele>
        <time>2016-09-22T14:37:21Z</time>
      </trkpt>
      <trkpt lat="45.93117" lon="4.00517">
        <ele>425.04</ele>
        <time>2016-09-22T14:37:42Z</time>
      </trkpt>
      <trkpt lat="45.93107" lon="4.00548">
        <ele>425.04</ele>
        <time>2016-09-22T14:37:59Z</time>
      </trkpt>
      <trkpt lat="45.93101" lon="4.00575">
        <ele>425.04</ele>
        <time>2016-09-22T14:38:16Z</time>
      </trkpt>
      <trkpt lat="45.93098" lon="4.0061">
        <ele>423.12</ele>
        <time>2016-09-22T14:38:35Z</time>
      </trkpt>
      <trkpt lat="45.93099" lon="4.00642">
        <ele>419.27</ele>
        <time>2016-09-22T14:38:54Z</time>
      </trkpt>
      <trkpt lat="45.93104" lon="4.00678">
        <ele>415.43</ele>
        <time>2016-09-22T14:39:12Z</time>
      </trkpt>
      <trkpt lat="45.93113" lon="4.00717">
        <ele>413.02</ele>
        <time>2016-09-22T14:39:34Z</time>
      </trkpt>
      <trkpt lat="45.93122" lon="4.00749">
        <ele>411.1</ele>
        <time>2016-09-22T14:39:51Z</time>
      </trkpt>
      <trkpt lat="45.93126" lon="4.00785">
        <ele>409.18</ele>
        <time>2016-09-22T14:40:10Z</time>
      </trkpt>
      <trkpt lat="45.93128" lon="4.00815">
        <ele>406.29</ele>
        <time>2016-09-22T14:40:26Z</time>
      </trkpt>
      <trkpt lat="45.93106" lon="4.0084">
        <ele>402.45</ele>
        <time>2016-09-22T14:40:44Z</time>
      </trkpt>
      <trkpt lat="45.93085" lon="4.00868">
        <ele>399.57</ele>
        <time>2016-09-22T14:41:01Z</time>
      </trkpt>
      <trkpt lat="45.93064" lon="4.00894">
        <ele>397.64</ele>
        <time>2016-09-22T14:41:22Z</time>
      </trkpt>
      <trkpt lat="45.93049" lon="4.00929">
        <ele>401.49</ele>
        <time>2016-09-22T14:41:42Z</time>
      </trkpt>
      <trkpt lat="45.93042" lon="4.00945">
        <ele>401.49</ele>
        <time>2016-09-22T14:41:57Z</time>
      </trkpt>
      <trkpt lat="45.93038" lon="4.00951">
        <ele>401.49</ele>
        <time>2016-09-22T14:42:04Z</time>
      </trkpt>
      <trkpt lat="45.93016" lon="4.00971">
        <ele>401.49</ele>
        <time>2016-09-22T14:42:23Z</time>
      </trkpt>
      <trkpt lat="45.93011" lon="4.00975">
        <ele>401.97</ele>
        <time>2016-09-22T14:42:27Z</time>
      </trkpt>
      <trkpt lat="45.92983" lon="4.0099">
        <ele>403.41</ele>
        <time>2016-09-22T14:42:46Z</time>
      </trkpt>
      <trkpt lat="45.9296" lon="4.01003">
        <ele>406.29</ele>
        <time>2016-09-22T14:43:04Z</time>
      </trkpt>
      <trkpt lat="45.92939" lon="4.01018">
        <ele>407.26</ele>
        <time>2016-09-22T14:43:21Z</time>
      </trkpt>
      <trkpt lat="45.92919" lon="4.01033">
        <ele>406.77</ele>
        <time>2016-09-22T14:43:38Z</time>
      </trkpt>
      <trkpt lat="45.92897" lon="4.01056">
        <ele>404.37</ele>
        <time>2016-09-22T14:43:56Z</time>
      </trkpt>
      <trkpt lat="45.92894" lon="4.01056">
        <ele>403.41</ele>
        <time>2016-09-22T14:43:59Z</time>
      </trkpt>
      <trkpt lat="45.92876" lon="4.01052">
        <ele>401.01</ele>
        <time>2016-09-22T14:44:12Z</time>
      </trkpt>
      <trkpt lat="45.9285" lon="4.0106">
        <ele>395.24</ele>
        <time>2016-09-22T14:44:30Z</time>
      </trkpt>
      <trkpt lat="45.92828" lon="4.01051">
        <ele>392.36</ele>
        <time>2016-09-22T14:44:46Z</time>
      </trkpt>
      <trkpt lat="45.92811" lon="4.01061">
        <ele>391.39</ele>
        <time>2016-09-22T14:45:00Z</time>
      </trkpt>
      <trkpt lat="45.92816" lon="4.01076">
        <ele>389.95</ele>
        <time>2016-09-22T14:45:08Z</time>
      </trkpt>
      <trkpt lat="45.92838" lon="4.01102">
        <ele>390.91</ele>
        <time>2016-09-22T14:45:28Z</time>
      </trkpt>
      <trkpt lat="45.9285" lon="4.01127">
        <ele>390.43</ele>
        <time>2016-09-22T14:45:45Z</time>
      </trkpt>
      <trkpt lat="45.92862" lon="4.0115">
        <ele>391.39</ele>
        <time>2016-09-22T14:46:01Z</time>
      </trkpt>
      <trkpt lat="45.9287" lon="4.01182">
        <ele>392.84</ele>
        <time>2016-09-22T14:46:17Z</time>
      </trkpt>
      <trkpt lat="45.92871" lon="4.01215">
        <ele>394.76</ele>
        <time>2016-09-22T14:46:35Z</time>
      </trkpt>
      <trkpt lat="45.92873" lon="4.01248">
        <ele>396.68</ele>
        <time>2016-09-22T14:46:51Z</time>
      </trkpt>
      <trkpt lat="45.92875" lon="4.01289">
        <ele>400.53</ele>
        <time>2016-09-22T14:47:11Z</time>
      </trkpt>
      <trkpt lat="45.9288" lon="4.01328">
        <ele>402.93</ele>
        <time>2016-09-22T14:47:30Z</time>
      </trkpt>
      <trkpt lat="45.92881" lon="4.0136">
        <ele>402.93</ele>
        <time>2016-09-22T14:47:45Z</time>
      </trkpt>
      <trkpt lat="45.92889" lon="4.01394">
        <ele>404.85</ele>
        <time>2016-09-22T14:48:02Z</time>
      </trkpt>
      <trkpt lat="45.92898" lon="4.01429">
        <ele>404.37</ele>
        <time>2016-09-22T14:48:21Z</time>
      </trkpt>
      <trkpt lat="45.92899" lon="4.01431">
        <ele>404.37</ele>
        <time>2016-09-22T14:48:22Z</time>
      </trkpt>
      <trkpt lat="45.929" lon="4.01437">
        <ele>404.37</ele>
        <time>2016-09-22T14:48:25Z</time>
      </trkpt>
      <trkpt lat="45.92912" lon="4.01469">
        <ele>403.89</ele>
        <time>2016-09-22T14:48:44Z</time>
      </trkpt>
      <trkpt lat="45.92917" lon="4.01508">
        <ele>402.93</ele>
        <time>2016-09-22T14:49:03Z</time>
      </trkpt>
      <trkpt lat="45.92918" lon="4.01522">
        <ele>401.97</ele>
        <time>2016-09-22T14:49:11Z</time>
      </trkpt>
      <trkpt lat="45.92902" lon="4.01563">
        <ele>400.53</ele>
        <time>2016-09-22T14:49:32Z</time>
      </trkpt>
      <trkpt lat="45.92892" lon="4.01574">
        <ele>399.08</ele>
        <time>2016-09-22T14:49:41Z</time>
      </trkpt>
      <trkpt lat="45.92864" lon="4.01581">
        <ele>396.68</ele>
        <time>2016-09-22T14:50:03Z</time>
      </trkpt>
      <trkpt lat="45.92859" lon="4.01588">
        <ele>396.2</ele>
        <time>2016-09-22T14:50:09Z</time>
      </trkpt>
      <trkpt lat="45.92859" lon="4.01599">
        <ele>395.72</ele>
        <time>2016-09-22T14:50:15Z</time>
      </trkpt>
      <trkpt lat="45.92877" lon="4.01626">
        <ele>394.76</ele>
        <time>2016-09-22T14:50:34Z</time>
      </trkpt>
      <trkpt lat="45.92884" lon="4.01655">
        <ele>393.32</ele>
        <time>2016-09-22T14:50:52Z</time>
      </trkpt>
      <trkpt lat="45.92885" lon="4.01666">
        <ele>393.32</ele>
        <time>2016-09-22T14:50:58Z</time>
      </trkpt>
      <trkpt lat="45.92875" lon="4.01702">
        <ele>396.2</ele>
        <time>2016-09-22T14:51:19Z</time>
      </trkpt>
      <trkpt lat="45.92868" lon="4.01716">
        <ele>398.12</ele>
        <time>2016-09-22T14:51:28Z</time>
      </trkpt>
      <trkpt lat="45.92851" lon="4.01739">
        <ele>399.57</ele>
        <time>2016-09-22T14:51:46Z</time>
      </trkpt>
      <trkpt lat="45.92838" lon="4.01762">
        <ele>401.49</ele>
        <time>2016-09-22T14:52:03Z</time>
      </trkpt>
      <trkpt lat="45.92837" lon="4.01773">
        <ele>401.49</ele>
        <time>2016-09-22T14:52:12Z</time>
      </trkpt>
      <trkpt lat="45.92844" lon="4.018">
        <ele>403.89</ele>
        <time>2016-09-22T14:52:30Z</time>
      </trkpt>
      <trkpt lat="45.92856" lon="4.0183">
        <ele>404.37</ele>
        <time>2016-09-22T14:52:49Z</time>
      </trkpt>
      <trkpt lat="45.92863" lon="4.01843">
        <ele>404.37</ele>
        <time>2016-09-22T14:52:59Z</time>
      </trkpt>
      <trkpt lat="45.92869" lon="4.01849">
        <ele>404.37</ele>
        <time>2016-09-22T14:53:04Z</time>
      </trkpt>
      <trkpt lat="45.92883" lon="4.01869">
        <ele>403.89</ele>
        <time>2016-09-22T14:53:20Z</time>
      </trkpt>
      <trkpt lat="45.92897" lon="4.01893">
        <ele>404.37</ele>
        <time>2016-09-22T14:53:37Z</time>
      </trkpt>
      <trkpt lat="45.92913" lon="4.01914">
        <ele>404.37</ele>
        <time>2016-09-22T14:53:55Z</time>
      </trkpt>
      <trkpt lat="45.92926" lon="4.01928">
        <ele>405.81</ele>
        <time>2016-09-22T14:54:12Z</time>
      </trkpt>
      <trkpt lat="45.9293" lon="4.01933">
        <ele>406.77</ele>
        <time>2016-09-22T14:54:28Z</time>
      </trkpt>
      <trkpt lat="45.9293" lon="4.01932">
        <ele>406.77</ele>
        <time>2016-09-22T14:54:48Z</time>
      </trkpt>
      <trkpt lat="45.92934" lon="4.01931">
        <ele>406.77</ele>
        <time>2016-09-22T14:55:08Z</time>
      </trkpt>
      <trkpt lat="45.92963" lon="4.01935">
        <ele>404.37</ele>
        <time>2016-09-22T14:55:29Z</time>
      </trkpt>
      <trkpt lat="45.92991" lon="4.0194">
        <ele>404.85</ele>
        <time>2016-09-22T14:55:48Z</time>
      </trkpt>
      <trkpt lat="45.93016" lon="4.01952">
        <ele>404.85</ele>
        <time>2016-09-22T14:56:07Z</time>
      </trkpt>
      <trkpt lat="45.93026" lon="4.01966">
        <ele>403.89</ele>
        <time>2016-09-22T14:56:19Z</time>
      </trkpt>
      <trkpt lat="45.93026" lon="4.01968">
        <ele>403.89</ele>
        <time>2016-09-22T14:56:20Z</time>
      </trkpt>
      <trkpt lat="45.93021" lon="4.02005">
        <ele>403.41</ele>
        <time>2016-09-22T14:56:39Z</time>
      </trkpt>
      <trkpt lat="45.9302" lon="4.02023">
        <ele>403.41</ele>
        <time>2016-09-22T14:56:50Z</time>
      </trkpt>
      <trkpt lat="45.93025" lon="4.02039">
        <ele>402.45</ele>
        <time>2016-09-22T14:57:10Z</time>
      </trkpt>
      <trkpt lat="45.93026" lon="4.02064">
        <ele>399.08</ele>
        <time>2016-09-22T14:57:28Z</time>
      </trkpt>
      <trkpt lat="45.93033" lon="4.02093">
        <ele>394.28</ele>
        <time>2016-09-22T14:57:47Z</time>
      </trkpt>
      <trkpt lat="45.93042" lon="4.02123">
        <ele>390.91</ele>
        <time>2016-09-22T14:58:04Z</time>
      </trkpt>
      <trkpt lat="45.93054" lon="4.02153">
        <ele>386.59</ele>
        <time>2016-09-22T14:58:21Z</time>
      </trkpt>
      <trkpt lat="45.93063" lon="4.0219">
        <ele>380.34</ele>
        <time>2016-09-22T14:58:42Z</time>
      </trkpt>
      <trkpt lat="45.93065" lon="4.02215">
        <ele>376.01</ele>
        <time>2016-09-22T14:58:56Z</time>
      </trkpt>
      <trkpt lat="45.93065" lon="4.02246">
        <ele>371.21</ele>
        <time>2016-09-22T14:59:14Z</time>
      </trkpt>
      <trkpt lat="45.93063" lon="4.02287">
        <ele>365.44</ele>
        <time>2016-09-22T14:59:34Z</time>
      </trkpt>
      <trkpt lat="45.93076" lon="4.02317">
        <ele>360.63</ele>
        <time>2016-09-22T14:59:50Z</time>
      </trkpt>
      <trkpt lat="45.93096" lon="4.02353">
        <ele>353.9</ele>
        <time>2016-09-22T15:00:08Z</time>
      </trkpt>
      <trkpt lat="45.93109" lon="4.02393">
        <ele>347.17</ele>
        <time>2016-09-22T15:00:28Z</time>
      </trkpt>
      <trkpt lat="45.93111" lon="4.0241">
        <ele>344.77</ele>
        <time>2016-09-22T15:00:36Z</time>
      </trkpt>
      <trkpt lat="45.93127" lon="4.02448">
        <ele>337.56</ele>
        <time>2016-09-22T15:00:56Z</time>
      </trkpt>
      <trkpt lat="45.93142" lon="4.02484">
        <ele>333.23</ele>
        <time>2016-09-22T15:01:15Z</time>
      </trkpt>
      <trkpt lat="45.93148" lon="4.02501">
        <ele>331.79</ele>
        <time>2016-09-22T15:01:23Z</time>
      </trkpt>
      <trkpt lat="45.93157" lon="4.02539">
        <ele>330.35</ele>
        <time>2016-09-22T15:01:42Z</time>
      </trkpt>
      <trkpt lat="45.93157" lon="4.02541">
        <ele>330.35</ele>
        <time>2016-09-22T15:01:43Z</time>
      </trkpt>
      <trkpt lat="45.93162" lon="4.02551">
        <ele>328.91</ele>
        <time>2016-09-22T15:01:49Z</time>
      </trkpt>
      <trkpt lat="45.93171" lon="4.02567">
        <ele>330.35</ele>
        <time>2016-09-22T15:02:03Z</time>
      </trkpt>
      <trkpt lat="45.93172" lon="4.02588">
        <ele>333.71</ele>
        <time>2016-09-22T15:02:19Z</time>
      </trkpt>
      <trkpt lat="45.93168" lon="4.02601">
        <ele>334.68</ele>
        <time>2016-09-22T15:02:32Z</time>
      </trkpt>
      <trkpt lat="45.93159" lon="4.02608">
        <ele>335.16</ele>
        <time>2016-09-22T15:02:45Z</time>
      </trkpt>
      <trkpt lat="45.93142" lon="4.02625">
        <ele>334.2</ele>
        <time>2016-09-22T15:03:00Z</time>
      </trkpt>
      <trkpt lat="45.93133" lon="4.02637">
        <ele>332.75</ele>
        <time>2016-09-22T15:03:19Z</time>
      </trkpt>
      <trkpt lat="45.93129" lon="4.02678">
        <ele>329.87</ele>
        <time>2016-09-22T15:03:41Z</time>
      </trkpt>
      <trkpt lat="45.9313" lon="4.02712">
        <ele>328.43</ele>
        <time>2016-09-22T15:03:59Z</time>
      </trkpt>
      <trkpt lat="45.93127" lon="4.02735">
        <ele>325.06</ele>
        <time>2016-09-22T15:04:12Z</time>
      </trkpt>
      <trkpt lat="45.93125" lon="4.02764">
        <ele>321.22</ele>
        <time>2016-09-22T15:04:28Z</time>
      </trkpt>
      <trkpt lat="45.93122" lon="4.02795">
        <ele>319.3</ele>
        <time>2016-09-22T15:04:44Z</time>
      </trkpt>
      <trkpt lat="45.93121" lon="4.02823">
        <ele>318.33</ele>
        <time>2016-09-22T15:04:59Z</time>
      </trkpt>
      <trkpt lat="45.93121" lon="4.02829">
        <ele>318.81</ele>
        <time>2016-09-22T15:05:02Z</time>
      </trkpt>
      <trkpt lat="45.93118" lon="4.02864">
        <ele>319.3</ele>
        <time>2016-09-22T15:05:19Z</time>
      </trkpt>
      <trkpt lat="45.93118" lon="4.02892">
        <ele>319.78</ele>
        <time>2016-09-22T15:05:33Z</time>
      </trkpt>
      <trkpt lat="45.93113" lon="4.02927">
        <ele>318.33</ele>
        <time>2016-09-22T15:05:52Z</time>
      </trkpt>
      <trkpt lat="45.93105" lon="4.02952">
        <ele>316.41</ele>
        <time>2016-09-22T15:06:08Z</time>
      </trkpt>
      <trkpt lat="45.93104" lon="4.02967">
        <ele>317.37</ele>
        <time>2016-09-22T15:06:16Z</time>
      </trkpt>
      <trkpt lat="45.93097" lon="4.02977">
        <ele>319.78</ele>
        <time>2016-09-22T15:06:31Z</time>
      </trkpt>
      <trkpt lat="45.93082" lon="4.02962">
        <ele>322.66</ele>
        <time>2016-09-22T15:06:46Z</time>
      </trkpt>
      <trkpt lat="45.93064" lon="4.02935">
        <ele>326.02</ele>
        <time>2016-09-22T15:07:08Z</time>
      </trkpt>
      <trkpt lat="45.93057" lon="4.02939">
        <ele>328.91</ele>
        <time>2016-09-22T15:07:23Z</time>
      </trkpt>
      <trkpt lat="45.93065" lon="4.02953">
        <ele>329.87</ele>
        <time>2016-09-22T15:07:32Z</time>
      </trkpt>
      <trkpt lat="45.9307" lon="4.02969">
        <ele>330.83</ele>
        <time>2016-09-22T15:07:43Z</time>
      </trkpt>
      <trkpt lat="45.93086" lon="4.02993">
        <ele>327.95</ele>
        <time>2016-09-22T15:07:58Z</time>
      </trkpt>
      <trkpt lat="45.93098" lon="4.03019">
        <ele>326.02</ele>
        <time>2016-09-22T15:08:11Z</time>
      </trkpt>
      <trkpt lat="45.93104" lon="4.03032">
        <ele>325.06</ele>
        <time>2016-09-22T15:08:20Z</time>
      </trkpt>
      <trkpt lat="45.93114" lon="4.03066">
        <ele>326.99</ele>
        <time>2016-09-22T15:08:38Z</time>
      </trkpt>
      <trkpt lat="45.93116" lon="4.03098">
        <ele>331.79</ele>
        <time>2016-09-22T15:08:56Z</time>
      </trkpt>
      <trkpt lat="45.93118" lon="4.03105">
        <ele>331.79</ele>
        <time>2016-09-22T15:09:13Z</time>
      </trkpt>
      <trkpt lat="45.93118" lon="4.03107">
        <ele>331.31</ele>
        <time>2016-09-22T15:09:35Z</time>
      </trkpt>
      <trkpt lat="45.93112" lon="4.03122">
        <ele>333.23</ele>
        <time>2016-09-22T15:09:49Z</time>
      </trkpt>
      <trkpt lat="45.93112" lon="4.03129">
        <ele>332.27</ele>
        <time>2016-09-22T15:09:54Z</time>
      </trkpt>
      <trkpt lat="45.93111" lon="4.03137">
        <ele>330.83</ele>
        <time>2016-09-22T15:10:00Z</time>
      </trkpt>
      <trkpt lat="45.93116" lon="4.03164">
        <ele>329.39</ele>
        <time>2016-09-22T15:10:18Z</time>
      </trkpt>
      <trkpt lat="45.93121" lon="4.03188">
        <ele>328.43</ele>
        <time>2016-09-22T15:10:32Z</time>
      </trkpt>
      <trkpt lat="45.93135" lon="4.03223">
        <ele>329.87</ele>
        <time>2016-09-22T15:10:53Z</time>
      </trkpt>
      <trkpt lat="45.9315" lon="4.03244">
        <ele>332.27</ele>
        <time>2016-09-22T15:11:09Z</time>
      </trkpt>
      <trkpt lat="45.93162" lon="4.03255">
        <ele>332.27</ele>
        <time>2016-09-22T15:11:24Z</time>
      </trkpt>
      <trkpt lat="45.9318" lon="4.03269">
        <ele>332.27</ele>
        <time>2016-09-22T15:11:40Z</time>
      </trkpt>
      <trkpt lat="45.93202" lon="4.03287">
        <ele>330.83</ele>
        <time>2016-09-22T15:11:58Z</time>
      </trkpt>
      <trkpt lat="45.93222" lon="4.03303">
        <ele>329.87</ele>
        <time>2016-09-22T15:12:16Z</time>
      </trkpt>
      <trkpt lat="45.93242" lon="4.03318">
        <ele>331.79</ele>
        <time>2016-09-22T15:12:32Z</time>
      </trkpt>
      <trkpt lat="45.93268" lon="4.03337">
        <ele>331.79</ele>
        <time>2016-09-22T15:12:53Z</time>
      </trkpt>
      <trkpt lat="45.9329" lon="4.03349">
        <ele>332.27</ele>
        <time>2016-09-22T15:13:10Z</time>
      </trkpt>
      <trkpt lat="45.93309" lon="4.03368">
        <ele>332.75</ele>
        <time>2016-09-22T15:13:28Z</time>
      </trkpt>
      <trkpt lat="45.93313" lon="4.03371">
        <ele>332.75</ele>
        <time>2016-09-22T15:13:50Z</time>
      </trkpt>
      <trkpt lat="45.93335" lon="4.03387">
        <ele>336.12</ele>
        <time>2016-09-22T15:14:09Z</time>
      </trkpt>
      <trkpt lat="45.93356" lon="4.03402">
        <ele>337.08</ele>
        <time>2016-09-22T15:14:25Z</time>
      </trkpt>
      <trkpt lat="45.93379" lon="4.03418">
        <ele>336.12</ele>
        <time>2016-09-22T15:14:45Z</time>
      </trkpt>
      <trkpt lat="45.93394" lon="4.0343">
        <ele>337.56</ele>
        <time>2016-09-22T15:14:56Z</time>
      </trkpt>
      <trkpt lat="45.9341" lon="4.03442">
        <ele>336.6</ele>
        <time>2016-09-22T15:15:09Z</time>
      </trkpt>
      <trkpt lat="45.93414" lon="4.03469">
        <ele>334.2</ele>
        <time>2016-09-22T15:15:26Z</time>
      </trkpt>
    </trkseg>
  </trk>
</gpx>